ftp/pub/palmer/observations_modified/2019/September/original_files/AR190905_BASE.txt
Download
Sample DateTime Unit Id WS Avg 2min WD Avg 2min WGS 10min WGD 10min Air Temp Rel Humidity Dew Point Pyranometer Quantum Air Pressure Snow Level Rainfall PW Current Visibility CBase 1 CBase 2 CBase 3 Vert Vis
2019/09/05 00:00:00 BASE 2.78 342 3.04 340 -2.3 100 -2.3 0 0 1004.7 NA 0.0000 UP BR 3600 0 0 0 2400
2019/09/05 00:01:00 BASE 3.03 340 3.19 339 -2.3 100 -2.3 0 0 1004.8 NA 0.0000 UP BR 3900 0 0 0 2360
2019/09/05 00:02:00 BASE 3.12 338 3.19 337 -2.3 100 -2.3 0 0 1004.8 NA 0.0000 UP BR 4100 0 0 0 2430
2019/09/05 00:03:00 BASE 3.11 336 3.19 334 -2.3 100 -2.3 0 0 1004.7 NA 0.0000 UP BR 4600 0 0 0 2430
2019/09/05 00:04:00 BASE 3.08 334 3.24 331 -2.3 100 -2.3 0 0 1004.7 NA 0.0000 UP BR 5000 0 0 0 2430
2019/09/05 00:05:00 BASE 3.23 333 3.45 332 -2.3 100 -2.3 0 0 1004.8 NA 0.0000 UP BR 6000 0 0 0 2460
2019/09/05 00:06:00 BASE 3.33 333 3.45 333 -2.3 100 -2.3 0 0 1004.7 NA 0.0000 UP BR 6000 0 0 0 2400
2019/09/05 00:07:00 BASE 3.35 332 3.55 327 -2.3 100 -2.3 0 0 1004.7 NA 0.0000 UP BR 6000 0 0 0 2360
2019/09/05 00:08:00 BASE 3.44 332 3.60 332 -2.3 100 -2.3 0 0 1004.7 NA 0.0000 UP BR 7000 200 0 0 0
2019/09/05 00:09:00 BASE 3.42 332 3.60 332 -2.3 100 -2.3 0 0 1004.8 NA 0.0000 UP BR 9000 260 0 0 0
2019/09/05 00:10:00 BASE 3.29 334 3.60 332 -2.3 100 -2.3 0 0 1004.7 NA 0.0000 UP BR 9000 260 1870 0 0
2019/09/05 00:11:00 BASE 3.18 338 3.60 332 -2.3 100 -2.3 0 0 1004.7 NA 0.0000 UP BR 8000 260 1080 0 0
2019/09/05 00:12:00 BASE 3.06 342 3.60 332 -2.3 100 -2.3 0 0 1004.7 NA 0.0000 UP BR 9000 300 1150 0 0
2019/09/05 00:13:00 BASE 2.83 344 3.60 332 -2.4 100 -2.4 0 0 1004.7 NA 0.0000 UP BR 9000 300 1150 0 0
2019/09/05 00:14:00 BASE 2.53 346 3.60 332 -2.4 100 -2.4 0 0 1004.7 NA 0.0000 BR 9000 300 1710 0 0
2019/09/05 00:15:00 BASE 2.16 347 3.60 332 -2.4 100 -2.4 0 0 1004.8 NA 0.0000 BR 9000 300 1640 0 0
2019/09/05 00:16:00 BASE 1.98 350 3.60 332 -2.5 100 -2.5 0 0 1004.8 NA 0.0000 BR 9000 300 1610 0 0
2019/09/05 00:17:00 BASE 1.99 351 3.60 332 -2.5 100 -2.5 0 0 1004.8 NA 0.0000 BR 8000 300 1640 0 0
2019/09/05 00:18:00 BASE 2.03 344 3.50 330 -2.5 100 -2.5 0 0 1004.8 NA 0.0000 BR 8000 300 1570 0 0
2019/09/05 00:19:00 BASE 2.08 341 3.29 341 -2.5 100 -2.5 0 0 1004.8 NA 0.0000 BR 7000 260 1570 0 0
2019/09/05 00:20:00 BASE 2.11 343 3.29 341 -2.5 100 -2.5 0 0 1004.8 NA 0.0000 BR 7000 230 1540 0 0
2019/09/05 00:21:00 BASE 2.12 341 3.19 341 -2.4 100 -2.4 0 0 1004.8 NA 0.0000 BR 6000 0 0 0 2330
2019/09/05 00:22:00 BASE 1.97 338 2.83 343 -2.4 100 -2.4 0 0 1004.8 NA 0.0000 BR 5000 0 0 0 2360
2019/09/05 00:23:00 BASE 1.69 346 2.78 342 -2.4 100 -2.4 0 0 1004.8 NA 0.0000 UP BR 5000 0 0 0 2360
2019/09/05 00:24:00 BASE 1.76 347 2.37 341 -2.4 100 -2.4 0 0 1004.7 NA 0.0000 UP BR 5000 0 0 0 2360
2019/09/05 00:25:00 BASE 2.13 343 2.52 340 -2.4 100 -2.4 0 0 1004.8 NA 0.0000 UP BR 6000 0 0 0 2360
2019/09/05 00:26:00 BASE 2.28 344 2.52 340 -2.4 100 -2.4 0 0 1004.7 NA 0.0000 UP BR 6000 0 0 0 2400
2019/09/05 00:27:00 BASE 2.43 342 2.78 337 -2.4 100 -2.4 0 0 1004.7 NA 0.0000 UP BR 6000 0 0 0 2400
2019/09/05 00:28:00 BASE 2.22 338 2.78 337 -2.4 100 -2.4 0 0 1004.7 NA 0.0000 UP BR 7000 0 0 0 2430
2019/09/05 00:29:00 BASE 2.29 333 2.88 329 -2.4 100 -2.4 0 0 1004.7 NA 0.0000 UP BR 8000 200 0 0 0
2019/09/05 00:30:00 BASE 2.73 331 2.88 333 -2.3 100 -2.3 0 0 1004.7 NA 0.0000 UP BR 9000 200 0 0 0
2019/09/05 00:31:00 BASE 2.81 333 3.09 337 -2.3 100 -2.3 0 0 1004.7 NA 0.0000 UP BR 9000 300 0 0 0
2019/09/05 00:32:00 BASE 2.82 332 3.09 329 -2.3 100 -2.3 0 0 1004.8 NA 0.0000 UP BR 9999 1080 2000 0 0
2019/09/05 00:33:00 BASE 2.80 332 3.09 329 -2.3 100 -2.3 0 0 1004.7 NA 0.0000 UP BR 9999 950 1970 0 0
2019/09/05 00:34:00 BASE 2.86 334 3.09 329 -2.3 100 -2.3 0 0 1004.7 NA 0.0000 UP BR 9999 1050 1870 0 0
2019/09/05 00:35:00 BASE 2.93 338 3.09 340 -2.3 100 -2.3 0 0 1004.7 NA 0.0000 BR 9999 1020 1800 0 0
2019/09/05 00:36:00 BASE 3.00 339 3.14 339 -2.3 100 -2.3 0 0 1004.7 NA 0.0000 BR 9999 790 1770 0 0
2019/09/05 00:37:00 BASE 3.15 338 3.45 337 -2.3 100 -2.3 0 0 1004.7 NA 0.0000 BR 9999 720 1710 0 0
2019/09/05 00:38:00 BASE 3.42 337 3.70 338 -2.3 100 -2.3 0 0 1004.6 NA 0.0000 9999 980 1670 0 0
2019/09/05 00:39:00 BASE 3.69 338 3.91 340 -2.3 100 -2.3 0 0 1004.6 NA 0.0000 9999 1120 1640 0 0
2019/09/05 00:40:00 BASE 3.88 340 4.06 340 -2.4 100 -2.4 0 0 1004.6 NA 0.0000 9999 1280 0 0 0
2019/09/05 00:41:00 BASE 4.03 340 4.27 339 -2.4 100 -2.4 0 0 1004.6 NA 0.0000 9999 1280 0 0 0
2019/09/05 00:42:00 BASE 4.04 340 4.27 339 -2.3 100 -2.3 0 0 1004.6 NA 0.0000 9999 1150 0 0 0
2019/09/05 00:43:00 BASE 4.05 340 4.27 338 -2.3 100 -2.3 0 0 1004.6 NA 0.0000 9999 590 1540 0 0
2019/09/05 00:44:00 BASE 4.21 340 4.63 340 -2.3 100 -2.3 0 0 1004.5 NA 0.0000 9999 1280 0 0 0
2019/09/05 00:45:00 BASE 4.49 339 4.89 337 -2.3 100 -2.3 0 0 1004.5 NA 0.0000 9999 1250 0 0 0
2019/09/05 00:46:00 BASE 4.76 337 5.14 334 -2.3 100 -2.3 0 0 1004.5 NA 0.0000 9999 1180 1870 0 0
2019/09/05 00:47:00 BASE 4.85 334 5.14 334 -2.3 100 -2.3 0 0 1004.5 NA 0.0000 9999 1440 0 0 0
2019/09/05 00:48:00 BASE 4.95 331 5.30 329 -2.3 100 -2.3 0 0 1004.6 NA 0.0000 9999 1440 0 0 0
2019/09/05 00:49:00 BASE 5.15 329 5.40 329 -2.3 100 -2.3 0 0 1004.6 NA 0.0000 9999 1410 0 0 0
2019/09/05 00:50:00 BASE 5.18 326 5.40 329 -2.3 100 -2.3 0 0 1004.6 NA 0.0000 9999 1410 0 0 0
2019/09/05 00:51:00 BASE 5.08 325 5.40 329 -2.3 100 -2.3 0 0 1004.6 NA 0.0000 9999 1440 0 0 0
2019/09/05 00:52:00 BASE 4.94 325 5.40 329 -2.3 100 -2.3 0 0 1004.6 NA 0.0000 9999 1440 0 0 0
2019/09/05 00:53:00 BASE 4.90 325 5.40 329 -2.3 100 -2.3 0 0 1004.7 NA 0.0000 9999 1410 0 0 0
2019/09/05 00:54:00 BASE 5.11 326 5.50 326 -2.3 100 -2.3 0 0 1004.7 NA 0.0000 9999 1410 0 0 0
2019/09/05 00:55:00 BASE 5.23 325 5.56 324 -2.3 100 -2.3 0 0 1004.7 NA 0.0000 9999 1380 0 0 0
2019/09/05 00:56:00 BASE 5.22 325 5.56 324 -2.3 100 -2.3 0 0 1004.8 NA 0.0000 9999 1380 0 0 0
2019/09/05 00:57:00 BASE 5.14 326 5.56 324 -2.3 100 -2.3 0 0 1004.7 NA 0.0000 9999 1380 0 0 0
2019/09/05 00:58:00 BASE 5.10 328 5.56 324 -2.3 100 -2.3 0 0 1004.8 NA 0.0000 9999 1310 0 0 0
2019/09/05 00:59:00 BASE 5.21 329 5.56 324 -2.3 100 -2.3 0 0 1004.8 NA 0.0000 9999 1310 0 0 0
2019/09/05 01:00:00 BASE 5.13 330 5.56 324 -2.3 100 -2.3 0 0 1004.7 NA 0.0000 9999 1280 0 0 0
2019/09/05 01:01:00 BASE 5.12 332 5.56 324 -2.3 100 -2.3 0 0 1004.7 NA 0.0000 9999 1180 0 0 0
2019/09/05 01:02:00 BASE 5.18 335 5.56 324 -2.3 100 -2.3 0 0 1004.7 NA 0.0000 9999 1080 0 0 0
2019/09/05 01:03:00 BASE 5.05 337 5.56 324 -2.3 100 -2.3 0 0 1004.7 NA 0.0000 9999 1050 0 0 0
2019/09/05 01:04:00 BASE 5.14 336 5.56 324 -2.3 100 -2.3 0 0 1004.7 NA 0.0000 9999 950 0 0 0
2019/09/05 01:05:00 BASE 5.34 334 5.56 335 -2.3 100 -2.3 0 0 1004.7 NA 0.0000 9999 890 0 0 0
2019/09/05 01:06:00 BASE 5.25 335 5.56 335 -2.3 100 -2.3 0 0 1004.7 NA 0.0000 9999 850 0 0 0
2019/09/05 01:07:00 BASE 5.12 336 5.56 335 -2.3 100 -2.3 0 0 1004.7 NA 0.0000 9999 750 0 0 0
2019/09/05 01:08:00 BASE 5.08 338 5.56 335 -2.3 100 -2.3 0 0 1004.7 NA 0.0000 9999 690 0 0 0
2019/09/05 01:09:00 BASE 5.03 337 5.56 335 -2.3 100 -2.3 0 0 1004.7 NA 0.0000 9999 690 0 0 0
2019/09/05 01:10:00 BASE 5.05 337 5.56 335 -2.3 100 -2.3 0 0 1004.7 NA 0.0000 9999 790 0 0 0
2019/09/05 01:11:00 BASE 5.20 337 5.56 336 -2.3 100 -2.3 0 0 1004.7 NA 0.0000 9999 750 0 0 0
2019/09/05 01:12:00 BASE 5.48 338 5.86 340 -2.3 100 -2.3 0 0 1004.7 NA 0.0000 9999 850 0 0 0
2019/09/05 01:13:00 BASE 5.67 341 5.86 340 -2.3 100 -2.3 0 0 1004.7 NA 0.0000 9999 750 0 0 0
2019/09/05 01:14:00 BASE 5.75 342 6.07 343 -2.3 100 -2.3 0 0 1004.6 NA 0.0000 9999 820 0 0 0
2019/09/05 01:15:00 BASE 5.85 344 6.17 341 -2.3 100 -2.3 0 0 1004.6 NA 0.0000 9999 820 0 0 0
2019/09/05 01:16:00 BASE 5.96 345 6.17 345 -2.2 100 -2.2 0 0 1004.6 NA 0.0000 9999 850 0 0 0
2019/09/05 01:17:00 BASE 6.01 344 6.17 343 -2.2 100 -2.2 0 0 1004.6 NA 0.0000 9999 920 0 0 0
2019/09/05 01:18:00 BASE 6.04 343 6.28 343 -2.2 100 -2.2 0 0 1004.5 NA 0.0000 9999 890 0 0 0
2019/09/05 01:19:00 BASE 6.12 343 6.28 344 -2.2 100 -2.2 0 0 1004.5 NA 0.0000 9999 790 0 0 0
2019/09/05 01:20:00 BASE 6.18 344 6.38 345 -2.2 100 -2.2 0 0 1004.5 NA 0.0000 9999 790 0 0 0
2019/09/05 01:21:00 BASE 6.10 344 6.53 345 -2.2 100 -2.2 0 0 1004.5 NA 0.0000 9999 720 0 0 0
2019/09/05 01:22:00 BASE 5.51 344 6.53 345 -2.3 100 -2.3 0 0 1004.5 NA 0.0000 9999 720 0 0 0
2019/09/05 01:23:00 BASE 4.90 344 6.53 345 -2.3 100 -2.3 0 0 1004.5 NA 0.0000 9999 750 0 0 0
2019/09/05 01:24:00 BASE 4.87 345 6.53 345 -2.3 100 -2.3 0 0 1004.5 NA 0.0000 9999 790 0 0 0
2019/09/05 01:25:00 BASE 5.47 345 6.58 346 -2.3 100 -2.3 0 0 1004.5 NA 0.0000 9999 820 0 0 0
2019/09/05 01:26:00 BASE 6.33 346 6.89 348 -2.3 100 -2.3 0 0 1004.5 NA 0.0000 9999 820 0 0 0
2019/09/05 01:27:00 BASE 6.63 349 6.89 348 -2.3 100 -2.3 0 0 1004.5 NA 0.0000 9999 890 0 0 0
2019/09/05 01:28:00 BASE 6.54 351 7.00 350 -2.2 100 -2.2 0 0 1004.5 NA 0.0000 9999 890 0 0 0
2019/09/05 01:29:00 BASE 6.51 350 7.00 350 -2.2 100 -2.2 0 0 1004.5 NA 0.0000 9999 920 0 0 0
2019/09/05 01:30:00 BASE 6.53 349 7.05 347 -2.2 100 -2.2 0 0 1004.5 NA 0.0000 9999 950 0 0 0
2019/09/05 01:31:00 BASE 6.55 350 7.05 347 -2.2 100 -2.2 0 0 1004.5 NA 0.0000 9999 980 0 0 0
2019/09/05 01:32:00 BASE 6.45 350 7.05 347 -2.2 100 -2.2 0 0 1004.5 NA 0.0000 9999 1020 0 0 0
2019/09/05 01:33:00 BASE 6.30 348 7.05 347 -2.2 100 -2.2 0 0 1004.5 NA 0.0000 9999 1020 0 0 0
2019/09/05 01:34:00 BASE 6.23 346 7.05 347 -2.2 100 -2.2 0 0 1004.5 NA 0.0000 9999 980 0 0 0
2019/09/05 01:35:00 BASE 6.21 345 7.05 347 -2.2 100 -2.2 0 0 1004.5 NA 0.0000 9999 1020 0 0 0
2019/09/05 01:36:00 BASE 6.17 343 7.05 347 -2.2 100 -2.2 0 0 1004.5 NA 0.0000 9999 1050 0 0 0
2019/09/05 01:37:00 BASE 6.04 343 7.05 347 -2.2 100 -2.2 0 0 1004.5 NA 0.0000 9999 1020 0 0 0
2019/09/05 01:38:00 BASE 5.86 345 7.05 347 -2.2 100 -2.2 0 0 1004.5 NA 0.0000 9999 1020 0 0 0
2019/09/05 01:39:00 BASE 5.76 345 7.05 347 -2.2 100 -2.2 0 0 1004.6 NA 0.0000 9999 1020 0 0 0
2019/09/05 01:40:00 BASE 5.79 343 6.94 350 -2.2 100 -2.2 0 0 1004.5 NA 0.0000 9999 1050 0 0 0
2019/09/05 01:41:00 BASE 5.87 342 6.64 351 -2.2 100 -2.2 0 0 1004.6 NA 0.0000 9999 1080 0 0 0
2019/09/05 01:42:00 BASE 6.01 342 6.48 346 -2.2 100 -2.2 0 0 1004.6 NA 0.0000 9999 1050 0 0 0
2019/09/05 01:43:00 BASE 6.17 345 6.48 346 -2.2 100 -2.2 0 0 1004.6 NA 0.0000 9999 1020 0 0 0
2019/09/05 01:44:00 BASE 6.12 347 6.48 346 -2.2 100 -2.2 0 0 1004.6 NA 0.0000 9999 1080 0 0 0
2019/09/05 01:45:00 BASE 5.95 348 6.48 346 -2.2 100 -2.2 0 0 1004.6 NA 0.0000 9999 1120 0 0 0
2019/09/05 01:46:00 BASE 5.80 348 6.48 346 -2.1 100 -2.1 0 0 1004.6 NA 0.0000 9999 1080 0 0 0
2019/09/05 01:47:00 BASE 5.76 348 6.48 346 -2.1 100 -2.1 0 0 1004.6 NA 0.0000 9999 1250 0 0 0
2019/09/05 01:48:00 BASE 5.93 348 6.48 346 -2.1 100 -2.1 0 0 1004.6 NA 0.0000 9999 1280 0 0 0
2019/09/05 01:49:00 BASE 5.95 346 6.48 346 -2.0 100 -2.0 0 0 1004.6 NA 0.0000 9999 1180 0 0 0
2019/09/05 01:50:00 BASE 5.81 345 6.48 346 -2.0 100 -2.0 0 0 1004.6 NA 0.0000 9999 1120 0 0 0
2019/09/05 01:51:00 BASE 5.77 344 6.48 346 -2.0 100 -2.0 0 0 1004.6 NA 0.0000 9999 980 0 0 0
2019/09/05 01:52:00 BASE 5.62 343 6.43 338 -1.9 100 -1.9 0 0 1004.5 NA 0.0000 9999 1180 0 0 0
2019/09/05 01:53:00 BASE 5.53 339 6.43 338 -1.9 100 -1.9 0 0 1004.5 NA 0.0000 9999 1020 0 0 0
2019/09/05 01:54:00 BASE 5.48 337 6.43 338 -1.9 100 -1.9 0 0 1004.5 NA 0.0000 9999 920 0 0 0
2019/09/05 01:55:00 BASE 5.46 336 6.43 338 -1.9 100 -1.9 0 0 1004.5 NA 0.0000 9999 820 0 0 0
2019/09/05 01:56:00 BASE 5.46 331 6.43 338 -1.9 100 -1.9 0 0 1004.5 NA 0.0000 9999 790 0 0 0
2019/09/05 01:57:00 BASE 5.65 327 6.43 338 -1.9 100 -1.9 0 0 1004.5 NA 0.0000 9999 750 0 0 0
2019/09/05 01:58:00 BASE 5.83 326 6.43 338 -1.9 100 -1.9 0 0 1004.5 NA 0.0000 9999 790 0 0 0
2019/09/05 01:59:00 BASE 5.90 324 6.38 320 -1.9 100 -1.9 0 0 1004.4 NA 0.0000 9999 750 0 0 0
2019/09/05 02:00:00 BASE 6.01 321 6.58 319 -1.9 100 -1.9 0 0 1004.4 NA 0.0000 9999 750 1710 0 0
2019/09/05 02:01:00 BASE 6.04 320 6.58 319 -1.9 100 -1.9 0 0 1004.4 NA 0.0000 9999 790 0 0 0
2019/09/05 02:02:00 BASE 6.10 321 6.89 323 -1.9 100 -1.9 0 0 1004.4 NA 0.0000 9999 750 0 0 0
2019/09/05 02:03:00 BASE 6.36 325 6.94 331 -1.9 100 -1.9 0 0 1004.4 NA 0.0000 9999 590 0 0 0
2019/09/05 02:04:00 BASE 6.41 328 6.94 331 -1.9 100 -1.9 0 0 1004.4 NA 0.0000 9999 590 0 0 0
2019/09/05 02:05:00 BASE 6.36 327 6.94 331 -1.8 100 -1.8 0 0 1004.4 NA 0.0000 9999 660 0 0 0
2019/09/05 02:06:00 BASE 6.43 329 6.94 331 -1.8 100 -1.8 0 0 1004.4 NA 0.0000 9999 690 0 0 0
2019/09/05 02:07:00 BASE 6.63 329 7.36 328 -1.8 100 -1.8 0 0 1004.4 NA 0.0000 9999 620 0 0 0
2019/09/05 02:08:00 BASE 6.91 329 7.36 328 -1.8 100 -1.8 0 0 1004.5 NA 0.0000 9999 490 0 0 0
2019/09/05 02:09:00 BASE 6.78 329 7.36 328 -1.8 100 -1.8 0 0 1004.5 NA 0.0000 9999 560 1480 0 0
2019/09/05 02:10:00 BASE 6.70 329 7.46 332 -1.8 100 -1.8 0 0 1004.5 NA 0.0000 9999 460 0 0 0
2019/09/05 02:11:00 BASE 7.07 329 7.77 332 -1.9 100 -1.9 0 0 1004.5 NA 0.0000 9999 460 0 0 0
2019/09/05 02:12:00 BASE 7.37 328 7.77 332 -1.9 100 -1.9 0 0 1004.5 NA 0.0000 9999 520 1280 0 0
2019/09/05 02:13:00 BASE 7.43 327 7.77 332 -1.9 100 -1.9 0 0 1004.5 NA 0.0000 9999 520 1410 0 0
2019/09/05 02:14:00 BASE 7.62 327 7.92 327 -2.0 100 -2.0 0 0 1004.5 NA 0.0000 9999 520 0 0 0
2019/09/05 02:15:00 BASE 7.93 325 8.54 323 -2.0 100 -2.0 0 0 1004.5 NA 0.0000 9999 490 0 0 0
2019/09/05 02:16:00 BASE 8.14 324 8.54 323 -2.0 100 -2.0 0 0 1004.5 NA 0.0000 9999 490 0 0 0
2019/09/05 02:17:00 BASE 8.16 326 8.54 325 -1.9 100 -1.9 0 0 1004.5 NA 0.0000 9999 490 0 0 0
2019/09/05 02:18:00 BASE 8.01 328 8.54 325 -1.9 100 -1.9 0 0 1004.5 NA 0.0000 9999 750 0 0 0
2019/09/05 02:19:00 BASE 7.71 327 8.54 325 -1.9 100 -1.9 0 0 1004.5 NA 0.0000 9999 820 0 0 0
2019/09/05 02:20:00 BASE 7.79 327 8.54 325 -1.9 100 -1.9 0 0 1004.5 NA 0.0000 9999 750 1380 0 0
2019/09/05 02:21:00 BASE 7.97 326 8.54 325 -1.9 100 -1.9 0 0 1004.5 NA 0.0000 9999 690 1310 0 0
2019/09/05 02:22:00 BASE 7.87 324 8.54 325 -1.9 100 -1.9 0 0 1004.5 NA 0.0000 9999 460 0 0 0
2019/09/05 02:23:00 BASE 7.84 323 8.54 325 -1.9 100 -1.9 0 0 1004.5 NA 0.0000 9999 490 0 0 0
2019/09/05 02:24:00 BASE 7.91 323 8.54 325 -1.9 100 -1.9 0 0 1004.5 NA 0.0000 9999 660 1280 0 0
2019/09/05 02:25:00 BASE 7.85 323 8.54 325 -1.9 100 -1.9 0 0 1004.5 NA 0.0000 9999 790 1440 0 0
2019/09/05 02:26:00 BASE 7.97 324 8.54 325 -1.9 100 -1.9 0 0 1004.5 NA 0.0000 9999 890 0 0 0
2019/09/05 02:27:00 BASE 7.99 324 8.49 326 -1.9 100 -1.9 0 0 1004.4 NA 0.0000 9999 920 0 0 0
2019/09/05 02:28:00 BASE 8.03 325 8.59 331 -2.0 100 -2.0 0 0 1004.4 NA 0.0000 9999 520 0 0 0
2019/09/05 02:29:00 BASE 8.26 326 8.59 331 -2.0 100 -2.0 0 0 1004.4 NA 0.0000 9999 490 0 0 0
2019/09/05 02:30:00 BASE 8.24 327 8.64 329 -1.9 100 -1.9 0 0 1004.3 NA 0.0000 9999 490 0 0 0
2019/09/05 02:31:00 BASE 8.39 329 8.85 331 -1.9 100 -1.9 0 0 1004.3 NA 0.0000 9999 430 0 0 0
2019/09/05 02:32:00 BASE 8.58 330 8.90 327 -1.8 100 -1.8 0 0 1004.3 NA 0.0000 9999 430 0 0 0
2019/09/05 02:33:00 BASE 8.81 332 9.21 333 -1.8 100 -1.8 0 0 1004.2 NA 0.0000 9999 430 0 0 0
2019/09/05 02:34:00 BASE 8.94 333 9.26 334 -1.8 100 -1.8 0 0 1004.2 NA 0.0000 9999 360 1050 0 0
2019/09/05 02:35:00 BASE 8.73 332 9.26 334 -1.8 100 -1.8 0 0 1004.2 NA 0.0000 9999 360 1050 0 0
2019/09/05 02:36:00 BASE 8.68 331 9.26 334 -1.8 100 -1.8 0 0 1004.2 NA 0.0000 9999 430 1050 0 0
2019/09/05 02:37:00 BASE 8.62 326 9.26 334 -1.8 100 -1.8 0 0 1004.2 NA 0.0000 9999 490 1020 0 0
2019/09/05 02:38:00 BASE 8.58 322 9.26 334 -1.8 100 -1.8 0 0 1004.2 NA 0.0000 9999 520 1080 0 0
2019/09/05 02:39:00 BASE 8.74 324 9.26 334 -1.8 100 -1.8 0 0 1004.1 NA 0.0000 9999 520 1150 0 0
2019/09/05 02:40:00 BASE 9.10 325 9.83 323 -1.8 100 -1.8 0 0 1004.1 NA 0.0000 9999 430 980 0 0
2019/09/05 02:41:00 BASE 9.17 325 9.83 323 -1.8 100 -1.8 0 0 1004.2 NA 0.0000 9999 390 0 0 0
2019/09/05 02:42:00 BASE 9.00 328 9.83 323 -1.9 100 -1.9 0 0 1004.1 NA 0.0000 9999 330 0 0 0
2019/09/05 02:43:00 BASE 8.97 332 9.83 323 -1.9 100 -1.9 0 0 1004.1 NA 0.0000 9999 300 0 0 0
2019/09/05 02:44:00 BASE 8.75 335 9.83 323 -1.9 100 -1.9 0 0 1004.0 NA 0.0000 9999 300 0 0 0
2019/09/05 02:45:00 BASE 8.70 336 9.83 323 -1.9 100 -1.9 0 0 1004.1 NA 0.0000 9999 330 0 0 0
2019/09/05 02:46:00 BASE 8.50 337 9.83 323 -1.9 100 -1.9 0 0 1004.0 NA 0.0000 9999 360 0 0 0
2019/09/05 02:47:00 BASE 7.83 339 9.83 323 -1.9 100 -1.9 0 0 1004.0 NA 0.0000 9999 300 0 0 0
2019/09/05 02:48:00 BASE 7.72 340 9.83 323 -1.9 100 -1.9 0 0 1004.0 NA 0.0000 9999 300 0 0 0
2019/09/05 02:49:00 BASE 8.02 340 9.83 323 -1.9 100 -1.9 0 0 1004.0 NA 0.0000 9999 300 0 0 0
2019/09/05 02:50:00 BASE 8.13 342 9.52 327 -1.9 100 -1.9 0 0 1004.0 NA 0.0000 9999 300 0 0 0
2019/09/05 02:51:00 BASE 8.32 343 9.31 330 -1.9 100 -1.9 0 0 1004.0 NA 0.0000 9999 260 1610 0 0
2019/09/05 02:52:00 BASE 8.25 344 9.05 337 -1.9 100 -1.9 0 0 1004.0 NA 0.0000 9999 260 1540 0 0
2019/09/05 02:53:00 BASE 8.12 346 9.05 337 -1.9 100 -1.9 0 0 1003.9 NA 0.0000 9999 300 1540 0 0
2019/09/05 02:54:00 BASE 8.62 345 9.36 347 -2.0 100 -2.0 0 0 1003.9 NA 0.0000 9999 300 1540 0 0
2019/09/05 02:55:00 BASE 8.93 345 9.36 347 -2.0 100 -2.0 0 0 1003.9 NA 0.0000 9999 300 1610 0 0
2019/09/05 02:56:00 BASE 8.64 346 9.36 347 -2.0 100 -2.0 0 0 1003.9 NA 0.0000 9999 330 1540 0 0
2019/09/05 02:57:00 BASE 8.62 347 9.36 347 -2.0 100 -2.0 0 0 1003.8 NA 0.0000 9999 360 1480 0 0
2019/09/05 02:58:00 BASE 8.63 348 9.36 347 -2.0 100 -2.0 0 0 1003.8 NA 0.0000 9999 360 1440 0 0
2019/09/05 02:59:00 BASE 8.86 348 9.52 347 -2.0 100 -2.0 0 0 1003.8 NA 0.0000 9999 330 1670 0 0
2019/09/05 03:00:00 BASE 9.25 348 9.62 350 -2.0 100 -2.0 0 0 1003.7 NA 0.0000 9999 300 1740 0 0
2019/09/05 03:01:00 BASE 8.95 349 9.62 350 -2.0 100 -2.0 0 0 1003.7 NA 0.0000 9999 330 1770 0 0
2019/09/05 03:02:00 BASE 8.57 345 9.62 350 -2.0 100 -2.0 0 0 1003.7 NA 0.0000 9999 1670 0 0 0
2019/09/05 03:03:00 BASE 8.74 341 9.62 350 -2.0 100 -2.0 0 0 1003.7 NA 0.0000 9999 360 1610 0 0
2019/09/05 03:04:00 BASE 8.99 340 9.62 350 -2.0 100 -2.0 0 0 1003.6 NA 0.0000 9999 1740 0 0 0
2019/09/05 03:05:00 BASE 9.08 340 9.62 350 -2.0 100 -2.0 0 0 1003.6 NA 0.0000 9999 1870 0 0 0
2019/09/05 03:06:00 BASE 9.11 341 9.62 350 -2.0 100 -2.0 0 0 1003.5 NA 0.0000 9999 980 1840 0 0
2019/09/05 03:07:00 BASE 9.09 340 9.62 350 -2.0 100 -2.0 0 0 1003.5 NA 0.0000 9999 1020 1800 0 0
2019/09/05 03:08:00 BASE 9.21 339 9.62 337 -2.0 100 -2.0 0 0 1003.5 NA 0.0000 9999 1120 1870 2760 0
2019/09/05 03:09:00 BASE 9.19 336 9.62 337 -1.9 100 -1.9 0 0 1003.5 NA 0.0000 9999 1180 1870 3180 0
2019/09/05 03:10:00 BASE 8.36 326 9.62 337 -1.9 100 -1.9 0 0 1003.5 NA 0.0000 9999 1150 1900 3080 0
2019/09/05 03:11:00 BASE 7.89 315 9.62 337 -1.9 100 -1.9 0 0 1003.6 NA 0.0000 9999 520 1210 0 0
2019/09/05 03:12:00 BASE 8.58 313 9.62 311 -1.9 100 -1.9 0 0 1003.6 NA 0.0000 9999 360 1840 0 0
2019/09/05 03:13:00 BASE 8.92 320 9.62 311 -1.9 100 -1.9 0 0 1003.6 NA 0.0000 9999 330 1770 0 0
2019/09/05 03:14:00 BASE 9.59 328 11.21 338 -1.9 100 -1.9 0 0 1003.5 NA 0.0000 9999 1870 3120 0 0
2019/09/05 03:15:00 BASE 10.16 336 11.21 338 -1.9 100 -1.9 0 0 1003.5 NA 0.0000 9999 1800 3220 0 0
2019/09/05 03:16:00 BASE 9.76 337 11.21 338 -1.9 100 -1.9 0 0 1003.5 NA 0.0000 9999 1800 3180 0 0
2019/09/05 03:17:00 BASE 9.88 333 11.21 338 -1.9 100 -1.9 0 0 1003.5 NA 0.0000 9999 1870 3280 0 0
2019/09/05 03:18:00 BASE 10.05 332 11.21 338 -1.9 100 -1.9 0 0 1003.5 NA 0.0000 9999 1840 3280 0 0
2019/09/05 03:19:00 BASE 10.03 335 11.21 338 -1.9 100 -1.9 0 0 1003.6 NA 0.0000 9999 1770 3250 0 0
2019/09/05 03:20:00 BASE 9.76 337 11.21 338 -1.9 100 -1.9 0 0 1003.5 NA 0.0000 9999 1800 3250 0 0
2019/09/05 03:21:00 BASE 9.15 338 11.21 338 -1.9 100 -1.9 0 0 1003.5 NA 0.0000 9999 1840 3250 0 0
2019/09/05 03:22:00 BASE 8.79 338 11.21 338 -1.9 100 -1.9 0 0 1003.6 NA 0.0000 9999 1800 3150 0 0
2019/09/05 03:23:00 BASE 8.50 336 11.21 338 -1.9 100 -1.9 0 0 1003.6 NA 0.0000 9999 1840 3220 0 0
2019/09/05 03:24:00 BASE 8.42 335 10.85 336 -1.9 100 -1.9 0 0 1003.6 NA 0.0000 9999 1870 0 0 0
2019/09/05 03:25:00 BASE 8.60 335 10.80 337 -1.9 100 -1.9 0 0 1003.6 NA 0.0000 9999 1900 3280 0 0
2019/09/05 03:26:00 BASE 8.58 334 10.80 337 -1.8 100 -1.8 0 0 1003.7 NA 0.0000 9999 1940 0 0 0
2019/09/05 03:27:00 BASE 8.39 332 10.80 337 -1.8 100 -1.8 0 0 1003.8 NA 0.0000 9999 2000 3220 0 0
2019/09/05 03:28:00 BASE 8.26 332 10.80 337 -1.8 100 -1.8 0 0 1003.8 NA 0.0000 9999 2070 0 0 0
2019/09/05 03:29:00 BASE 8.15 333 9.93 336 -1.8 100 -1.8 0 0 1003.8 NA 0.0000 9999 2070 0 0 0
2019/09/05 03:30:00 BASE 8.21 332 9.21 338 -1.8 100 -1.8 0 0 1003.8 NA 0.0000 9999 2030 0 0 0
2019/09/05 03:31:00 BASE 8.24 331 9.11 328 -1.8 100 -1.8 0 0 1003.8 NA 0.0000 9999 2030 0 0 0
2019/09/05 03:32:00 BASE 8.07 334 9.11 328 -1.8 100 -1.8 0 0 1003.7 NA 0.0000 9999 1970 0 0 0
2019/09/05 03:33:00 BASE 8.20 336 9.11 328 -1.8 100 -1.8 0 0 1003.7 NA 0.0000 9999 1940 3120 0 0
2019/09/05 03:34:00 BASE 8.63 337 9.16 337 -1.8 100 -1.8 0 0 1003.7 NA 0.0000 9999 1940 3080 0 0
2019/09/05 03:35:00 BASE 8.95 339 9.47 338 -1.8 100 -1.8 0 0 1003.6 NA 0.0000 9999 2000 0 0 0
2019/09/05 03:36:00 BASE 9.03 340 9.47 338 -1.8 100 -1.8 0 0 1003.6 NA 0.0000 9999 1970 3020 0 0
2019/09/05 03:37:00 BASE 8.92 339 9.47 338 -1.8 100 -1.8 0 0 1003.6 NA 0.0000 9999 2000 3120 0 0
2019/09/05 03:38:00 BASE 8.57 337 9.47 338 -1.8 100 -1.8 0 0 1003.6 NA 0.0000 9999 2000 0 0 0
2019/09/05 03:39:00 BASE 7.98 337 9.47 338 -1.8 100 -1.8 0 0 1003.6 NA 0.0000 9999 2000 0 0 0
2019/09/05 03:40:00 BASE 7.61 339 9.47 338 -1.8 100 -1.8 0 0 1003.5 NA 0.0000 9999 1970 0 0 0
2019/09/05 03:41:00 BASE 8.09 341 9.57 345 -1.8 100 -1.8 0 0 1003.5 NA 0.0000 9999 1900 0 0 0
2019/09/05 03:42:00 BASE 8.75 341 9.57 345 -1.8 100 -1.8 0 0 1003.5 NA 0.0000 9999 1900 3220 0 0
2019/09/05 03:43:00 BASE 8.85 339 9.57 345 -1.8 100 -1.8 0 0 1003.5 NA 0.0000 9999 1900 0 0 0
2019/09/05 03:44:00 BASE 8.64 338 9.57 345 -1.8 100 -1.8 0 0 1003.5 NA 0.0000 9999 1970 0 0 0
2019/09/05 03:45:00 BASE 8.80 335 9.83 330 -1.7 100 -1.7 0 0 1003.5 NA 0.0000 9999 1970 0 0 0
2019/09/05 03:46:00 BASE 8.84 331 9.83 330 -1.7 100 -1.7 0 0 1003.5 NA 0.0000 9999 2000 0 0 0
2019/09/05 03:47:00 BASE 8.58 329 9.83 330 -1.8 100 -1.8 0 0 1003.5 NA 0.0000 9999 2000 0 0 0
2019/09/05 03:48:00 BASE 8.80 330 9.83 330 -1.8 100 -1.8 0 0 1003.5 NA 0.0000 9999 2000 0 0 0
2019/09/05 03:49:00 BASE 9.16 330 9.98 324 -1.8 100 -1.8 0 0 1003.5 NA 0.0000 9999 1970 0 0 0
2019/09/05 03:50:00 BASE 9.13 330 9.98 324 -1.8 100 -1.8 0 0 1003.6 NA 0.0000 9999 2000 0 0 0
2019/09/05 03:51:00 BASE 8.82 330 9.98 324 -1.8 100 -1.8 0 0 1003.6 NA 0.0000 9999 2030 0 0 0
2019/09/05 03:52:00 BASE 8.80 329 9.98 324 -1.8 100 -1.8 0 0 1003.6 NA 0.0000 9999 2000 0 0 0
2019/09/05 03:53:00 BASE 8.93 326 10.08 330 -1.7 100 -1.7 0 0 1003.6 NA 0.0000 9999 2000 0 0 0
2019/09/05 03:54:00 BASE 9.02 323 10.08 330 -1.7 100 -1.7 0 0 1003.6 NA 0.0000 9999 1310 2030 0 0
2019/09/05 03:55:00 BASE 9.17 323 10.08 330 -1.7 100 -1.7 0 0 1003.6 NA 0.0000 9999 2000 0 0 0
2019/09/05 03:56:00 BASE 9.25 325 10.08 330 -1.7 100 -1.7 0 0 1003.6 NA 0.0000 9999 2000 0 0 0
2019/09/05 03:57:00 BASE 9.20 326 10.08 330 -1.8 100 -1.8 0 0 1003.5 NA 0.0000 9999 2030 0 0 0
2019/09/05 03:58:00 BASE 8.94 325 10.08 330 -1.8 100 -1.8 0 0 1003.5 NA 0.0000 9999 2000 0 0 0
2019/09/05 03:59:00 BASE 8.61 326 10.08 330 -1.8 100 -1.8 0 0 1003.5 NA 0.0000 9999 1900 0 0 0
2019/09/05 04:00:00 BASE 8.45 327 10.08 330 -1.8 100 -1.8 0 0 1003.5 NA 0.0000 9999 1870 0 0 0
2019/09/05 04:03:01 BASE 8.83 328 10.08 330 -1.8 100 -1.8 0 0 1003.5 NA 0.0000 9999 590 1870 0 0
2019/09/05 04:04:01 BASE 9.06 327 9.72 316 -1.8 100 -1.8 0 0 1003.5 NA 0.0000 9999 590 1800 0 0
2019/09/05 04:05:01 BASE 9.04 324 9.72 316 -1.8 100 -1.8 0 0 1003.5 NA 0.0000 9999 490 1840 0 0
2019/09/05 04:06:01 BASE 8.79 323 9.67 322 -1.8 100 -1.8 0 0 1003.5 NA 0.0000 9999 460 1800 0 0
2019/09/05 04:07:01 BASE 8.42 323 9.67 322 -1.8 100 -1.8 0 0 1003.5 NA 0.0000 9999 460 1800 0 0
2019/09/05 04:08:01 BASE 8.42 326 9.62 326 -1.9 100 -1.9 0 0 1003.5 NA 0.0000 9999 390 1840 0 0
2019/09/05 04:09:01 BASE 8.95 327 10.08 319 -1.9 100 -1.9 0 0 1003.5 NA 0.0000 9999 520 1870 0 0
2019/09/05 04:10:01 BASE 8.96 326 10.08 319 -1.9 100 -1.9 0 0 1003.5 NA 0.0000 9999 430 1900 0 0
2019/09/05 04:11:01 BASE 8.56 326 10.08 319 -1.9 100 -1.9 0 0 1003.4 NA 0.0000 9999 390 1940 0 0
2019/09/05 04:12:01 BASE 8.71 326 10.08 319 -1.9 100 -1.9 0 0 1003.4 NA 0.0000 9999 490 1900 0 0
2019/09/05 04:13:01 BASE 9.06 329 10.08 319 -1.9 100 -1.9 0 0 1003.5 NA 0.0000 9999 330 0 0 0
2019/09/05 04:14:01 BASE 8.74 331 10.08 319 -1.9 100 -1.9 0 0 1003.5 NA 0.0000 9999 300 0 0 0
2019/09/05 04:15:01 BASE 8.24 329 10.08 319 -1.9 100 -1.9 0 0 1003.5 NA 0.0000 9999 360 1970 0 0
2019/09/05 04:16:01 BASE 8.39 328 10.08 319 -2.0 100 -2.0 0 0 1003.5 NA 0.0000 9999 330 0 0 0
2019/09/05 04:17:01 BASE 8.57 330 10.08 319 -2.0 100 -2.0 0 0 1003.5 NA 0.0000 9999 330 0 0 0
2019/09/05 04:18:01 BASE 8.22 332 10.08 319 -2.0 100 -2.0 0 0 1003.5 NA 0.0000 9999 330 1940 0 0
2019/09/05 04:19:01 BASE 7.72 333 9.98 327 -2.0 100 -2.0 0 0 1003.5 NA 0.0000 9999 360 1940 0 0
2019/09/05 04:20:01 BASE 7.36 335 9.98 327 -2.0 100 -2.0 0 0 1003.5 NA 0.0000 9999 300 1940 0 0
2019/09/05 04:21:01 BASE 7.62 336 9.98 327 -2.0 100 -2.0 0 0 1003.5 NA 0.0000 9999 300 1900 0 0
2019/09/05 04:22:01 BASE 7.94 335 9.77 329 -2.0 100 -2.0 0 0 1003.5 NA 0.0000 9999 230 0 0 0
2019/09/05 04:23:01 BASE 7.77 336 9.21 327 -2.0 100 -2.0 0 0 1003.5 NA 0.0000 9999 260 0 0 0
2019/09/05 04:24:01 BASE 7.45 337 9.21 327 -2.0 100 -2.0 0 0 1003.5 NA 0.0000 9999 300 0 0 0
2019/09/05 04:25:01 BASE 7.57 338 9.21 327 -2.0 100 -2.0 0 0 1003.5 NA 0.0000 9999 300 0 0 0
2019/09/05 04:26:01 BASE 7.62 336 9.16 333 -2.0 100 -2.0 0 0 1003.5 NA 0.0000 9999 230 0 0 0
2019/09/05 04:27:01 BASE 7.43 334 9.11 333 -2.0 100 -2.0 0 0 1003.5 NA 0.0000 9999 260 0 0 0
2019/09/05 04:28:01 BASE 7.54 336 8.85 336 -2.0 100 -2.0 0 0 1003.5 NA 0.0000 9999 260 0 0 0
2019/09/05 04:29:01 BASE 7.68 337 8.85 336 -2.0 100 -2.0 0 0 1003.6 NA 0.0000 9999 260 0 0 0
2019/09/05 04:30:01 BASE 7.89 335 9.05 330 -2.0 100 -2.0 0 0 1003.6 NA 0.0000 9999 230 0 0 0
2019/09/05 04:31:01 BASE 7.60 332 9.05 330 -2.0 100 -2.0 0 0 1003.7 NA 0.0000 9999 200 0 0 0
2019/09/05 04:32:01 BASE 6.84 331 9.05 330 -2.0 100 -2.0 0 0 1003.7 NA 0.0000 9999 200 0 0 0
2019/09/05 04:33:01 BASE 6.33 329 9.05 330 -2.0 100 -2.0 0 0 1003.7 NA 0.0000 9999 200 0 0 0
2019/09/05 04:34:01 BASE 5.57 329 9.05 330 -2.0 100 -2.0 0 0 1003.8 NA 0.0000 9999 0 0 0 750
2019/09/05 04:35:01 BASE 4.94 330 9.05 330 -2.0 100 -2.0 0 0 1003.8 NA 0.0000 9999 230 0 0 0
2019/09/05 04:36:01 BASE 5.27 332 9.05 330 -2.0 100 -2.0 0 0 1003.9 NA 0.0000 9999 230 0 0 0
2019/09/05 04:37:01 BASE 6.15 334 9.05 330 -2.0 100 -2.0 0 0 1003.8 NA 0.0000 UP 9999 230 0 0 0
2019/09/05 04:38:01 BASE 6.16 327 9.05 330 -2.0 100 -2.0 0 0 1003.9 NA 0.0000 UP 9999 0 0 0 720
2019/09/05 04:39:01 BASE 5.73 324 9.05 330 -2.0 100 -2.0 0 0 1003.9 NA 0.0000 UP 9999 0 0 0 750
2019/09/05 04:40:01 BASE 5.69 325 7.77 329 -2.0 100 -2.0 0 0 1004.0 NA 0.0000 UP 9999 0 0 0 720
2019/09/05 04:41:01 BASE 5.48 324 7.20 336 -2.0 100 -2.0 0 0 1004.0 NA 0.0000 UP 9999 0 0 0 690
2019/09/05 04:42:01 BASE 5.62 325 7.20 336 -2.0 100 -2.0 0 0 1004.1 NA 0.0000 UP 9999 0 0 0 660
2019/09/05 04:43:01 BASE 5.45 327 7.20 336 -2.0 100 -2.0 0 0 1004.1 NA 0.0000 UP 9999 0 0 0 750
2019/09/05 04:44:01 BASE 5.39 330 7.20 336 -2.0 100 -2.0 0 0 1004.0 NA 0.0000 UP 9999 0 0 0 720
2019/09/05 04:45:01 BASE 5.41 332 7.20 336 -2.0 100 -2.0 0 0 1004.0 NA 0.0000 UP 9999 0 0 0 890
2019/09/05 04:46:01 BASE 4.98 334 7.20 336 -2.0 100 -2.0 0 0 1004.0 NA 0.0000 UP 9999 0 0 0 790
2019/09/05 04:47:01 BASE 4.87 335 6.84 332 -2.0 100 -2.0 0 0 1004.1 NA 0.0000 UP 9999 0 0 0 750
2019/09/05 04:48:01 BASE 4.97 336 6.84 332 -2.0 100 -2.0 0 0 1004.0 NA 0.0000 UP 9999 0 0 0 720
2019/09/05 04:49:01 BASE 5.36 340 6.48 327 -2.0 100 -2.0 0 0 1004.0 NA 0.0000 UP 9999 0 0 0 750
2019/09/05 04:50:01 BASE 5.71 341 6.48 327 -2.0 100 -2.0 0 0 1004.1 NA 0.0000 UP 9999 0 0 0 690
2019/09/05 04:51:01 BASE 5.42 340 6.48 327 -2.0 100 -2.0 0 0 1004.1 NA 0.0000 UP 9000 0 0 0 750
2019/09/05 04:52:01 BASE 5.11 340 6.33 325 -2.0 100 -2.0 0 0 1004.1 NA 0.0000 UP 9999 0 0 0 750
2019/09/05 04:53:01 BASE 5.26 341 6.33 325 -2.0 100 -2.0 0 0 1004.1 NA 0.0000 UP 9999 0 0 0 690
2019/09/05 04:54:01 BASE 5.42 345 6.17 343 -2.0 100 -2.0 0 0 1004.1 NA 0.0000 UP 9999 0 0 0 690
2019/09/05 04:55:01 BASE 5.49 346 6.17 343 -2.0 100 -2.0 0 0 1004.1 NA 0.0000 UP 9999 0 0 0 660
2019/09/05 04:56:01 BASE 5.44 346 6.17 343 -2.0 100 -2.0 0 0 1004.0 NA 0.0000 UP 9000 0 0 0 820
2019/09/05 04:57:01 BASE 5.29 343 6.17 343 -2.0 100 -2.0 0 0 1004.0 NA 0.0000 UP 9999 0 0 0 820
2019/09/05 04:58:01 BASE 5.60 342 7.05 339 -2.0 100 -2.0 0 0 1004.0 NA 0.0000 UP 9999 0 0 0 1050
2019/09/05 04:59:01 BASE 5.86 346 7.05 339 -2.0 100 -2.0 0 0 1004.0 NA 0.0000 UP 9999 0 0 0 1020
2019/09/05 05:00:01 BASE 5.82 347 7.05 339 -2.0 100 -2.0 0 0 1003.9 NA 0.0000 UP 9999 0 0 0 1080
2019/09/05 05:01:01 BASE 6.30 346 7.25 348 -2.1 100 -2.1 0 0 1003.9 NA 0.0000 UP 9999 0 0 0 950
2019/09/05 05:02:01 BASE 6.55 347 7.25 348 -2.1 100 -2.1 0 0 1003.9 NA 0.0000 UP 8000 0 0 0 1020
2019/09/05 05:03:01 BASE 6.64 350 7.46 354 -2.1 100 -2.1 0 0 1003.8 NA 0.0000 UP 9999 0 0 0 1050
2019/09/05 05:04:01 BASE 6.91 347 7.61 344 -2.1 100 -2.1 0 0 1003.7 NA 0.0000 UP 9999 0 0 0 1120
2019/09/05 05:05:01 BASE 7.07 344 7.61 345 -2.1 100 -2.1 0 0 1003.7 NA 0.0000 UP 9999 0 0 0 1120
2019/09/05 05:06:01 BASE 6.79 341 7.61 345 -2.1 100 -2.1 0 0 1003.8 NA 0.0000 UP 9999 0 0 0 1080
2019/09/05 05:07:01 BASE 6.65 340 7.77 336 -2.1 100 -2.1 0 0 1003.8 NA 0.0000 UP 9999 0 0 0 1120
2019/09/05 05:08:01 BASE 6.88 339 7.77 336 -2.1 100 -2.1 0 0 1003.8 NA 0.0000 UP 9999 0 0 0 1410
2019/09/05 05:09:01 BASE 6.68 332 7.77 336 -2.1 100 -2.1 0 0 1003.8 NA 0.0000 UP 9999 230 0 0 0
2019/09/05 05:10:01 BASE 6.78 330 7.77 336 -2.1 100 -2.1 0 0 1003.9 NA 0.0000 UP 8000 0 0 0 2230
2019/09/05 05:11:01 BASE 7.11 333 7.92 334 -2.1 100 -2.1 0 0 1003.8 NA 0.0000 UP 9999 260 0 0 0
2019/09/05 05:12:01 BASE 7.50 337 8.54 343 -2.1 100 -2.1 0 0 1003.8 NA 0.0000 UP 9999 260 0 0 0
2019/09/05 05:13:01 BASE 7.71 338 8.54 343 -2.1 100 -2.1 0 0 1003.8 NA 0.0000 UP 9999 300 0 0 0
2019/09/05 05:14:01 BASE 7.77 341 8.80 344 -2.1 100 -2.1 0 0 1003.8 NA 0.0000 UP 9999 300 0 0 0
2019/09/05 05:15:01 BASE 7.85 343 8.80 344 -2.1 100 -2.1 0 0 1003.8 NA 0.0000 UP 9999 300 0 0 0
2019/09/05 05:16:01 BASE 7.59 339 8.80 344 -2.1 100 -2.1 0 0 1003.8 NA 0.0000 UP 9999 300 0 0 0
2019/09/05 05:17:01 BASE 7.58 337 8.80 344 -2.1 100 -2.1 0 0 1003.8 NA 0.0000 UP 9999 330 0 0 0
2019/09/05 05:18:01 BASE 7.73 337 8.80 344 -2.1 100 -2.1 0 0 1003.7 NA 0.0000 UP 9999 300 0 0 0
2019/09/05 05:19:00 BASE 7.89 339 8.80 344 -2.1 100 -2.1 0 0 1003.7 NA 0.0000 UP 9999 330 0 0 0
2019/09/05 05:20:01 BASE 8.40 340 9.11 339 -2.1 100 -2.1 0 0 1003.6 NA 0.0000 UP 9999 330 0 0 0
2019/09/05 05:21:01 BASE 9.01 339 9.77 333 -2.1 100 -2.1 0 0 1003.5 NA 0.0000 UP 9999 330 1840 0 0
2019/09/05 05:22:01 BASE 9.02 337 9.77 333 -2.1 100 -2.1 0 0 1003.5 NA 0.0000 UP 9999 300 1800 0 0
2019/09/05 05:23:00 BASE 8.55 338 9.77 333 -2.1 100 -2.1 0 0 1003.5 NA 0.0000 UP 9999 300 1710 0 0
2019/09/05 05:24:01 BASE 8.23 335 9.77 333 -2.1 100 -2.1 0 0 1003.4 NA 0.0000 9999 330 1670 0 0
2019/09/05 05:25:00 BASE 8.76 336 10.08 333 -2.1 100 -2.1 0 0 1003.4 NA 0.0000 9999 330 1710 0 0
2019/09/05 05:26:01 BASE 9.34 339 10.34 339 -2.1 100 -2.1 0 0 1003.3 NA 0.0000 9999 390 1610 0 0
2019/09/05 05:27:00 BASE 9.80 340 11.21 340 -2.1 100 -2.1 0 0 1003.3 NA 0.0000 9999 390 1540 0 0
2019/09/05 05:28:00 BASE 10.01 339 11.21 340 -2.1 100 -2.1 0 0 1003.3 NA 0.0000 9999 390 3180 0 0
2019/09/05 05:29:00 BASE 10.20 336 11.42 337 -2.1 100 -2.1 0 0 1003.3 NA 0.0000 9999 390 0 0 0
2019/09/05 05:30:00 BASE 10.20 336 11.42 337 -2.1 100 -2.1 0 0 1003.3 NA 0.0000 9999 360 0 0 0
2019/09/05 05:31:00 BASE 9.86 337 11.42 337 -2.1 100 -2.1 0 0 1003.3 NA 0.0000 9999 360 0 0 0
2019/09/05 05:32:00 BASE 10.37 336 11.94 339 -2.1 100 -2.1 0 0 1003.2 NA 0.0000 9999 360 0 0 0
2019/09/05 05:33:00 BASE 10.44 336 11.94 339 -2.1 100 -2.1 0 0 1003.2 NA 0.0000 9999 360 0 0 0
2019/09/05 05:34:00 BASE 10.10 337 11.94 339 -2.1 100 -2.1 0 0 1003.2 NA 0.0000 9999 390 0 0 0
2019/09/05 05:35:00 BASE 10.02 335 11.94 339 -2.1 100 -2.1 0 0 1003.2 NA 0.0000 9999 360 0 0 0
2019/09/05 05:36:00 BASE 10.13 330 11.94 339 -2.1 100 -2.1 0 0 1003.2 NA 0.0000 9999 360 0 0 0
2019/09/05 05:37:00 BASE 9.63 330 11.94 339 -2.1 100 -2.1 0 0 1003.2 NA 0.0000 9999 360 0 0 0
2019/09/05 05:38:00 BASE 9.04 332 11.94 339 -2.1 100 -2.1 0 0 1003.2 NA 0.0000 9999 390 0 0 0
2019/09/05 05:39:00 BASE 10.36 332 12.91 331 -2.1 100 -2.1 0 0 1003.1 NA 0.0000 9999 360 0 0 0
2019/09/05 05:40:00 BASE 11.41 334 12.91 331 -2.2 100 -2.2 0 0 1003.0 NA 0.0000 9999 330 0 0 0
2019/09/05 05:41:00 BASE 10.99 336 12.91 331 -2.2 100 -2.2 0 0 1003.0 NA 0.0000 9999 360 0 0 0
2019/09/05 05:42:00 BASE 10.92 335 12.91 331 -2.2 100 -2.2 0 0 1002.9 NA 0.0000 9999 360 1900 0 0
2019/09/05 05:43:01 BASE 11.18 334 12.91 331 -2.2 100 -2.2 0 0 1002.9 NA 0.0000 9999 360 1800 0 0
2019/09/05 05:44:00 BASE 11.37 334 13.17 335 -2.2 100 -2.2 0 0 1002.9 NA 0.0000 9999 390 0 0 0
2019/09/05 05:45:00 BASE 11.45 334 13.17 335 -2.2 100 -2.2 0 0 1002.9 NA 0.0000 9999 390 1770 0 0
2019/09/05 05:46:01 BASE 11.48 332 13.17 335 -2.3 100 -2.3 0 0 1002.9 NA 0.0000 9999 360 1710 0 0
2019/09/05 05:47:00 BASE 11.41 330 13.38 325 -2.3 100 -2.3 0 0 1002.8 NA 0.0000 9999 390 1610 0 0
2019/09/05 05:48:00 BASE 11.49 329 13.38 325 -2.3 100 -2.3 0 0 1002.8 NA 0.0000 9999 460 1610 0 0
2019/09/05 05:49:00 BASE 11.96 331 13.58 330 -2.3 100 -2.3 0 0 1002.8 NA 0.0000 9999 390 1610 0 0
2019/09/05 05:50:00 BASE 12.16 333 13.58 330 -2.3 100 -2.3 0 0 1002.8 NA 0.0000 9999 430 1610 0 0
2019/09/05 05:51:00 BASE 12.21 332 13.68 328 -2.3 100 -2.3 0 0 1002.8 NA 0.0000 9999 460 1570 0 0
2019/09/05 05:52:00 BASE 12.37 332 13.68 328 -2.3 100 -2.3 0 0 1002.8 NA 0.0000 9999 430 1610 0 0
2019/09/05 05:53:00 BASE 12.48 332 13.68 328 -2.3 100 -2.3 0 0 1002.8 NA 0.0000 9999 490 1570 0 0
2019/09/05 05:54:01 BASE 12.26 334 13.68 328 -2.3 100 -2.3 0 0 1002.8 NA 0.0000 9999 460 1640 0 0
2019/09/05 05:55:00 BASE 11.94 335 13.68 328 -2.2 100 -2.2 0 0 1002.8 NA 0.0000 9999 490 1710 0 0
2019/09/05 05:56:01 BASE 11.85 332 13.68 328 -2.2 100 -2.2 0 0 1002.8 NA 0.0000 9999 490 1710 0 0
2019/09/05 05:57:01 BASE 11.48 329 13.68 328 -2.2 100 -2.2 0 0 1002.8 NA 0.0000 9999 460 1740 0 0
2019/09/05 05:58:00 BASE 10.98 326 13.68 328 -2.2 100 -2.2 0 0 1002.9 NA 0.0000 9999 430 1670 0 0
2019/09/05 05:59:00 BASE 10.31 323 13.68 328 -2.2 100 -2.2 0 0 1003.0 NA 0.0000 9999 430 1640 0 0
2019/09/05 06:00:00 BASE 9.40 321 13.68 328 -2.2 100 -2.2 0 0 1003.0 NA 0.0000 9999 460 1610 0 0
2019/09/05 06:01:00 BASE 8.65 321 13.43 320 -2.2 100 -2.2 0 0 1003.1 NA 0.0000 9999 460 1610 0 0
2019/09/05 06:02:00 BASE 8.58 317 13.43 320 -2.2 100 -2.2 0 0 1003.2 NA 0.0000 9999 460 1610 0 0
2019/09/05 06:03:00 BASE 9.17 316 12.91 335 -2.2 100 -2.2 0 0 1003.2 NA 0.0000 9999 390 1570 0 0
2019/09/05 06:04:00 BASE 8.59 319 12.91 335 -2.2 100 -2.2 0 0 1003.2 NA 0.0000 9999 460 1610 0 0
2019/09/05 06:05:00 BASE 7.73 320 12.91 335 -2.3 100 -2.3 0 0 1003.2 NA 0.0000 9999 360 1570 0 0
2019/09/05 06:06:00 BASE 8.17 322 12.45 331 -2.3 100 -2.3 0 0 1003.2 NA 0.0000 9999 330 1640 0 0
2019/09/05 06:07:00 BASE 8.72 323 12.45 331 -2.3 100 -2.3 0 0 1003.2 NA 0.0000 9999 330 0 0 0
2019/09/05 06:08:00 BASE 8.12 325 11.83 320 -2.3 100 -2.3 0 0 1003.3 NA 0.0000 9999 300 0 0 0
2019/09/05 06:09:00 BASE 7.61 329 10.65 320 -2.3 100 -2.3 0 0 1003.4 NA 0.0000 9999 360 0 0 0
2019/09/05 06:10:00 BASE 7.68 329 10.65 320 -2.3 100 -2.3 0 0 1003.4 NA 0.0000 9999 330 0 0 0
2019/09/05 06:11:00 BASE 7.36 331 10.65 320 -2.3 100 -2.3 0 0 1003.4 NA 0.0000 9999 300 0 0 0
2019/09/05 06:12:00 BASE 6.41 339 10.65 320 -2.2 100 -2.2 0 0 1003.5 NA 0.0000 9999 230 0 0 0
2019/09/05 06:13:00 BASE 6.03 336 10.19 321 -2.2 100 -2.2 0 0 1003.5 NA 0.0000 9999 300 0 0 0
2019/09/05 06:14:00 BASE 6.03 333 10.19 321 -2.2 100 -2.2 0 0 1003.6 NA 0.0000 9999 300 0 0 0
2019/09/05 06:15:00 BASE 5.86 334 10.19 321 -2.2 100 -2.2 0 0 1003.6 NA 0.0000 9999 330 0 0 0
2019/09/05 06:16:00 BASE 5.96 335 9.41 322 -2.2 100 -2.2 0 0 1003.6 NA 0.0000 9999 230 0 0 0
2019/09/05 06:17:00 BASE 5.83 336 8.39 336 -2.2 100 -2.2 0 0 1003.6 NA 0.0000 9999 230 0 0 0
2019/09/05 06:18:00 BASE 5.83 330 8.39 336 -2.2 100 -2.2 0 0 1003.6 NA 0.0000 9999 230 0 0 0
2019/09/05 06:19:00 BASE 5.58 331 8.39 336 -2.2 100 -2.2 0 0 1003.6 NA 0.0000 9999 300 0 0 0
2019/09/05 06:20:00 BASE 5.56 334 8.39 336 -2.2 100 -2.2 0 0 1003.6 NA 0.0000 9999 260 0 0 0
2019/09/05 06:21:00 BASE 5.86 329 7.05 330 -2.2 100 -2.2 0 0 1003.6 NA 0.0000 9999 230 0 0 0
2019/09/05 06:22:00 BASE 5.55 330 7.05 330 -2.2 100 -2.2 0 0 1003.6 NA 0.0000 9999 200 0 0 0
2019/09/05 06:23:00 BASE 5.52 336 6.94 319 -2.2 100 -2.2 0 0 1003.6 NA 0.0000 9999 230 0 0 0
2019/09/05 06:24:00 BASE 6.07 337 6.94 319 -2.2 100 -2.2 0 0 1003.6 NA 0.0000 9999 200 0 0 0
2019/09/05 06:25:00 BASE 6.52 333 7.51 335 -2.2 100 -2.2 0 0 1003.6 NA 0.0000 9999 230 0 0 0
2019/09/05 06:26:00 BASE 6.82 327 7.87 317 -2.2 100 -2.2 0 0 1003.6 NA 0.0000 9999 0 0 0 750
2019/09/05 06:27:00 BASE 6.20 322 7.87 317 -2.2 100 -2.2 0 0 1003.8 NA 0.0000 9999 200 0 0 0
2019/09/05 06:28:00 BASE 5.17 330 7.87 317 -2.2 100 -2.2 0 0 1003.8 NA 0.0000 9999 230 0 0 0
2019/09/05 06:29:00 BASE 4.92 334 7.87 317 -2.2 100 -2.2 0 0 1003.8 NA 0.0000 9999 200 0 0 0
2019/09/05 06:30:00 BASE 5.28 329 7.87 317 -2.2 100 -2.2 0 0 1003.8 NA 0.0000 9999 0 0 0 720
2019/09/05 06:31:00 BASE 5.62 327 7.87 317 -2.2 100 -2.2 0 0 1003.8 NA 0.0000 9999 0 0 0 790
2019/09/05 06:32:00 BASE 6.00 323 7.87 317 -2.2 100 -2.2 0 0 1003.9 NA 0.0000 9999 0 0 0 690
2019/09/05 06:33:00 BASE 5.84 322 7.87 317 -2.2 100 -2.2 0 0 1003.9 NA 0.0000 9999 0 0 0 720
2019/09/05 06:34:00 BASE 5.48 323 7.87 317 -2.2 100 -2.2 0 0 1003.9 NA 0.0000 9999 0 0 0 720
2019/09/05 06:35:00 BASE 5.34 319 7.87 317 -2.2 100 -2.2 0 0 1004.0 NA 0.0000 9999 0 0 0 750
2019/09/05 06:36:00 BASE 4.37 316 7.15 313 -2.2 100 -2.2 0 0 1004.0 NA 0.0000 9999 160 0 0 0
2019/09/05 06:37:00 BASE 4.28 307 7.15 313 -2.2 100 -2.2 0 0 1004.0 NA 0.0000 9999 0 0 0 820
2019/09/05 06:38:00 BASE 4.87 308 7.15 313 -2.2 100 -2.2 0 0 1004.0 NA 0.0000 9999 0 0 0 720
2019/09/05 06:39:00 BASE 4.43 317 7.15 313 -2.2 100 -2.2 0 0 1004.0 NA 0.0000 9999 160 0 0 0
2019/09/05 06:40:00 BASE 4.22 313 7.15 313 -2.2 100 -2.2 0 0 1004.0 NA 0.0000 9999 200 0 0 0
2019/09/05 06:41:00 BASE 3.88 315 7.15 313 -2.2 100 -2.2 0 0 1004.0 NA 0.0000 9999 260 0 0 0
2019/09/05 06:42:00 BASE 3.26 323 6.64 314 -2.2 100 -2.2 0 0 1004.0 NA 0.0000 9999 230 0 0 0
2019/09/05 06:43:00 BASE 3.21 329 6.64 314 -2.2 100 -2.2 0 0 1004.0 NA 0.0000 9999 200 0 0 0
2019/09/05 06:44:00 BASE 3.09 344 6.02 316 -2.2 100 -2.2 0 0 1004.0 NA 0.0000 9999 230 0 0 0
2019/09/05 06:45:00 BASE 3.17 353 5.45 304 -2.2 100 -2.2 0 0 1004.0 NA 0.0000 9999 200 0 0 0
2019/09/05 06:46:00 BASE 3.52 351 5.45 304 -2.2 100 -2.2 0 0 1004.0 NA 0.0000 9999 230 0 0 0
2019/09/05 06:47:00 BASE 4.11 349 5.25 304 -2.2 100 -2.2 0 0 1004.0 NA 0.0000 9999 200 0 0 0
2019/09/05 06:48:00 BASE 4.72 346 5.14 344 -2.2 100 -2.2 0 0 1003.9 NA 0.0000 9999 230 0 0 0
2019/09/05 06:49:00 BASE 4.84 339 5.14 344 -2.2 100 -2.2 0 0 1003.9 NA 0.0000 9999 200 0 0 0
2019/09/05 06:50:00 BASE 4.71 330 5.14 344 -2.2 100 -2.2 0 0 1003.9 NA 0.0000 9999 230 0 0 0
2019/09/05 06:51:00 BASE 4.63 328 5.14 344 -2.2 100 -2.2 0 0 1003.9 NA 0.0000 9999 200 0 0 0
2019/09/05 06:52:00 BASE 4.88 326 5.35 320 -2.2 100 -2.2 0 0 1003.9 NA 0.0000 9999 230 0 0 0
2019/09/05 06:53:00 BASE 5.28 321 6.12 326 -2.2 100 -2.2 0 0 1003.8 NA 0.0000 9999 260 0 0 0
2019/09/05 06:54:00 BASE 5.27 325 6.58 336 -2.3 100 -2.3 0 0 1003.8 NA 0.0000 9999 260 0 0 0
2019/09/05 06:55:00 BASE 5.30 333 6.74 327 -2.3 100 -2.3 0 0 1003.8 NA 0.0000 9999 200 0 0 0
2019/09/05 06:56:00 BASE 5.99 332 6.84 324 -2.3 100 -2.3 0 0 1003.8 NA 0.0000 9999 230 0 0 0
2019/09/05 06:57:00 BASE 6.45 331 6.84 324 -2.3 100 -2.3 0 0 1003.7 NA 0.0000 9999 200 0 0 0
2019/09/05 06:58:01 BASE 6.54 325 6.94 313 -2.3 100 -2.3 0 0 1003.8 NA 0.0000 9999 0 0 0 750
2019/09/05 06:59:00 BASE 6.25 318 6.94 313 -2.3 100 -2.3 0 0 1003.8 NA 0.0000 9999 0 0 0 750
2019/09/05 07:00:00 BASE 5.74 320 6.94 313 -2.3 100 -2.3 0 0 1003.8 NA 0.0000 9999 0 0 0 790
2019/09/05 07:01:00 BASE 5.79 327 6.94 313 -2.4 100 -2.4 0 0 1003.7 NA 0.0000 9999 0 0 0 750
2019/09/05 07:02:00 BASE 6.04 333 6.94 313 -2.4 100 -2.4 0 0 1003.6 NA 0.0000 9999 0 0 0 720
2019/09/05 07:03:00 BASE 6.12 337 6.94 313 -2.4 100 -2.4 0 0 1003.6 NA 0.0000 9999 0 0 0 720
2019/09/05 07:04:00 BASE 6.24 339 6.94 313 -2.4 100 -2.4 0 0 1003.6 NA 0.0000 9999 0 0 0 690
2019/09/05 07:05:01 BASE 6.12 339 6.94 313 -2.4 100 -2.4 0 0 1003.6 NA 0.0000 9999 0 0 0 690
2019/09/05 07:06:01 BASE 5.67 338 6.94 313 -2.4 100 -2.4 0 0 1003.6 NA 0.0000 9999 0 0 0 720
2019/09/05 07:07:01 BASE 5.71 338 6.94 313 -2.4 100 -2.4 0 0 1003.6 NA 0.0000 9999 0 0 0 690
2019/09/05 07:08:01 BASE 6.07 340 6.79 336 -2.4 100 -2.4 0 0 1003.6 NA 0.0000 9999 0 0 0 690
2019/09/05 07:09:01 BASE 6.04 342 6.79 336 -2.4 100 -2.4 0 0 1003.6 NA 0.0000 9999 0 0 0 690
2019/09/05 07:10:01 BASE 5.94 343 6.79 336 -2.4 100 -2.4 0 0 1003.6 NA 0.0000 9999 0 0 0 720
2019/09/05 07:11:00 BASE 6.10 342 6.79 343 -2.4 100 -2.4 0 0 1003.5 NA 0.0000 9999 0 0 0 690
2019/09/05 07:12:00 BASE 6.38 345 7.10 337 -2.4 100 -2.4 0 0 1003.5 NA 0.0000 9999 0 0 0 690
2019/09/05 07:13:00 BASE 6.34 342 7.10 337 -2.3 100 -2.3 0 0 1003.5 NA 0.0000 9999 0 0 0 690
2019/09/05 07:14:00 BASE 5.76 340 7.10 337 -2.3 100 -2.3 0 0 1003.6 NA 0.0000 9999 0 0 0 690
2019/09/05 07:15:00 BASE 5.31 338 7.10 337 -2.3 100 -2.3 0 0 1003.5 NA 0.0000 9999 0 0 0 660
2019/09/05 07:16:00 BASE 5.30 340 7.10 337 -2.3 100 -2.3 0 0 1003.5 NA 0.0000 9999 0 0 0 660
2019/09/05 07:17:00 BASE 5.57 343 7.10 337 -2.4 100 -2.4 0 0 1003.5 NA 0.0000 9999 0 0 0 660
2019/09/05 07:18:00 BASE 5.82 341 7.10 337 -2.4 100 -2.4 0 0 1003.5 NA 0.0000 9999 0 0 0 620
2019/09/05 07:19:00 BASE 5.99 340 7.10 337 -2.4 100 -2.4 0 0 1003.5 NA 0.0000 9999 0 0 0 660
2019/09/05 07:20:00 BASE 6.01 343 7.10 337 -2.3 100 -2.3 0 0 1003.5 NA 0.0000 9999 0 0 0 620
2019/09/05 07:21:01 BASE 6.21 346 7.10 337 -2.3 100 -2.3 0 0 1003.5 NA 0.0000 9999 0 0 0 620
2019/09/05 07:22:01 BASE 6.43 345 7.10 345 -2.3 100 -2.3 0 0 1003.5 NA 0.0000 9999 0 0 0 620
2019/09/05 07:23:00 BASE 6.60 341 7.25 344 -2.3 100 -2.3 0 0 1003.5 NA 0.0000 9999 0 0 0 620
2019/09/05 07:24:00 BASE 6.83 342 7.25 344 -2.3 100 -2.3 0 0 1003.4 NA 0.0000 9999 0 0 0 660
2019/09/05 07:25:00 BASE 6.85 343 7.25 344 -2.3 100 -2.3 0 0 1003.5 NA 0.0000 9999 0 0 0 660
2019/09/05 07:26:00 BASE 7.11 344 7.82 345 -2.3 100 -2.3 0 0 1003.4 NA 0.0000 9999 0 0 0 690
2019/09/05 07:27:00 BASE 7.46 342 7.82 343 -2.3 100 -2.3 0 0 1003.5 NA 0.0000 9999 0 0 0 660
2019/09/05 07:28:00 BASE 7.39 338 7.82 343 -2.3 100 -2.3 0 0 1003.5 NA 0.0000 9999 0 0 0 620
2019/09/05 07:29:00 BASE 7.36 335 7.92 327 -2.3 100 -2.3 0 0 1003.5 NA 0.0000 9999 0 0 0 720
2019/09/05 07:30:00 BASE 7.19 334 7.92 327 -2.3 100 -2.3 0 0 1003.5 NA 0.0000 9999 0 0 0 690
2019/09/05 07:31:00 BASE 6.66 337 7.92 327 -2.3 100 -2.3 0 0 1003.5 NA 0.0000 9000 0 0 0 660
2019/09/05 07:32:00 BASE 6.98 336 7.92 327 -2.3 100 -2.3 0 0 1003.5 NA 0.0000 8000 0 0 0 690
2019/09/05 07:33:00 BASE 7.54 334 8.49 332 -2.3 100 -2.3 0 0 1003.5 NA 0.0000 8000 0 0 0 620
2019/09/05 07:34:00 BASE 7.35 335 8.49 332 -2.3 100 -2.3 0 0 1003.5 NA 0.0000 7000 0 0 0 590
2019/09/05 07:35:00 BASE 7.52 339 8.49 332 -2.3 100 -2.3 0 0 1003.5 NA 0.0000 BR 7000 0 0 0 620
2019/09/05 07:36:00 BASE 7.57 340 8.49 332 -2.3 100 -2.3 0 0 1003.5 NA 0.0000 BR 7000 0 0 0 620
2019/09/05 07:37:00 BASE 7.33 341 8.49 332 -2.3 100 -2.3 0 0 1003.6 NA 0.0000 BR 7000 0 0 0 620
2019/09/05 07:38:00 BASE 7.44 343 8.85 346 -2.3 100 -2.3 0 0 1003.6 NA 0.0000 BR 6000 0 0 0 590
2019/09/05 07:39:00 BASE 7.32 343 8.85 346 -2.3 100 -2.3 0 0 1003.6 NA 0.0000 BR 5000 0 0 0 590
2019/09/05 07:40:00 BASE 6.61 342 8.85 346 -2.3 100 -2.3 0 0 1003.6 NA 0.0000 BR 5000 0 0 0 620
2019/09/05 07:41:00 BASE 6.14 341 8.85 346 -2.3 100 -2.3 0 0 1003.6 NA 0.0000 BR 4800 0 0 0 620
2019/09/05 07:42:00 BASE 6.26 341 8.85 346 -2.3 100 -2.3 0 0 1003.6 NA 0.0000 BR 4200 0 0 0 590
2019/09/05 07:43:00 BASE 6.00 342 8.85 346 -2.3 100 -2.3 0 0 1003.6 NA 0.0000 BR 4100 0 0 0 620
2019/09/05 07:44:00 BASE 5.92 348 8.85 346 -2.3 100 -2.3 0 0 1003.6 NA 0.0000 BR 4200 0 0 0 590
2019/09/05 07:45:00 BASE 5.86 348 8.85 346 -2.3 100 -2.3 0 0 1003.6 NA 0.0000 BR 4100 0 0 0 590
2019/09/05 07:46:00 BASE 5.41 346 8.85 346 -2.3 100 -2.3 0 0 1003.6 NA 0.0000 BR 3600 0 0 0 590
2019/09/05 07:47:00 BASE 5.01 346 8.85 346 -2.3 100 -2.3 0 0 1003.8 NA 0.0000 BR 3400 0 0 0 590
2019/09/05 07:48:00 BASE 4.75 349 8.03 346 -2.2 100 -2.2 0 0 1003.8 NA 0.0000 BR 3500 0 0 0 660
2019/09/05 07:49:00 BASE 4.57 353 6.84 337 -2.2 100 -2.2 0 0 1003.8 NA 0.0000 BR 3900 0 0 0 560
2019/09/05 07:50:00 BASE 4.43 353 6.84 337 -2.2 100 -2.2 0 0 1003.8 NA 0.0000 BR 3400 0 0 0 560
2019/09/05 07:51:12 BASE 4.79 352 6.84 337 -2.2 100 -2.2 0 0 1003.8 NA 0.0000 BR 3600 0 0 0 560
2019/09/05 07:52:00 BASE 5.41 349 6.84 337 -2.2 100 -2.2 0 0 1003.8 NA 0.0000 BR 4500 0 0 0 620
2019/09/05 07:53:00 BASE 5.50 348 6.38 352 -2.2 100 -2.2 0 0 1003.8 NA 0.0000 BR 5000 0 0 0 590
2019/09/05 07:54:00 BASE 5.33 350 6.28 348 -2.2 100 -2.2 0 0 1003.8 NA 0.0000 BR 4900 0 0 0 590
2019/09/05 07:55:00 BASE 5.35 351 6.28 348 -2.2 100 -2.2 0 0 1003.8 NA 0.0000 BR 4400 0 0 0 620
2019/09/05 07:56:00 BASE 4.85 351 6.28 348 -2.2 100 -2.2 0 0 1003.9 NA 0.0000 BR 4900 0 0 0 590
2019/09/05 07:57:00 BASE 4.21 351 6.28 348 -2.2 100 -2.2 0 0 1003.9 NA 0.0000 BR 4400 0 0 0 590
2019/09/05 07:58:00 BASE 4.02 351 6.28 348 -2.2 100 -2.2 0 0 1003.8 NA 0.0000 BR 4300 0 0 0 590
2019/09/05 07:59:00 BASE 4.12 351 6.28 348 -2.2 100 -2.2 0 0 1003.8 NA 0.0000 BR 4700 0 0 0 590
2019/09/05 08:00:00 BASE 4.11 347 6.28 348 -2.2 100 -2.2 0 0 1003.9 NA 0.0000 BR 4700 0 0 0 590
2019/09/05 08:01:00 BASE 3.82 344 6.28 348 -2.1 100 -2.1 0 0 1003.9 NA 0.0000 BR 3800 0 0 0 590
2019/09/05 08:02:00 BASE 4.01 343 5.92 349 -2.1 100 -2.1 0 0 1003.9 NA 0.0000 BR 3800 0 0 0 590
2019/09/05 08:03:00 BASE 4.33 341 5.92 349 -2.1 100 -2.1 0 0 1003.9 NA 0.0000 BR 4900 0 0 0 590
2019/09/05 08:04:01 BASE 4.84 336 5.92 349 -2.1 100 -2.1 0 0 1003.8 NA 0.0000 BR 6000 0 0 0 590
2019/09/05 08:05:00 BASE 4.75 331 5.76 331 -2.1 100 -2.1 0 0 1003.8 NA 0.0000 BR 6000 0 0 0 660
2019/09/05 08:06:01 BASE 4.67 332 5.81 339 -2.1 100 -2.1 0 0 1003.8 NA 0.0000 BR 5000 0 0 0 590
2019/09/05 08:07:00 BASE 5.26 338 5.92 335 -2.1 100 -2.1 0 0 1003.8 NA 0.0000 BR 4700 0 0 0 660
2019/09/05 08:08:01 BASE 5.30 341 5.92 339 -2.1 100 -2.1 0 0 1003.8 NA 0.0000 BR 5000 0 0 0 720
2019/09/05 08:09:00 BASE 4.92 341 5.92 339 -2.1 100 -2.1 0 0 1003.8 NA 0.0000 BR 5000 0 0 0 750
2019/09/05 08:10:00 BASE 4.23 353 5.92 339 -2.1 100 -2.1 0 0 1003.8 NA 0.0000 BR 5000 0 0 0 890
2019/09/05 08:11:00 BASE 4.32 351 5.92 339 -2.1 100 -2.1 0 0 1003.8 NA 0.0000 BR 5000 0 0 0 690
2019/09/05 08:12:00 BASE 5.25 339 6.02 342 -2.1 100 -2.1 0 0 1003.9 NA 0.0000 BR 6000 0 0 0 720
2019/09/05 08:13:00 BASE 5.43 337 6.02 342 -2.1 100 -2.1 0 0 1003.9 NA 0.0000 BR 8000 0 0 0 820
2019/09/05 08:14:00 BASE 5.27 335 6.02 342 -2.1 100 -2.1 0 0 1003.9 NA 0.0000 BR 6000 0 0 0 790
2019/09/05 08:15:00 BASE 5.46 337 6.02 342 -2.1 100 -2.1 0 0 1003.9 NA 0.0000 BR 4900 0 0 0 820
2019/09/05 08:16:01 BASE 5.66 341 6.22 340 -2.1 100 -2.1 0 0 1003.9 NA 0.0000 BR 5000 0 0 0 750
2019/09/05 08:17:01 BASE 5.95 341 6.79 335 -2.1 100 -2.1 0 0 1003.9 NA 0.0000 BR 7000 0 0 0 850
2019/09/05 08:18:01 BASE 5.97 340 6.79 335 -2.1 100 -2.1 0 0 1003.9 NA 0.0000 BR 9999 0 0 0 850
2019/09/05 08:19:01 BASE 5.44 341 6.79 335 -2.1 100 -2.1 0 0 1003.9 NA 0.0000 BR 9999 0 0 0 920
2019/09/05 08:20:00 BASE 5.00 342 6.79 335 -2.1 100 -2.1 0 0 1003.9 NA 0.0000 BR 9999 0 0 0 950
2019/09/05 08:21:00 BASE 4.90 345 6.79 335 -2.1 100 -2.1 0 0 1003.9 NA 0.0000 BR 9999 0 0 0 920
2019/09/05 08:22:00 BASE 4.69 349 6.79 335 -2.1 100 -2.1 0 0 1004.0 NA 0.0000 BR 9999 0 0 0 950
2019/09/05 08:23:00 BASE 4.76 352 6.79 335 -2.1 100 -2.1 0 0 1004.0 NA 0.0000 BR 9999 0 0 0 1050
2019/09/05 08:24:01 BASE 4.93 354 6.79 335 -2.1 100 -2.1 0 0 1004.0 NA 0.0000 BR 9999 0 0 0 1150
2019/09/05 08:25:01 BASE 4.83 347 6.79 335 -2.1 100 -2.1 0 0 1004.0 NA 0.0000 BR 9999 0 0 0 1120
2019/09/05 08:26:01 BASE 4.81 346 6.79 335 -2.1 100 -2.1 0 0 1004.0 NA 0.0000 9999 0 0 0 1150
2019/09/05 08:27:01 BASE 4.77 359 6.02 338 -2.1 100 -2.1 0 0 1003.9 NA 0.0000 9999 0 0 0 1080
2019/09/05 08:28:01 BASE 4.89 359 5.45 341 -2.1 100 -2.1 0 0 1003.9 NA 0.0000 9999 0 0 0 1050
2019/09/05 08:29:00 BASE 5.14 351 5.50 347 -2.2 100 -2.2 0 0 1003.9 NA 0.0000 9999 200 0 0 0
2019/09/05 08:30:00 BASE 5.28 348 5.66 346 -2.2 100 -2.2 0 0 1003.9 NA 0.0000 9999 200 0 0 0
2019/09/05 08:31:01 BASE 5.02 344 5.66 346 -2.2 100 -2.2 0 0 1003.9 NA 0.0000 9999 200 0 0 0
2019/09/05 08:32:01 BASE 4.39 343 5.66 346 -2.2 100 -2.2 0 0 1003.9 NA 0.0000 9999 0 0 0 1050
2019/09/05 08:33:00 BASE 4.28 345 5.66 346 -2.2 100 -2.2 0 0 1003.9 NA 0.0000 9999 200 0 0 0
2019/09/05 08:34:00 BASE 4.73 349 5.66 346 -2.1 100 -2.1 0 0 1003.9 NA 0.0000 9999 230 0 0 0
2019/09/05 08:35:00 BASE 4.68 345 5.66 346 -2.1 100 -2.1 0 0 1003.8 NA 0.0000 9999 230 0 0 0
2019/09/05 08:36:00 BASE 4.00 345 5.66 346 -2.1 100 -2.1 0 0 1003.9 NA 0.0000 9999 200 0 0 0
2019/09/05 08:37:00 BASE 4.11 349 5.66 346 -2.1 100 -2.1 0 0 1003.8 NA 0.0000 9999 260 0 0 0
2019/09/05 08:38:00 BASE 4.67 345 5.66 346 -2.1 100 -2.1 0 0 1003.8 NA 0.0000 9999 260 0 0 0
2019/09/05 08:39:00 BASE 5.10 344 6.07 345 -2.1 100 -2.1 0 0 1003.8 NA 0.0000 9999 260 0 0 0
2019/09/05 08:40:00 BASE 5.57 344 6.07 345 -2.1 100 -2.1 0 0 1003.8 NA 0.0000 9999 260 0 0 0
2019/09/05 08:41:00 BASE 5.15 343 6.07 345 -2.1 100 -2.1 0 0 1003.8 NA 0.0000 9999 260 0 0 0
2019/09/05 08:42:00 BASE 5.21 342 6.38 340 -2.1 100 -2.1 0 0 1003.8 NA 0.0000 9999 260 0 0 0
2019/09/05 08:43:00 BASE 5.69 338 6.38 340 -2.1 100 -2.1 0 0 1003.8 NA 0.0000 9999 330 0 0 0
2019/09/05 08:44:00 BASE 5.68 339 6.48 343 -2.1 100 -2.1 0 0 1003.7 NA 0.0000 9999 230 0 0 0
2019/09/05 08:45:00 BASE 5.76 341 6.58 346 -2.1 100 -2.1 0 0 1003.6 NA 0.0000 9999 230 0 0 0
2019/09/05 08:46:00 BASE 5.98 337 7.00 334 -2.1 100 -2.1 0 0 1003.6 NA 0.0000 9999 300 0 0 0
2019/09/05 08:47:00 BASE 6.42 337 7.36 341 -2.1 100 -2.1 0 0 1003.6 NA 0.0000 9999 230 0 0 0
2019/09/05 08:48:00 BASE 6.49 336 7.51 345 -2.1 100 -2.1 0 0 1003.6 NA 0.0000 9999 230 0 0 0
2019/09/05 08:49:00 BASE 6.45 335 7.51 345 -2.1 100 -2.1 0 0 1003.5 NA 0.0000 9999 230 0 0 0
2019/09/05 08:50:00 BASE 6.76 334 8.13 334 -2.1 100 -2.1 0 0 1003.5 NA 0.0000 9999 300 3280 0 0
2019/09/05 08:51:00 BASE 7.28 333 8.13 334 -2.1 100 -2.1 0 0 1003.5 NA 0.0000 9999 260 0 0 0
2019/09/05 08:52:00 BASE 7.14 329 8.13 334 -2.1 100 -2.1 0 0 1003.5 NA 0.0000 9999 330 0 0 0
2019/09/05 08:53:00 BASE 7.13 329 8.64 329 -2.1 100 -2.1 0 0 1003.5 NA 0.0000 9999 330 0 0 0
2019/09/05 08:54:00 BASE 7.68 335 8.64 329 -2.1 100 -2.1 0 0 1003.5 NA 0.0000 9999 300 0 0 0
2019/09/05 08:55:00 BASE 8.14 334 9.11 324 -2.1 100 -2.1 0 0 1003.4 NA 0.0000 9999 300 0 0 0
2019/09/05 08:56:00 BASE 7.77 332 9.11 324 -2.1 100 -2.1 0 0 1003.4 NA 0.0000 9999 230 3250 0 0
2019/09/05 08:57:00 BASE 7.37 335 9.52 337 -2.1 100 -2.1 0 0 1003.4 NA 0.0000 9999 230 3080 0 0
2019/09/05 08:58:00 BASE 7.91 334 9.52 337 -2.1 100 -2.1 0 0 1003.5 NA 0.0000 9999 300 0 0 0
2019/09/05 08:59:00 BASE 8.02 330 9.52 337 -2.1 100 -2.1 0 0 1003.4 NA 0.0000 9999 300 0 0 0
2019/09/05 09:00:00 BASE 8.21 329 10.24 329 -2.1 100 -2.1 0 0 1003.4 NA 0.0000 9999 330 3020 0 0
2019/09/05 09:01:00 BASE 8.44 334 10.24 329 -2.1 100 -2.1 0 0 1003.4 NA 0.0000 9999 230 3020 0 0
2019/09/05 09:02:00 BASE 8.14 337 10.24 329 -2.0 100 -2.0 0 0 1003.4 NA 0.0000 9999 200 0 0 0
2019/09/05 09:03:00 BASE 7.71 337 10.24 329 -2.0 100 -2.0 0 0 1003.4 NA 0.0000 9999 260 0 0 0
2019/09/05 09:04:00 BASE 7.94 339 10.24 329 -2.0 100 -2.0 0 0 1003.4 NA 0.0000 9999 300 0 0 0
2019/09/05 09:05:00 BASE 8.38 341 10.24 329 -2.0 100 -2.0 0 0 1003.4 NA 0.0000 9999 260 3080 0 0
2019/09/05 09:06:00 BASE 8.71 338 10.24 329 -2.0 100 -2.0 0 0 1003.4 NA 0.0000 9999 300 0 0 0
2019/09/05 09:07:00 BASE 8.42 338 10.24 329 -2.0 100 -2.0 0 0 1003.4 NA 0.0000 9999 230 0 0 0
2019/09/05 09:08:00 BASE 7.77 340 10.24 329 -2.0 100 -2.0 0 0 1003.4 NA 0.0000 9999 260 0 0 0
2019/09/05 09:09:00 BASE 7.80 338 10.24 329 -2.0 100 -2.0 0 0 1003.5 NA 0.0000 9999 260 0 0 0
2019/09/05 09:10:01 BASE 7.10 335 10.19 329 -2.0 100 -2.0 0 0 1003.5 NA 0.0000 9999 200 0 0 0
2019/09/05 09:11:01 BASE 6.91 337 10.19 329 -2.0 100 -2.0 0 0 1003.5 NA 0.0000 9999 260 0 0 0
2019/09/05 09:12:01 BASE 7.79 338 10.19 329 -2.0 100 -2.0 0 0 1003.5 NA 0.0000 9999 200 0 0 0
2019/09/05 09:13:01 BASE 8.09 336 10.19 329 -2.0 100 -2.0 0 0 1003.5 NA 0.0000 9999 260 0 0 0
2019/09/05 09:14:01 BASE 7.85 331 10.19 329 -2.0 100 -2.0 0 0 1003.6 NA 0.0000 9999 200 0 0 0
2019/09/05 09:15:00 BASE 7.47 330 10.19 329 -2.0 100 -2.0 0 0 1003.6 NA 0.0000 9999 230 0 0 0
2019/09/05 09:16:02 BASE 7.32 338 9.05 336 -2.0 100 -2.0 0 0 1003.6 NA 0.0000 9999 230 0 0 0
2019/09/05 09:17:01 BASE 7.05 339 9.05 336 -2.0 100 -2.0 0 0 1003.6 NA 0.0000 9999 230 0 0 0
2019/09/05 09:18:00 BASE 6.61 343 9.05 336 -2.0 100 -2.0 0 0 1003.5 NA 0.0000 9999 0 0 0 980
2019/09/05 09:19:00 BASE 6.54 347 9.05 336 -2.0 100 -2.0 0 0 1003.5 NA 0.0000 9999 260 0 0 0
2019/09/05 09:20:00 BASE 6.56 346 9.05 336 -2.0 100 -2.0 0 0 1003.5 NA 0.0000 9999 260 0 0 0
2019/09/05 09:21:00 BASE 6.43 344 9.00 336 -2.0 100 -2.0 0 0 1003.5 NA 0.0000 9999 200 0 0 0
2019/09/05 09:22:01 BASE 6.43 346 8.85 336 -2.0 100 -2.0 0 0 1003.5 NA 0.0000 9999 0 0 0 850
2019/09/05 09:23:01 BASE 7.07 349 8.75 344 -2.0 100 -2.0 0 0 1003.5 NA 0.0000 9999 0 0 0 890
2019/09/05 09:24:00 BASE 7.85 346 8.75 344 -2.0 100 -2.0 0 0 1003.5 NA 0.0000 9999 0 0 0 820
2019/09/05 09:25:00 BASE 7.65 344 8.75 344 -2.0 100 -2.0 0 0 1003.6 NA 0.0000 9999 0 0 0 920
2019/09/05 09:26:00 BASE 7.27 342 8.75 344 -2.0 100 -2.0 0 0 1003.6 NA 0.0000 9999 0 0 0 820
2019/09/05 09:27:00 BASE 7.20 343 8.75 344 -2.0 100 -2.0 0 0 1003.6 NA 0.0000 9999 200 0 0 0
2019/09/05 09:28:00 BASE 7.00 345 8.75 344 -2.0 100 -2.0 0 0 1003.6 NA 0.0000 9999 0 0 0 980
2019/09/05 09:29:00 BASE 6.73 343 8.75 344 -2.0 100 -2.0 0 0 1003.7 NA 0.0000 9999 0 0 0 850
2019/09/05 09:30:00 BASE 6.60 339 8.75 344 -2.0 100 -2.0 0 0 1003.7 NA 0.0000 9999 0 0 0 890
2019/09/05 09:31:00 BASE 6.93 341 8.75 344 -2.0 100 -2.0 0 0 1003.6 NA 0.0000 9999 0 0 0 890
2019/09/05 09:32:00 BASE 7.34 342 8.75 344 -2.0 100 -2.0 0 0 1003.6 NA 0.0000 9999 0 0 0 890
2019/09/05 09:33:00 BASE 7.27 341 8.64 346 -2.0 100 -2.0 0 0 1003.6 NA 0.0000 9999 0 0 0 920
2019/09/05 09:34:00 BASE 7.21 341 8.18 341 -2.0 100 -2.0 0 0 1003.6 NA 0.0000 9999 0 0 0 850
2019/09/05 09:35:00 BASE 7.22 341 8.18 341 -2.0 100 -2.0 0 0 1003.6 NA 0.0000 9999 0 0 0 920
2019/09/05 09:36:00 BASE 7.01 341 8.18 341 -2.0 100 -2.0 0 0 1003.6 NA 0.0000 9999 0 0 0 850
2019/09/05 09:37:00 BASE 7.25 336 8.59 323 -2.0 100 -2.0 0 0 1003.6 NA 0.0000 9999 0 0 0 920
2019/09/05 09:38:00 BASE 7.54 337 8.59 323 -2.0 100 -2.0 0 0 1003.6 NA 0.0000 9999 0 0 0 850
2019/09/05 09:39:00 BASE 7.56 341 8.59 323 -2.0 100 -2.0 0 0 1003.6 NA 0.0000 9999 0 0 0 820
2019/09/05 09:40:00 BASE 7.59 340 8.59 323 -2.0 100 -2.0 0 0 1003.6 NA 0.0000 9999 0 0 0 820
2019/09/05 09:41:00 BASE 7.58 342 8.59 323 -2.0 100 -2.0 0 0 1003.6 NA 0.0000 9999 0 0 0 920
2019/09/05 09:42:00 BASE 7.60 339 9.05 326 -2.0 100 -2.0 0 0 1003.5 NA 0.0000 9999 0 0 0 820
2019/09/05 09:43:00 BASE 7.69 334 9.05 326 -2.0 100 -2.0 0 0 1003.5 NA 0.0000 9999 0 0 0 790
2019/09/05 09:44:00 BASE 8.19 335 9.26 324 -2.0 100 -2.0 0 0 1003.6 NA 0.0000 9999 0 0 0 820
2019/09/05 09:45:00 BASE 8.28 335 9.57 332 -2.0 100 -2.0 0 0 1003.6 NA 0.0000 9999 0 0 0 790
2019/09/05 09:46:00 BASE 7.54 335 9.57 332 -2.0 100 -2.0 0 0 1003.6 NA 0.0000 9999 0 0 0 750
2019/09/05 09:47:00 BASE 7.45 330 9.57 332 -2.0 100 -2.0 0 0 1003.6 NA 0.0000 9999 0 0 0 820
2019/09/05 09:48:00 BASE 7.85 324 9.57 332 -1.9 100 -1.9 0 0 1003.6 NA 0.0000 9999 0 0 0 820
2019/09/05 09:49:00 BASE 7.90 328 9.57 332 -1.9 100 -1.9 0 0 1003.6 NA 0.0000 9999 0 0 0 2330
2019/09/05 09:50:01 BASE 7.16 329 9.57 332 -2.0 100 -2.0 0 0 1003.6 NA 0.0000 9999 0 0 0 850
2019/09/05 09:51:01 BASE 6.61 324 9.57 332 -2.0 100 -2.0 0 0 1003.6 NA 0.0000 9999 0 0 0 790
2019/09/05 09:52:01 BASE 6.67 323 9.57 332 -2.0 100 -2.0 0 0 1003.6 NA 0.0000 9999 0 0 0 850
2019/09/05 09:53:01 BASE 7.04 326 9.57 332 -2.0 100 -2.0 0 0 1003.6 NA 0.0000 9999 0 0 0 790
2019/09/05 09:54:01 BASE 7.79 328 9.62 323 -2.0 100 -2.0 0 0 1003.6 NA 0.0000 9999 200 0 0 0
2019/09/05 09:55:01 BASE 7.83 331 9.62 323 -2.0 100 -2.0 0 0 1003.6 NA 0.0000 9999 230 0 0 0
2019/09/05 09:56:25 BASE 7.48 328 9.62 323 -2.0 100 -2.0 0 0 1003.6 NA 0.0000 9999 200 0 0 0
2019/09/05 09:57:00 BASE 7.94 324 9.62 323 -2.0 100 -2.0 0 0 1003.6 NA 0.0000 9999 230 0 0 0
2019/09/05 09:58:00 BASE 8.32 324 9.62 323 -2.0 100 -2.0 0 0 1003.6 NA 0.0000 9999 230 0 0 0
2019/09/05 09:59:00 BASE 7.33 326 9.62 323 -2.0 100 -2.0 0 0 1003.6 NA 0.0000 9999 200 0 0 0
2019/09/05 10:00:00 BASE 6.72 330 9.62 323 -2.0 100 -2.0 0 0 1003.7 NA 0.0000 9999 230 0 0 0
2019/09/05 10:01:00 BASE 7.26 330 9.62 323 -2.0 100 -2.0 0 0 1003.6 NA 0.0000 9999 230 0 0 0
2019/09/05 10:02:00 BASE 7.19 326 9.62 323 -1.9 100 -1.9 0 0 1003.6 NA 0.0000 9999 0 0 0 980
2019/09/05 10:03:00 BASE 6.41 328 9.62 323 -1.9 100 -1.9 0 0 1003.6 NA 0.0000 9999 0 0 0 850
2019/09/05 10:04:00 BASE 5.99 327 9.52 315 -2.0 100 -2.0 0 0 1003.6 NA 0.0000 9999 200 0 0 0
2019/09/05 10:05:00 BASE 6.35 324 9.52 315 -1.9 100 -1.9 0 0 1003.7 NA 0.0000 9999 0 0 0 790
2019/09/05 10:06:00 BASE 6.67 323 9.52 315 -1.9 100 -1.9 0 0 1003.7 NA 0.0000 9999 0 0 0 850
2019/09/05 10:07:00 BASE 6.58 326 8.80 328 -1.9 100 -1.9 0 0 1003.7 NA 0.0000 9999 0 0 0 850
2019/09/05 10:08:00 BASE 6.92 331 8.64 321 -1.9 100 -1.9 0 0 1003.7 NA 0.0000 9999 0 0 0 890
2019/09/05 10:09:00 BASE 7.15 327 8.64 321 -1.9 100 -1.9 0 0 1003.8 NA 0.0000 9999 0 0 0 950
2019/09/05 10:10:00 BASE 6.48 322 8.64 321 -1.9 100 -1.9 0 0 1003.8 NA 0.0000 9999 0 0 0 920
2019/09/05 10:11:00 BASE 6.43 322 8.49 329 -1.9 100 -1.9 0 0 1003.8 NA 0.0000 9999 0 0 0 1020
2019/09/05 10:12:00 BASE 6.90 327 8.49 329 -1.9 100 -1.9 0 0 1003.7 NA 0.0000 9999 0 0 0 980
2019/09/05 10:13:00 BASE 6.91 334 8.49 329 -1.9 100 -1.9 0 0 1003.8 NA 0.0000 9999 0 0 0 980
2019/09/05 10:14:00 BASE 6.80 336 8.49 329 -1.9 100 -1.9 0 0 1003.8 NA 0.0000 9999 0 0 0 920
2019/09/05 10:15:00 BASE 6.82 336 8.49 329 -1.9 100 -1.9 0 0 1003.8 NA 0.0000 9999 0 0 0 920
2019/09/05 10:16:00 BASE 7.37 338 8.49 329 -1.9 100 -1.9 0 0 1003.8 NA 0.0000 9999 0 0 0 980
2019/09/05 10:17:00 BASE 7.47 341 8.49 329 -1.9 100 -1.9 0 0 1003.8 NA 0.0000 9999 0 0 0 950
2019/09/05 10:18:00 BASE 7.33 340 8.49 329 -1.9 100 -1.9 0 0 1003.8 NA 0.0000 9999 0 0 0 950
2019/09/05 10:19:00 BASE 6.77 339 8.39 322 -1.9 100 -1.9 0 0 1003.8 NA 0.0000 9999 0 0 0 1280
2019/09/05 10:20:00 BASE 6.13 336 8.39 322 -1.9 100 -1.9 0 0 1003.8 NA 0.0000 9999 0 0 0 1120
2019/09/05 10:21:00 BASE 6.48 337 8.39 322 -1.9 100 -1.9 0 0 1003.8 NA 0.0000 9999 0 0 0 1280
2019/09/05 10:22:00 BASE 6.80 338 8.18 353 -1.9 100 -1.9 0 0 1003.8 NA 0.0000 9999 0 0 0 950
2019/09/05 10:23:00 BASE 6.85 335 8.28 332 -1.9 100 -1.9 0 0 1003.8 NA 0.0000 9999 0 0 0 1050
2019/09/05 10:24:00 BASE 6.93 335 8.28 332 -1.9 100 -1.9 0 0 1003.8 NA 0.0000 9999 0 0 0 980
2019/09/05 10:25:00 BASE 6.97 334 8.28 332 -1.9 100 -1.9 0 0 1003.8 NA 0.0000 9999 0 0 0 980
2019/09/05 10:26:00 BASE 6.86 332 8.28 332 -1.9 100 -1.9 0 0 1003.8 NA 0.0000 9999 0 0 0 920
2019/09/05 10:27:00 BASE 6.29 331 8.28 332 -1.9 100 -1.9 0 0 1003.8 NA 0.0000 9999 0 0 0 1020
2019/09/05 10:28:00 BASE 6.30 332 8.28 332 -1.9 100 -1.9 0 0 1003.7 NA 0.0000 9999 0 0 0 980
2019/09/05 10:29:00 BASE 6.68 331 8.28 332 -1.9 100 -1.9 0 0 1003.7 NA 0.0000 9999 0 0 0 1020
2019/09/05 10:30:00 BASE 6.88 331 8.28 332 -1.9 100 -1.9 1 0 1003.7 NA 0.0000 9999 0 0 0 1120
2019/09/05 10:31:00 BASE 6.54 331 8.28 332 -1.9 100 -1.9 1 0 1003.7 NA 0.0000 9999 0 0 0 980
2019/09/05 10:32:00 BASE 5.83 330 8.28 332 -1.9 100 -1.9 1 0 1003.8 NA 0.0000 9999 230 0 0 0
2019/09/05 10:33:00 BASE 5.83 332 8.18 325 -1.9 100 -1.9 1 0 1003.8 NA 0.0000 9999 230 0 0 0
2019/09/05 10:34:00 BASE 6.05 326 8.18 325 -1.9 100 -1.9 1 0 1003.8 NA 0.0000 9999 260 0 0 0
2019/09/05 10:35:00 BASE 6.02 317 7.72 327 -1.9 100 -1.9 1 0 1003.8 NA 0.0000 9999 230 0 0 0
2019/09/05 10:36:00 BASE 6.07 322 7.72 327 -1.9 100 -1.9 1 0 1003.8 NA 0.0000 9999 230 0 0 0
2019/09/05 10:37:00 BASE 6.16 329 7.72 327 -1.9 100 -1.9 1 0 1003.8 NA 0.0000 9999 200 0 0 0
2019/09/05 10:38:00 BASE 6.14 330 7.72 327 -1.9 100 -1.9 1 0 1003.8 NA 0.0000 9999 0 0 0 1080
2019/09/05 10:39:00 BASE 6.06 329 7.72 327 -1.9 100 -1.9 1 0 1003.9 NA 0.0000 9999 0 0 0 980
2019/09/05 10:40:00 BASE 5.92 330 7.72 327 -1.9 100 -1.9 1 0 1003.8 NA 0.0000 9999 200 0 0 0
2019/09/05 10:41:00 BASE 5.99 331 7.05 322 -1.9 100 -1.9 1 0 1003.8 NA 0.0000 9999 230 0 0 0
2019/09/05 10:42:01 BASE 6.18 332 7.15 326 -1.9 100 -1.9 1 0 1003.8 NA 0.0000 9999 230 0 0 0
2019/09/05 10:43:00 BASE 6.08 330 7.15 326 -1.9 100 -1.9 1 0 1003.9 NA 0.0000 9999 260 0 0 0
2019/09/05 10:44:00 BASE 6.01 329 7.15 326 -1.9 100 -1.9 1 0 1003.9 NA 0.0000 9999 260 0 0 0
2019/09/05 10:45:00 BASE 5.86 332 7.15 326 -1.9 100 -1.9 1 0 1003.8 NA 0.0000 9999 260 0 0 0
2019/09/05 10:46:00 BASE 5.92 332 7.15 326 -1.9 100 -1.9 1 0 1003.8 NA 0.0000 9999 260 0 0 0
2019/09/05 10:47:00 BASE 5.84 331 7.15 326 -1.9 100 -1.9 1 0 1003.9 NA 0.0000 9999 260 0 0 0
2019/09/05 10:48:00 BASE 5.61 330 7.15 326 -1.9 100 -1.9 1 0 1003.9 NA 0.0000 9999 230 0 0 0
2019/09/05 10:49:00 BASE 5.71 335 7.15 326 -1.9 100 -1.9 1 0 1003.8 NA 0.0000 9999 0 0 0 950
2019/09/05 10:50:00 BASE 5.65 339 7.15 326 -1.9 100 -1.9 1 0 1003.8 NA 0.0000 9999 230 0 0 0
2019/09/05 10:51:00 BASE 6.07 338 7.15 328 -1.9 100 -1.9 1 0 1003.8 NA 0.0000 9999 230 0 0 0
2019/09/05 10:52:00 BASE 6.43 337 7.15 328 -1.9 100 -1.9 1 0 1003.9 NA 0.0000 9999 260 0 0 0
2019/09/05 10:53:00 BASE 6.63 334 7.92 340 -1.9 100 -1.9 1 0 1003.8 NA 0.0000 9999 230 0 0 0
2019/09/05 10:54:00 BASE 6.38 327 7.92 340 -1.9 100 -1.9 1 0 1003.9 NA 0.0000 9999 200 0 0 0
2019/09/05 10:55:00 BASE 5.97 325 7.92 340 -2.0 100 -2.0 1 0 1003.9 NA 0.0000 9999 230 0 0 0
2019/09/05 10:56:00 BASE 6.13 329 7.92 340 -1.9 100 -1.9 1 0 1003.9 NA 0.0000 9999 0 0 0 820
2019/09/05 10:57:00 BASE 6.28 332 7.92 340 -1.9 100 -1.9 1 0 1003.9 NA 0.0000 9999 200 0 0 0
2019/09/05 10:58:00 BASE 6.54 328 7.92 340 -1.9 100 -1.9 1 0 1003.9 NA 0.0000 9999 200 0 0 0
2019/09/05 10:59:00 BASE 6.70 326 7.92 340 -1.9 100 -1.9 1 0 1003.9 NA 0.0000 9999 0 0 0 850
2019/09/05 11:00:00 BASE 6.57 330 7.92 340 -1.9 100 -1.9 1 0 1003.9 NA 0.0000 9999 260 0 0 0
2019/09/05 11:01:00 BASE 5.58 333 7.92 340 -1.9 100 -1.9 1 0 1003.9 NA 0.0000 9999 0 0 0 820
2019/09/05 11:02:00 BASE 4.95 334 7.92 340 -1.9 100 -1.9 1 0 1003.9 NA 0.0000 9999 200 0 0 0
2019/09/05 11:03:00 BASE 5.48 336 7.82 321 -1.9 100 -1.9 1 0 1004.0 NA 0.0000 9999 200 0 0 0
2019/09/05 11:04:00 BASE 5.20 335 7.82 321 -2.0 100 -2.0 1 0 1003.9 NA 0.0000 9999 200 0 0 0
2019/09/05 11:05:00 BASE 4.84 334 7.82 321 -2.0 100 -2.0 1 0 1004.0 NA 0.0000 9999 230 0 0 0
2019/09/05 11:06:00 BASE 5.02 333 7.82 321 -2.0 100 -2.0 2 0 1004.0 NA 0.0000 9999 200 0 0 0
2019/09/05 11:07:00 BASE 4.87 329 7.82 321 -2.0 100 -2.0 2 0 1004.0 NA 0.0000 9999 260 0 0 0
2019/09/05 11:08:00 BASE 4.80 331 7.82 321 -2.0 100 -2.0 2 0 1004.1 NA 0.0000 9999 230 0 0 0
2019/09/05 11:09:00 BASE 4.70 336 7.82 321 -2.0 100 -2.0 2 0 1004.1 NA 0.0000 9999 260 0 0 0
2019/09/05 11:10:00 BASE 4.76 336 6.12 335 -2.0 100 -2.0 2 0 1004.1 NA 0.0000 9999 300 0 0 0
2019/09/05 11:11:00 BASE 4.78 329 6.12 335 -2.0 100 -2.0 3 0 1004.1 NA 0.0000 9999 300 0 0 0
2019/09/05 11:12:00 BASE 4.67 327 6.12 335 -2.0 100 -2.0 3 0 1004.1 NA 0.0000 9999 330 0 0 0
2019/09/05 11:13:00 BASE 4.65 335 5.76 316 -2.0 100 -2.0 3 0 1004.1 NA 0.0000 9999 360 0 0 0
2019/09/05 11:14:00 BASE 4.46 338 5.76 316 -2.0 100 -2.0 3 0 1004.0 NA 0.0000 9999 330 0 0 0
2019/09/05 11:15:00 BASE 4.51 339 5.76 316 -2.0 100 -2.0 4 0 1004.0 NA 0.0000 9999 300 0 0 0
2019/09/05 11:16:00 BASE 4.46 338 5.25 335 -2.0 100 -2.0 4 0 1004.0 NA 0.0000 9999 330 0 0 0
2019/09/05 11:17:00 BASE 4.32 337 5.25 335 -2.0 100 -2.0 4 0 1004.0 NA 0.0000 9999 260 0 0 0
2019/09/05 11:18:00 BASE 4.54 337 5.25 335 -2.0 100 -2.0 5 0 1003.9 NA 0.0000 9999 300 0 0 0
2019/09/05 11:19:00 BASE 4.67 341 5.25 335 -2.0 100 -2.0 5 0 1003.9 NA 0.0000 9999 300 0 0 0
2019/09/05 11:20:00 BASE 4.68 341 5.25 335 -2.0 100 -2.0 5 0 1003.9 NA 0.0000 9999 300 0 0 0
2019/09/05 11:21:00 BASE 4.66 340 5.25 341 -2.0 100 -2.0 6 0 1003.9 NA 0.0000 9999 230 0 0 0
2019/09/05 11:22:00 BASE 4.87 340 5.71 338 -2.0 100 -2.0 6 0 1003.9 NA 0.0000 9999 260 0 0 0
2019/09/05 11:23:00 BASE 5.28 339 5.71 338 -2.0 100 -2.0 6 0 1003.8 NA 0.0000 9999 260 0 0 0
2019/09/05 11:24:00 BASE 5.32 340 5.71 338 -2.0 100 -2.0 6 0 1003.8 NA 0.0000 9999 200 0 0 0
2019/09/05 11:25:00 BASE 5.37 336 5.81 334 -2.0 100 -2.0 6 0 1003.8 NA 0.0000 9999 200 0 0 0
2019/09/05 11:26:00 BASE 5.51 333 5.92 329 -2.0 100 -2.0 7 0 1003.9 NA 0.0000 9999 200 0 0 0
2019/09/05 11:27:00 BASE 5.81 332 6.89 318 -2.0 100 -2.0 8 0 1003.9 NA 0.0000 9999 230 0 0 0
2019/09/05 11:28:00 BASE 5.98 329 6.89 318 -2.0 100 -2.0 8 0 1003.9 NA 0.0000 9999 200 0 0 0
2019/09/05 11:29:00 BASE 5.90 328 6.89 318 -2.0 100 -2.0 9 0 1003.9 NA 0.0000 9999 200 0 0 0
2019/09/05 11:30:00 BASE 6.05 329 6.89 318 -2.0 100 -2.0 9 0 1003.9 NA 0.0000 9999 200 0 0 0
2019/09/05 11:31:00 BASE 6.01 332 6.89 318 -2.0 100 -2.0 9 0 1003.9 NA 0.0000 9999 200 0 0 0
2019/09/05 11:32:00 BASE 5.76 334 6.89 318 -2.0 100 -2.0 9 0 1003.9 NA 0.0000 9999 200 0 0 0
2019/09/05 11:33:00 BASE 5.83 330 6.89 318 -2.0 100 -2.0 9 0 1003.9 NA 0.0000 9999 200 0 0 0
2019/09/05 11:34:00 BASE 5.77 325 6.89 318 -2.0 100 -2.0 10 0 1003.9 NA 0.0000 9999 230 0 0 0
2019/09/05 11:35:00 BASE 5.74 329 6.89 318 -2.0 100 -2.0 10 0 1003.8 NA 0.0000 9999 300 0 0 0
2019/09/05 11:36:00 BASE 6.21 332 7.25 332 -2.0 100 -2.0 11 0 1003.8 NA 0.0000 9999 260 0 0 0
2019/09/05 11:37:00 BASE 6.38 333 7.25 332 -2.0 100 -2.0 11 0 1003.8 NA 0.0000 9999 200 0 0 0
2019/09/05 11:38:00 BASE 6.29 336 7.25 332 -2.0 100 -2.0 12 0 1003.8 NA 0.0000 9999 230 0 0 0
2019/09/05 11:39:00 BASE 6.07 338 7.25 332 -2.0 100 -2.0 12 0 1003.8 NA 0.0000 9999 230 0 0 0
2019/09/05 11:40:00 BASE 5.90 339 7.25 332 -2.0 100 -2.0 12 0 1003.9 NA 0.0000 9999 260 0 0 0
2019/09/05 11:41:00 BASE 5.82 336 7.25 332 -2.0 100 -2.0 13 0 1003.9 NA 0.0000 9999 0 0 0 790
2019/09/05 11:42:00 BASE 5.90 334 7.25 332 -2.0 100 -2.0 13 0 1003.9 NA 0.0000 9999 230 0 0 0
2019/09/05 11:43:00 BASE 5.84 333 7.25 332 -2.0 100 -2.0 13 0 1003.9 NA 0.0000 9999 200 0 0 0
2019/09/05 11:44:00 BASE 5.50 328 7.25 332 -2.0 100 -2.0 13 0 1003.9 NA 0.0000 9999 230 0 0 0
2019/09/05 11:45:00 BASE 5.72 325 7.25 332 -2.0 100 -2.0 14 0 1004.0 NA 0.0000 9999 200 0 0 0
2019/09/05 11:46:00 BASE 5.92 325 6.89 328 -2.0 100 -2.0 14 0 1004.0 NA 0.0000 9999 200 0 0 0
2019/09/05 11:47:00 BASE 5.91 328 6.89 328 -2.0 100 -2.0 15 0 1003.9 NA 0.0000 9999 200 0 0 0
2019/09/05 11:48:00 BASE 5.77 331 6.89 328 -2.0 100 -2.0 15 0 1003.9 NA 0.0000 9999 200 0 0 0
2019/09/05 11:49:00 BASE 5.72 336 6.89 328 -2.0 100 -2.0 15 0 1003.9 NA 0.0000 9999 160 0 0 0
2019/09/05 11:50:00 BASE 5.88 336 6.89 328 -2.0 100 -2.0 16 0 1003.8 NA 0.0000 9999 0 0 0 850
2019/09/05 11:51:00 BASE 6.04 336 6.89 328 -2.0 100 -2.0 16 0 1003.8 NA 0.0000 9999 0 0 0 1120
2019/09/05 11:52:00 BASE 6.39 338 7.25 344 -2.0 100 -2.0 16 0 1003.8 NA 0.0000 9999 0 0 0 1150
2019/09/05 11:53:00 BASE 6.35 340 7.25 344 -2.0 100 -2.0 16 0 1003.8 NA 0.0000 9999 0 0 0 1210
2019/09/05 11:54:00 BASE 6.21 344 7.25 344 -2.0 100 -2.0 16 0 1003.8 NA 0.0000 9999 0 0 0 1210
2019/09/05 11:55:00 BASE 6.34 347 7.25 344 -2.0 100 -2.0 17 0 1003.8 NA 0.0000 9999 0 0 0 1050
2019/09/05 11:56:00 BASE 6.40 346 7.25 344 -2.0 100 -2.0 17 0 1003.8 NA 0.0000 9999 0 0 0 1120
2019/09/05 11:57:00 BASE 6.46 342 7.25 344 -2.0 100 -2.0 17 0 1003.7 NA 0.0000 9999 0 0 0 1180
2019/09/05 11:58:00 BASE 6.44 340 7.25 344 -2.0 100 -2.0 17 0 1003.7 NA 0.0000 9999 0 0 0 1210
2019/09/05 11:59:00 BASE 6.69 340 7.51 344 -2.0 100 -2.0 17 0 1003.7 NA 0.0000 9999 0 0 0 1250
2019/09/05 12:00:00 BASE 7.01 343 7.51 337 -2.1 100 -2.1 17 0 1003.7 NA 0.0000 9999 0 0 0 1120
2019/09/05 12:01:00 BASE 6.90 342 7.51 337 -2.1 100 -2.1 18 0 1003.7 NA 0.0000 9999 0 0 0 1210
2019/09/05 12:02:00 BASE 6.79 338 7.51 337 -2.1 100 -2.1 18 0 1003.7 NA 0.0000 9999 0 0 0 1120
2019/09/05 12:03:00 BASE 6.89 335 7.51 337 -2.1 100 -2.1 19 0 1003.7 NA 0.0000 9999 0 0 0 750
2019/09/05 12:04:00 BASE 6.92 335 7.51 337 -2.0 100 -2.0 20 0 1003.7 NA 0.0000 9999 0 0 0 820
2019/09/05 12:05:00 BASE 6.91 337 7.72 339 -2.0 100 -2.0 21 0 1003.7 NA 0.0000 9000 0 0 0 1250
2019/09/05 12:06:08 BASE 6.85 336 7.72 339 -2.0 100 -2.0 21 0 1003.7 NA 0.0000 9000 0 0 0 1210
2019/09/05 12:07:00 BASE 6.52 332 7.72 339 -2.0 100 -2.0 22 0 1003.7 NA 0.0000 8000 0 0 0 1180
2019/09/05 12:08:00 BASE 6.26 330 7.72 339 -2.0 100 -2.0 22 0 1003.7 NA 0.0000 9999 0 0 0 750
2019/09/05 12:09:00 BASE 6.12 330 7.72 339 -2.1 100 -2.1 23 0 1003.7 NA 0.0000 9999 0 0 0 1080
2019/09/05 12:10:00 BASE 6.06 331 7.72 339 -2.1 100 -2.1 24 0 1003.7 NA 0.0000 9999 0 0 0 790
2019/09/05 12:11:00 BASE 6.35 330 7.72 339 -2.1 100 -2.1 26 0 1003.6 NA 0.0000 9999 0 0 0 850
2019/09/05 12:12:00 BASE 6.79 320 7.82 310 -2.1 100 -2.1 27 0 1003.6 NA 0.0000 9999 0 0 0 1480
2019/09/05 12:13:00 BASE 6.64 316 7.82 310 -2.1 100 -2.1 28 0 1003.6 NA 0.0000 9999 0 0 0 1410
2019/09/05 12:14:00 BASE 6.36 319 7.82 310 -2.1 100 -2.1 27 0 1003.7 NA 0.0000 9999 0 0 0 750
2019/09/05 12:15:00 BASE 6.29 320 7.82 310 -2.1 100 -2.1 27 0 1003.7 NA 0.0000 9999 0 0 0 1120
2019/09/05 12:16:00 BASE 6.27 319 7.82 310 -2.1 100 -2.1 28 0 1003.7 NA 0.0000 9999 0 0 0 750
2019/09/05 12:17:00 BASE 6.09 317 7.82 310 -2.1 100 -2.1 28 0 1003.7 NA 0.0000 9999 0 0 0 720
2019/09/05 12:18:00 BASE 6.14 315 7.82 310 -2.1 100 -2.1 28 0 1003.7 NA 0.0000 9999 0 0 0 720
2019/09/05 12:19:00 BASE 6.60 312 7.82 310 -2.1 100 -2.1 28 0 1003.7 NA 0.0000 9999 0 0 0 690
2019/09/05 12:20:00 BASE 6.52 310 7.82 310 -2.1 100 -2.1 28 0 1003.6 NA 0.0000 9000 0 0 0 690
2019/09/05 12:21:00 BASE 6.69 315 7.92 318 -2.1 100 -2.1 29 0 1003.6 NA 0.0000 9000 0 0 0 690
2019/09/05 12:22:00 BASE 6.84 315 7.92 318 -2.1 100 -2.1 29 0 1003.7 NA 0.0000 7000 0 0 0 720
2019/09/05 12:23:00 BASE 6.53 310 7.92 318 -2.1 100 -2.1 29 0 1003.8 NA 0.0000 9000 0 0 0 750
2019/09/05 12:24:00 BASE 6.53 310 7.92 318 -2.1 100 -2.1 28 0 1003.8 NA 0.0000 9999 0 0 0 720
2019/09/05 12:25:00 BASE 6.28 314 7.92 318 -2.1 100 -2.1 28 0 1003.7 NA 0.0000 9999 0 0 0 750
2019/09/05 12:26:00 BASE 5.65 317 7.92 318 -2.1 100 -2.1 29 0 1003.7 NA 0.0000 9999 0 0 0 750
2019/09/05 12:27:00 BASE 5.49 319 7.92 318 -2.1 100 -2.1 29 0 1003.7 NA 0.0000 BR 9000 0 0 0 720
2019/09/05 12:28:00 BASE 5.93 314 7.92 318 -2.1 100 -2.1 29 0 1003.8 NA 0.0000 BR 7000 0 0 0 820
2019/09/05 12:29:00 BASE 5.79 309 7.92 318 -2.1 100 -2.1 28 0 1003.8 NA 0.0000 BR 5000 0 0 0 720
2019/09/05 12:30:00 BASE 5.10 308 7.92 318 -2.1 100 -2.1 29 0 1004.0 NA 0.0000 BR 5000 0 0 0 620
2019/09/05 12:31:00 BASE 5.40 310 7.20 304 -2.1 100 -2.1 29 0 1004.0 NA 0.0000 BR 4400 0 0 0 660
2019/09/05 12:32:00 BASE 6.19 317 7.20 304 -2.2 100 -2.2 29 0 1004.0 NA 0.0000 BR 4700 0 0 0 750
2019/09/05 12:33:00 BASE 6.46 316 7.20 304 -2.2 100 -2.2 30 0 1003.9 NA 0.0000 BR 5000 0 0 0 720
2019/09/05 12:34:00 BASE 6.71 312 7.51 309 -2.2 100 -2.2 31 0 1004.0 NA 0.0000 BR 5000 0 0 0 660
2019/09/05 12:35:00 BASE 6.77 308 7.51 309 -2.2 100 -2.2 32 0 1004.0 NA 0.0000 BR 4700 0 0 0 690
2019/09/05 12:36:00 BASE 6.27 308 7.51 309 -2.2 100 -2.2 33 0 1004.0 NA 0.0000 BR 4800 0 0 0 720
2019/09/05 12:37:00 BASE 5.94 313 7.51 309 -2.2 100 -2.2 34 0 1004.0 NA 0.0000 BR 5000 0 0 0 750
2019/09/05 12:38:00 BASE 5.67 314 7.51 309 -2.2 100 -2.2 36 0 1004.0 NA 0.0000 BR 6000 0 0 0 920
2019/09/05 12:39:00 BASE 5.16 318 7.51 309 -2.2 100 -2.2 38 0 1004.0 NA 0.0000 BR 7000 0 0 0 790
2019/09/05 12:40:00 BASE 5.06 327 7.51 309 -2.2 100 -2.2 39 0 1004.0 NA 0.0000 BR 5000 0 0 0 660
2019/09/05 12:41:00 BASE 5.10 331 7.51 309 -2.2 100 -2.2 39 0 1004.0 NA 0.0000 BR 3800 0 0 0 660
2019/09/05 12:42:00 BASE 5.07 326 7.51 309 -2.2 100 -2.2 40 0 1004.1 NA 0.0000 BR 4000 0 0 0 720
2019/09/05 12:43:00 BASE 5.12 317 7.51 309 -2.2 100 -2.2 41 0 1004.1 NA 0.0000 BR 4800 0 0 0 820
2019/09/05 12:44:00 BASE 5.40 313 7.10 306 -2.2 100 -2.2 42 0 1004.0 NA 0.0000 BR 9999 160 0 0 0
2019/09/05 12:45:00 BASE 6.15 314 7.10 318 -2.2 100 -2.2 44 0 1004.0 NA 0.0000 BR 9999 200 0 0 0
2019/09/05 12:46:00 BASE 6.24 318 7.10 318 -2.2 100 -2.2 46 0 1004.0 NA 0.0000 BR 9999 0 0 0 820
2019/09/05 12:47:00 BASE 5.86 326 7.10 318 -2.2 100 -2.2 49 0 1003.9 NA 0.0000 BR 9999 0 0 0 750
2019/09/05 12:48:00 BASE 5.81 331 7.10 318 -2.2 100 -2.2 53 0 1003.9 NA 0.0000 BR 9999 200 0 0 0
2019/09/05 12:49:00 BASE 5.94 328 7.10 318 -2.2 100 -2.2 56 0 1003.9 NA 0.0000 BR 9999 200 0 0 0
2019/09/05 12:50:00 BASE 6.43 327 7.20 331 -2.2 100 -2.2 57 0 1003.8 NA 0.0000 BR 9999 230 0 0 0
2019/09/05 12:51:00 BASE 6.58 329 7.25 328 -2.2 100 -2.2 57 0 1003.9 NA 0.0000 BR 9999 0 0 0 790
2019/09/05 12:52:00 BASE 6.60 332 7.31 333 -2.2 100 -2.2 56 0 1003.9 NA 0.0000 9999 0 0 0 750
2019/09/05 12:53:00 BASE 6.93 334 7.97 329 -2.2 100 -2.2 56 0 1003.8 NA 0.0000 9999 0 0 0 790
2019/09/05 12:54:00 BASE 7.51 328 8.75 322 -2.2 100 -2.2 56 0 1003.8 NA 0.0000 9999 0 0 0 790
2019/09/05 12:55:00 BASE 7.41 324 8.75 322 -2.2 100 -2.2 57 0 1003.8 NA 0.0000 9999 0 0 0 850
2019/09/05 12:56:00 BASE 7.15 325 8.75 322 -2.2 100 -2.2 56 0 1003.8 NA 0.0000 9999 0 0 0 790
2019/09/05 12:57:00 BASE 7.27 325 8.75 322 -2.2 100 -2.2 55 0 1003.8 NA 0.0000 9999 0 0 0 820
2019/09/05 12:58:00 BASE 6.96 323 8.75 322 -2.2 100 -2.2 54 0 1003.9 NA 0.0000 9999 0 0 0 790
2019/09/05 12:59:00 BASE 6.88 321 8.75 322 -2.2 100 -2.2 54 0 1003.9 NA 0.0000 9999 200 0 0 0
2019/09/05 13:00:00 BASE 6.78 320 8.75 322 -2.2 100 -2.2 53 0 1003.9 NA 0.0000 9999 0 0 0 750
2019/09/05 13:01:00 BASE 6.59 320 8.75 322 -2.2 100 -2.2 53 0 1003.9 NA 0.0000 9999 0 0 0 790
2019/09/05 13:02:00 BASE 6.78 318 8.75 322 -2.2 100 -2.2 53 0 1003.9 NA 0.0000 9999 0 0 0 820
2019/09/05 13:03:00 BASE 7.09 316 8.75 322 -2.2 100 -2.2 54 0 1003.9 NA 0.0000 9999 200 0 0 0
2019/09/05 13:04:00 BASE 7.07 314 8.39 309 -2.2 100 -2.2 56 0 1003.9 NA 0.0000 9999 200 0 0 0
2019/09/05 13:05:00 BASE 7.26 312 8.75 304 -2.2 100 -2.2 57 0 1003.8 NA 0.0000 9999 230 0 0 0
2019/09/05 13:06:00 BASE 7.36 317 8.75 304 -2.2 100 -2.2 58 0 1003.8 NA 0.0000 9999 230 0 0 0
2019/09/05 13:07:00 BASE 7.33 326 8.75 304 -2.2 100 -2.2 59 0 1003.8 NA 0.0000 9999 0 0 0 750
2019/09/05 13:08:00 BASE 7.44 324 8.75 304 -2.2 100 -2.2 61 0 1003.9 NA 0.0000 9999 0 0 0 790
2019/09/05 13:09:00 BASE 7.37 316 8.75 304 -2.2 100 -2.2 64 0 1003.9 NA 0.0000 9999 200 0 0 0
2019/09/05 13:10:00 BASE 7.47 315 8.95 312 -2.2 100 -2.2 62 0 1003.9 NA 0.0000 9999 230 0 0 0
2019/09/05 13:11:00 BASE 7.77 313 8.95 312 -2.2 100 -2.2 57 0 1003.9 NA 0.0000 9999 230 0 0 0
2019/09/05 13:12:00 BASE 7.64 314 8.95 312 -2.2 100 -2.2 56 0 1003.9 NA 0.0000 9999 200 0 0 0
2019/09/05 13:13:00 BASE 7.29 317 8.95 312 -2.2 100 -2.2 58 0 1003.9 NA 0.0000 9999 230 0 0 0
2019/09/05 13:14:00 BASE 7.41 316 8.95 312 -2.2 100 -2.2 61 0 1003.9 NA 0.0000 9999 200 0 0 0
2019/09/05 13:15:00 BASE 6.98 318 8.95 312 -2.2 100 -2.2 62 0 1003.9 NA 0.0000 9999 260 0 0 0
2019/09/05 13:16:00 BASE 6.94 324 8.95 312 -2.2 100 -2.2 63 0 1003.9 NA 0.0000 9999 230 0 0 0
2019/09/05 13:17:00 BASE 7.61 323 8.95 312 -2.2 100 -2.2 64 0 1003.9 NA 0.0000 9999 200 0 0 0
2019/09/05 13:18:00 BASE 7.33 320 8.95 312 -2.2 100 -2.2 64 0 1003.9 NA 0.0000 9999 200 0 0 0
2019/09/05 13:19:00 BASE 6.65 319 8.95 312 -2.2 100 -2.2 61 0 1004.0 NA 0.0000 9999 200 0 0 0
2019/09/05 13:20:00 BASE 6.95 316 8.69 309 -2.2 100 -2.2 61 0 1003.9 NA 0.0000 9999 200 0 0 0
2019/09/05 13:21:00 BASE 7.28 313 8.69 309 -2.2 100 -2.2 60 0 1004.0 NA 0.0000 9999 230 0 0 0
2019/09/05 13:22:00 BASE 6.72 309 8.69 309 -2.2 100 -2.2 62 0 1004.0 NA 0.0000 9999 230 0 0 0
2019/09/05 13:23:00 BASE 6.52 313 8.69 309 -2.2 100 -2.2 65 0 1004.0 NA 0.0000 9999 300 0 0 0
2019/09/05 13:24:00 BASE 6.79 324 8.69 309 -2.2 100 -2.2 65 0 1004.0 NA 0.0000 9999 200 0 0 0
2019/09/05 13:25:00 BASE 6.99 325 8.69 309 -2.2 100 -2.2 68 0 1004.0 NA 0.0000 9999 0 0 0 790
2019/09/05 13:26:00 BASE 7.11 321 8.69 309 -2.2 100 -2.2 72 0 1004.0 NA 0.0000 9999 230 0 0 0
2019/09/05 13:27:00 BASE 6.47 323 8.69 309 -2.2 100 -2.2 74 0 1004.0 NA 0.0000 9999 200 0 0 0
2019/09/05 13:28:00 BASE 6.15 328 8.69 309 -2.2 100 -2.2 74 0 1003.9 NA 0.0000 9999 260 0 0 0
2019/09/05 13:29:00 BASE 6.17 333 8.69 309 -2.2 100 -2.2 76 0 1004.0 NA 0.0000 9999 0 0 0 790
2019/09/05 13:30:00 BASE 6.11 335 8.33 323 -2.2 100 -2.2 79 0 1004.0 NA 0.0000 9999 0 0 0 750
2019/09/05 13:31:00 BASE 7.22 322 9.11 305 -2.2 100 -2.2 80 0 1004.0 NA 0.0000 9999 0 0 0 790
2019/09/05 13:32:00 BASE 7.42 313 9.11 305 -2.2 100 -2.2 86 0 1004.0 NA 0.0000 9999 0 0 0 820
2019/09/05 13:33:00 BASE 6.96 316 9.11 305 -2.2 100 -2.2 87 0 1004.0 NA 0.0000 9999 200 0 0 0
2019/09/05 13:34:00 BASE 6.91 317 9.11 305 -2.2 100 -2.2 86 0 1004.0 NA 0.0000 9999 230 0 0 0
2019/09/05 13:35:00 BASE 6.26 323 9.11 305 -2.2 100 -2.2 86 0 1004.1 NA 0.0000 9999 200 0 0 0
2019/09/05 13:36:00 BASE 5.67 327 9.11 305 -2.2 100 -2.2 81 0 1004.1 NA 0.0000 9999 200 0 0 0
2019/09/05 13:37:00 BASE 5.59 320 9.11 305 -2.2 100 -2.2 86 0 1004.1 NA 0.0000 9999 0 0 0 790
2019/09/05 13:38:00 BASE 5.86 314 9.11 305 -2.2 100 -2.2 95 0 1004.1 NA 0.0000 9999 260 0 0 0
2019/09/05 13:39:00 BASE 5.86 316 9.11 305 -2.2 100 -2.2 99 0 1004.1 NA 0.0000 9999 230 0 0 0
2019/09/05 13:40:00 BASE 5.94 322 9.11 305 -2.2 100 -2.2 106 0 1004.1 NA 0.0000 9999 200 0 0 0
2019/09/05 13:41:00 BASE 6.33 322 8.28 315 -2.2 100 -2.2 115 0 1004.1 NA 0.0000 9999 0 0 0 790
2019/09/05 13:42:00 BASE 6.52 319 8.28 315 -2.2 100 -2.2 121 0 1004.1 NA 0.0000 9999 200 0 0 0
2019/09/05 13:43:00 BASE 6.67 314 7.61 320 -2.2 100 -2.2 127 0 1004.2 NA 0.0000 9999 0 0 0 790
2019/09/05 13:44:00 BASE 6.59 313 7.36 306 -2.2 100 -2.2 129 0 1004.1 NA 0.0000 9999 0 0 0 750
2019/09/05 13:45:00 BASE 6.09 318 7.36 306 -2.2 100 -2.2 123 0 1004.1 NA 0.0000 9000 160 0 0 0
2019/09/05 13:46:00 BASE 6.01 321 7.36 306 -2.2 100 -2.2 118 0 1004.1 NA 0.0000 9999 0 0 0 750
2019/09/05 13:47:00 BASE 6.65 320 7.97 312 -2.2 100 -2.2 113 0 1004.1 NA 0.0000 9999 0 0 0 750
2019/09/05 13:48:00 BASE 7.38 316 8.08 319 -2.2 100 -2.2 112 0 1004.1 NA 0.0000 9999 230 0 0 0
2019/09/05 13:49:00 BASE 7.63 313 8.08 310 -2.2 100 -2.2 115 0 1004.1 NA 0.0000 9999 230 0 0 0
2019/09/05 13:50:00 BASE 7.27 310 8.08 310 -2.2 100 -2.2 120 0 1004.1 NA 0.0000 9999 200 0 0 0
2019/09/05 13:51:00 BASE 6.39 310 8.08 310 -2.2 100 -2.2 123 0 1004.1 NA 0.0000 9999 230 0 0 0
2019/09/05 13:52:00 BASE 6.38 308 8.08 310 -2.2 100 -2.2 122 0 1004.1 NA 0.0000 9999 200 0 0 0
2019/09/05 13:53:00 BASE 6.50 304 8.08 310 -2.2 100 -2.2 117 0 1004.1 NA 0.0000 9999 200 0 0 0
2019/09/05 13:54:00 BASE 6.08 308 8.08 310 -2.2 100 -2.2 116 0 1004.1 NA 0.0000 9999 260 0 0 0
2019/09/05 13:55:00 BASE 6.04 309 8.08 310 -2.2 100 -2.2 129 0 1004.1 NA 0.0000 9999 230 0 0 0
2019/09/05 13:56:00 BASE 5.93 308 8.08 310 -2.2 100 -2.2 137 0 1004.1 NA 0.0000 9999 260 22970 0 0
2019/09/05 13:57:00 BASE 5.93 309 8.08 310 -2.2 100 -2.2 130 0 1004.1 NA 0.0000 9999 260 0 0 0
2019/09/05 13:58:00 BASE 6.04 309 8.08 310 -2.2 100 -2.2 123 0 1004.1 NA 0.0000 9999 260 0 0 0
2019/09/05 13:59:00 BASE 5.94 309 7.97 310 -2.2 100 -2.2 118 0 1004.1 NA 0.0000 9999 160 0 0 0
2019/09/05 14:00:00 BASE 5.71 311 7.82 304 -2.2 100 -2.2 113 0 1004.1 NA 0.0000 9999 230 0 0 0
2019/09/05 14:01:00 BASE 5.85 303 7.82 304 -2.2 100 -2.2 112 0 1004.1 NA 0.0000 9999 230 0 0 0
2019/09/05 14:02:00 BASE 5.71 293 7.10 302 -2.2 100 -2.2 113 0 1004.2 NA 0.0000 9999 0 0 0 850
2019/09/05 14:03:00 BASE 5.53 293 7.10 302 -2.2 100 -2.2 105 0 1004.2 NA 0.0000 9999 200 0 0 0
2019/09/05 14:04:00 BASE 5.37 297 7.10 302 -2.2 100 -2.2 107 0 1004.2 NA 0.0000 9999 260 0 0 0
2019/09/05 14:05:00 BASE 5.49 310 7.10 302 -2.2 100 -2.2 112 0 1004.1 NA 0.0000 9999 260 0 0 0
2019/09/05 14:06:00 BASE 5.85 319 7.10 302 -2.2 100 -2.2 111 0 1004.1 NA 0.0000 9999 200 22150 0 0
2019/09/05 14:07:00 BASE 6.23 309 7.41 302 -2.2 100 -2.2 109 0 1004.2 NA 0.0000 9999 200 0 0 0
2019/09/05 14:08:00 BASE 6.56 301 7.41 302 -2.2 100 -2.2 107 0 1004.2 NA 0.0000 9999 260 0 0 0
2019/09/05 14:09:00 BASE 6.66 295 7.97 290 -2.2 100 -2.2 107 0 1004.2 NA 0.0000 9999 230 0 0 0
2019/09/05 14:10:00 BASE 6.50 291 7.97 290 -2.2 100 -2.2 104 0 1004.2 NA 0.0000 9999 230 0 0 0
2019/09/05 14:11:00 BASE 5.86 304 7.97 290 -2.2 100 -2.2 105 0 1004.2 NA 0.0000 9999 230 0 0 0
2019/09/05 14:12:00 BASE 5.52 314 7.97 290 -2.2 100 -2.2 108 0 1004.1 NA 0.0000 9999 230 0 0 0
2019/09/05 14:13:00 BASE 5.58 315 7.97 290 -2.2 100 -2.2 105 0 1004.1 NA 0.0000 9999 260 0 0 0
2019/09/05 14:14:00 BASE 5.57 322 7.97 290 -2.2 100 -2.2 107 0 1004.1 NA 0.0000 9999 200 0 0 0
2019/09/05 14:15:00 BASE 5.45 328 7.97 290 -2.2 100 -2.2 106 0 1004.2 NA 0.0000 9999 200 0 0 0
2019/09/05 14:16:00 BASE 5.15 333 7.97 290 -2.2 100 -2.2 103 0 1004.2 NA 0.0000 9999 160 0 0 0
2019/09/05 14:17:00 BASE 5.00 335 7.97 290 -2.2 100 -2.2 102 0 1004.1 NA 0.0000 9999 200 0 0 0
2019/09/05 14:18:00 BASE 5.23 329 7.97 290 -2.2 100 -2.2 102 0 1004.2 NA 0.0000 9999 160 0 0 0
2019/09/05 14:19:00 BASE 5.22 327 6.84 290 -2.2 100 -2.2 103 0 1004.2 NA 0.0000 9999 0 0 0 750
2019/09/05 14:20:00 BASE 5.54 327 6.58 326 -2.2 100 -2.2 103 0 1004.1 NA 0.0000 9999 0 0 0 720
2019/09/05 14:21:00 BASE 6.14 325 6.64 326 -2.2 100 -2.2 105 0 1004.1 NA 0.0000 9999 0 0 0 750
2019/09/05 14:22:00 BASE 6.15 323 6.64 326 -2.2 100 -2.2 110 0 1004.1 NA 0.0000 9999 0 0 0 750
2019/09/05 14:23:00 BASE 6.06 328 6.74 336 -2.3 100 -2.3 108 0 1004.1 NA 0.0000 9999 230 0 0 0
2019/09/05 14:24:00 BASE 5.94 326 6.74 336 -2.3 100 -2.3 101 0 1004.2 NA 0.0000 9999 230 0 0 0
2019/09/05 14:25:00 BASE 5.88 310 7.25 300 -2.3 100 -2.3 94 0 1004.3 NA 0.0000 9999 200 0 0 0
2019/09/05 14:26:00 BASE 6.44 302 7.61 293 -2.3 100 -2.3 90 0 1004.2 NA 0.0000 9999 260 0 0 0
2019/09/05 14:27:00 BASE 6.24 306 7.61 293 -2.3 100 -2.3 89 0 1004.3 NA 0.0000 9999 200 0 0 0
2019/09/05 14:28:00 BASE 5.08 310 7.61 293 -2.3 100 -2.3 90 0 1004.3 NA 0.0000 9999 260 0 0 0
2019/09/05 14:29:00 BASE 4.55 309 7.61 293 -2.3 100 -2.3 97 0 1004.2 NA 0.0000 9999 300 0 0 0
2019/09/05 14:30:00 BASE 4.36 302 7.61 293 -2.3 100 -2.3 100 0 1004.2 NA 0.0000 9999 260 0 0 0
2019/09/05 14:31:00 BASE 4.07 296 7.61 293 -2.3 100 -2.3 99 0 1004.2 NA 0.0000 9999 200 0 0 0
2019/09/05 14:32:00 BASE 4.30 301 7.61 293 -2.3 100 -2.3 103 0 1004.2 NA 0.0000 9999 0 0 0 750
2019/09/05 14:33:00 BASE 4.87 303 7.61 293 -2.3 100 -2.3 108 0 1004.2 NA 0.0000 9999 0 0 0 750
2019/09/05 14:34:00 BASE 5.17 297 7.61 293 -2.3 100 -2.3 112 0 1004.2 NA 0.0000 9999 230 0 0 0
2019/09/05 14:35:00 BASE 4.77 284 7.61 293 -2.3 100 -2.3 113 0 1004.2 NA 0.0000 9999 160 0 0 0
2019/09/05 14:36:00 BASE 4.59 281 6.22 290 -2.3 100 -2.3 119 0 1004.2 NA 0.0000 9999 200 0 0 0
2019/09/05 14:37:00 BASE 4.64 291 6.22 290 -2.3 100 -2.3 124 0 1004.3 NA 0.0000 9999 0 0 0 720
2019/09/05 14:38:00 BASE 4.07 297 6.22 290 -2.3 100 -2.3 124 0 1004.3 NA 0.0000 9999 0 0 0 790
2019/09/05 14:39:00 BASE 3.73 299 6.22 290 -2.2 100 -2.2 126 0 1004.3 NA 0.0000 9999 200 0 0 0
2019/09/05 14:40:00 BASE 3.17 301 6.22 290 -2.2 100 -2.2 129 0 1004.2 NA 0.0000 9999 0 0 0 750
2019/09/05 14:41:00 BASE 2.88 311 6.22 290 -2.2 100 -2.2 136 0 1004.2 NA 0.0000 8000 230 0 0 0
2019/09/05 14:42:00 BASE 3.67 320 6.22 290 -2.2 100 -2.2 141 0 1004.2 NA 0.0000 9999 200 0 0 0
2019/09/05 14:43:00 BASE 3.94 323 6.12 288 -2.2 100 -2.2 142 0 1004.1 NA 0.0000 9999 0 0 0 690
2019/09/05 14:44:00 BASE 3.64 327 5.71 282 -2.2 100 -2.2 147 0 1004.1 NA 0.0000 8000 0 0 0 690
2019/09/05 14:45:00 BASE 3.63 326 5.71 282 -2.2 100 -2.2 151 0 1004.1 NA 0.0000 BR 6000 0 0 0 690
2019/09/05 14:46:00 BASE 3.98 316 4.73 311 -2.2 100 -2.2 144 0 1004.1 NA 0.0000 BR 8000 200 0 0 0
2019/09/05 14:47:00 BASE 4.28 313 4.99 312 -2.2 100 -2.2 138 0 1004.1 NA 0.0000 BR 9999 200 0 0 0
2019/09/05 14:48:00 BASE 4.81 312 5.61 313 -2.2 100 -2.2 134 0 1004.1 NA 0.0000 BR 9999 200 0 0 0
2019/09/05 14:49:00 BASE 5.70 311 6.38 314 -2.2 100 -2.2 132 0 1004.1 NA 0.0000 BR 9999 260 0 0 0
2019/09/05 14:50:00 BASE 5.75 315 6.38 314 -2.2 100 -2.2 130 0 1004.1 NA 0.0000 BR 9999 0 0 0 750
2019/09/05 14:51:00 BASE 5.15 316 6.38 314 -2.3 100 -2.3 133 0 1004.1 NA 0.0000 BR 9999 0 0 0 750
2019/09/05 14:52:00 BASE 5.11 317 6.38 314 -2.3 100 -2.3 130 0 1004.1 NA 0.0000 BR 9999 200 0 0 0
2019/09/05 14:53:00 BASE 5.64 318 6.38 314 -2.3 100 -2.3 130 0 1004.1 NA 0.0000 9999 0 0 0 720
2019/09/05 14:54:00 BASE 6.01 317 6.53 312 -2.3 100 -2.3 130 0 1004.0 NA 0.0000 9999 200 0 0 0
2019/09/05 14:55:00 BASE 6.14 315 6.74 312 -2.3 100 -2.3 131 0 1004.0 NA 0.0000 9999 160 0 0 0
2019/09/05 14:56:00 BASE 6.32 318 7.10 320 -2.3 100 -2.3 125 0 1003.9 NA 0.0000 9999 230 0 0 0
2019/09/05 14:57:00 BASE 6.62 322 7.10 320 -2.3 100 -2.3 128 0 1003.8 NA 0.0000 9999 300 0 0 0
2019/09/05 14:58:00 BASE 7.15 323 8.08 319 -2.3 100 -2.3 135 0 1003.8 NA 0.0000 9999 230 0 0 0
2019/09/05 14:59:00 BASE 7.45 326 8.23 328 -2.3 100 -2.3 143 0 1003.8 NA 0.0000 9999 260 0 0 0
2019/09/05 15:00:00 BASE 7.44 328 8.23 328 -2.3 100 -2.3 146 0 1003.8 NA 0.0000 9999 230 0 0 0
2019/09/05 15:01:06 BASE 7.18 325 8.23 328 -2.3 100 -2.3 142 0 1003.8 NA 0.0000 9999 230 0 0 0
2019/09/05 15:02:00 BASE 6.99 325 8.23 328 -2.3 100 -2.3 129 0 1003.8 NA 0.0000 9999 300 0 0 0
2019/09/05 15:03:00 BASE 7.23 330 8.23 328 -2.3 100 -2.3 135 0 1003.8 NA 0.0000 9999 0 0 0 720
2019/09/05 15:04:00 BASE 6.97 330 8.23 328 -2.3 100 -2.3 146 0 1003.8 NA 0.0000 9999 0 0 0 720
2019/09/05 15:05:00 BASE 6.75 324 8.23 328 -2.3 100 -2.3 155 0 1003.8 NA 0.0000 9999 200 0 0 0
2019/09/05 15:06:00 BASE 7.27 317 8.64 310 -2.3 100 -2.3 158 0 1003.8 NA 0.0000 9999 260 0 0 0
2019/09/05 15:07:00 BASE 7.80 313 8.64 310 -2.3 100 -2.3 157 0 1003.9 NA 0.0000 9999 0 0 0 660
2019/09/05 15:08:00 BASE 7.74 311 8.64 310 -2.3 100 -2.3 154 0 1003.9 NA 0.0000 9999 0 0 0 690
2019/09/05 15:09:00 BASE 7.49 309 8.64 310 -2.3 100 -2.3 148 0 1003.8 NA 0.0000 9999 160 0 0 0
2019/09/05 15:10:00 BASE 7.13 308 8.64 310 -2.3 100 -2.3 148 0 1003.8 NA 0.0000 9999 200 0 0 0
2019/09/05 15:11:00 BASE 6.79 309 8.64 310 -2.3 100 -2.3 150 0 1003.8 NA 0.0000 9999 200 0 0 0
2019/09/05 15:12:00 BASE 6.67 314 8.64 310 -2.3 100 -2.3 154 0 1003.8 NA 0.0000 9999 200 0 0 0
2019/09/05 15:13:00 BASE 6.67 319 8.64 310 -2.3 100 -2.3 154 0 1003.8 NA 0.0000 9999 200 0 0 0
2019/09/05 15:14:00 BASE 6.56 321 8.64 310 -2.3 100 -2.3 157 0 1003.9 NA 0.0000 9999 260 0 0 0
2019/09/05 15:15:00 BASE 6.65 318 8.64 310 -2.3 100 -2.3 154 0 1003.9 NA 0.0000 9999 0 0 0 750
2019/09/05 15:16:00 BASE 6.80 315 8.54 311 -2.3 100 -2.3 151 0 1003.9 NA 0.0000 9999 0 0 0 690
2019/09/05 15:17:00 BASE 6.56 316 8.28 310 -2.3 100 -2.3 151 0 1004.0 NA 0.0000 9999 230 0 0 0
2019/09/05 15:18:00 BASE 6.71 319 7.92 311 -2.3 100 -2.3 143 0 1004.0 NA 0.0000 9999 230 0 0 0
2019/09/05 15:19:00 BASE 6.87 319 7.46 316 -2.3 100 -2.3 144 0 1004.0 NA 0.0000 9999 0 0 0 720
2019/09/05 15:20:00 BASE 6.72 318 7.46 316 -2.3 100 -2.3 149 0 1004.0 NA 0.0000 9999 0 0 0 720
2019/09/05 15:21:00 BASE 6.56 315 7.46 316 -2.3 100 -2.3 145 0 1004.0 NA 0.0000 9999 0 0 0 660
2019/09/05 15:22:00 BASE 6.04 311 7.46 316 -2.3 100 -2.3 144 0 1004.0 NA 0.0000 9999 0 0 0 660
2019/09/05 15:23:00 BASE 5.83 305 7.46 316 -2.3 100 -2.3 140 0 1004.0 NA 0.0000 9999 0 0 0 750
2019/09/05 15:24:00 BASE 5.96 301 7.46 316 -2.3 100 -2.3 135 0 1004.1 NA 0.0000 9000 0 0 0 850
2019/09/05 15:25:00 BASE 5.81 302 7.46 316 -2.3 100 -2.3 131 0 1004.1 NA 0.0000 9999 200 23750 0 0
2019/09/05 15:26:00 BASE 6.18 306 7.46 316 -2.3 100 -2.3 129 0 1004.1 NA 0.0000 9999 0 0 0 660
2019/09/05 15:27:00 BASE 6.61 310 7.46 316 -2.3 100 -2.3 134 0 1004.1 NA 0.0000 6000 0 0 0 690
2019/09/05 15:28:00 BASE 6.16 311 7.20 316 -2.3 100 -2.3 137 0 1004.1 NA 0.0000 BR 6000 0 0 0 720
2019/09/05 15:29:00 BASE 5.61 313 7.05 311 -2.4 100 -2.4 134 0 1004.1 NA 0.0000 BR 7000 0 0 0 890
2019/09/05 15:30:00 BASE 6.14 313 7.41 318 -2.4 100 -2.4 128 0 1004.1 NA 0.0000 BR 8000 0 0 0 920
2019/09/05 15:31:00 BASE 6.81 311 7.41 318 -2.4 100 -2.4 127 0 1004.1 NA 0.0000 BR 8000 0 0 0 790
2019/09/05 15:32:00 BASE 6.80 308 7.41 318 -2.4 100 -2.4 128 0 1004.1 NA 0.0000 BR 8000 0 0 0 750
2019/09/05 15:33:00 BASE 6.75 303 7.41 318 -2.4 100 -2.4 128 0 1004.1 NA 0.0000 BR 9999 0 0 0 720
2019/09/05 15:34:00 BASE 6.66 301 7.41 318 -2.4 100 -2.4 130 0 1004.1 NA 0.0000 BR 8000 0 0 0 720
2019/09/05 15:35:00 BASE 6.39 303 7.41 318 -2.4 100 -2.4 132 0 1004.1 NA 0.0000 BR 9000 0 0 0 820
2019/09/05 15:36:00 BASE 6.07 300 7.41 318 -2.4 100 -2.4 134 0 1004.2 NA 0.0000 BR 9999 200 0 0 0
2019/09/05 15:37:00 BASE 6.22 298 7.41 318 -2.4 100 -2.4 132 0 1004.1 NA 0.0000 BR 9999 230 0 0 0
2019/09/05 15:38:00 BASE 6.56 298 7.41 318 -2.4 100 -2.4 131 0 1004.1 NA 0.0000 BR 9999 0 0 0 920
2019/09/05 15:39:00 BASE 6.53 299 7.41 318 -2.4 100 -2.4 132 0 1004.1 NA 0.0000 BR 9999 0 0 0 790
2019/09/05 15:40:00 BASE 6.38 305 7.36 301 -2.4 100 -2.4 138 0 1004.1 NA 0.0000 9999 200 0 0 0
2019/09/05 15:41:00 BASE 6.54 311 7.36 310 -2.4 100 -2.4 145 0 1004.1 NA 0.0000 9999 0 0 0 950
2019/09/05 15:42:00 BASE 6.70 312 7.36 310 -2.4 100 -2.4 149 0 1004.1 NA 0.0000 9999 230 19100 0 0
2019/09/05 15:43:00 BASE 6.39 313 7.36 310 -2.4 100 -2.4 151 0 1004.1 NA 0.0000 9999 0 0 0 1150
2019/09/05 15:44:00 BASE 6.31 313 7.36 310 -2.5 100 -2.5 150 0 1004.1 NA 0.0000 8000 200 0 0 0
2019/09/05 15:45:00 BASE 6.29 313 7.36 310 -2.5 100 -2.5 152 0 1004.1 NA 0.0000 9999 200 0 0 0
2019/09/05 15:46:00 BASE 6.05 312 7.36 310 -2.5 100 -2.5 155 0 1004.1 NA 0.0000 9999 200 0 0 0
2019/09/05 15:47:00 BASE 5.84 311 7.36 310 -2.5 100 -2.5 155 0 1004.1 NA 0.0000 9999 230 0 0 0
2019/09/05 15:48:00 BASE 5.64 308 7.36 310 -2.5 100 -2.5 160 0 1004.1 NA 0.0000 9999 200 0 0 0
2019/09/05 15:49:00 BASE 5.45 304 7.36 310 -2.5 100 -2.5 161 0 1004.1 NA 0.0000 9999 230 0 0 0
2019/09/05 15:50:00 BASE 5.19 307 7.36 310 -2.5 100 -2.5 155 0 1004.1 NA 0.0000 9999 300 0 0 0
2019/09/05 15:51:00 BASE 5.33 315 6.94 314 -2.5 100 -2.5 155 0 1004.1 NA 0.0000 9999 260 0 0 0
2019/09/05 15:52:00 BASE 5.84 317 6.94 314 -2.5 100 -2.5 158 0 1004.1 NA 0.0000 9999 0 0 0 820
2019/09/05 15:53:00 BASE 6.02 320 6.94 314 -2.5 100 -2.5 162 0 1004.1 NA 0.0000 9999 0 0 0 750
2019/09/05 15:54:00 BASE 6.25 321 6.89 311 -2.5 100 -2.5 165 0 1004.1 NA 0.0000 9000 0 0 0 820
2019/09/05 15:55:00 BASE 6.27 319 6.89 311 -2.5 100 -2.5 163 0 1004.1 NA 0.0000 5000 0 0 0 690
2019/09/05 15:56:00 BASE 5.97 318 6.84 320 -2.5 100 -2.5 166 0 1004.1 NA 0.0000 BR 4100 0 0 0 660
2019/09/05 15:57:00 BASE 5.65 317 6.84 320 -2.5 100 -2.5 168 0 1004.1 NA 0.0000 BR 4100 0 0 0 720
2019/09/05 15:58:00 BASE 5.41 315 6.84 320 -2.5 100 -2.5 162 0 1004.1 NA 0.0000 BR 4300 21420 0 0 0
2019/09/05 15:59:00 BASE 5.48 314 6.84 320 -2.5 100 -2.5 163 0 1004.1 NA 0.0000 BR 3900 0 0 0 690
2019/09/05 16:00:00 BASE 5.41 314 6.84 320 -2.5 100 -2.5 166 0 1004.1 NA 0.0000 BR 4300 0 0 0 720
2019/09/05 16:01:00 BASE 5.19 313 6.84 320 -2.5 100 -2.5 167 0 1004.1 NA 0.0000 BR 7000 0 0 0 820
2019/09/05 16:02:00 BASE 5.19 311 6.69 319 -2.5 100 -2.5 165 0 1004.1 NA 0.0000 BR 9000 0 0 0 850
2019/09/05 16:03:00 BASE 5.04 312 6.69 319 -2.5 100 -2.5 165 0 1004.2 NA 0.0000 BR 9000 0 0 0 720
2019/09/05 16:04:00 BASE 4.71 311 6.48 317 -2.5 100 -2.5 164 0 1004.2 NA 0.0000 BR 9000 0 0 0 690
2019/09/05 16:05:00 BASE 4.68 308 6.17 311 -2.5 100 -2.5 164 0 1004.2 NA 0.0000 BR 9000 0 0 0 690
2019/09/05 16:06:00 BASE 4.84 305 5.92 309 -2.5 100 -2.5 164 0 1004.1 NA 0.0000 BR 7000 0 0 0 720
2019/09/05 16:07:00 BASE 5.11 304 5.92 309 -2.5 100 -2.5 167 0 1004.1 NA 0.0000 BR 7000 0 0 0 720
2019/09/05 16:08:00 BASE 5.39 304 5.92 309 -2.4 100 -2.4 171 0 1004.1 NA 0.0000 BR 8000 0 0 0 750
2019/09/05 16:09:00 BASE 5.44 306 5.92 309 -2.4 100 -2.4 174 0 1004.1 NA 0.0000 BR 8000 0 0 0 720
2019/09/05 16:10:00 BASE 5.70 309 6.48 314 -2.4 100 -2.4 175 0 1004.2 NA 0.0000 BR 9999 0 0 0 750
2019/09/05 16:11:00 BASE 5.89 313 6.48 315 -2.4 100 -2.4 176 0 1004.2 NA 0.0000 BR 8000 0 0 0 750
2019/09/05 16:12:00 BASE 5.68 316 6.48 315 -2.4 100 -2.4 177 0 1004.2 NA 0.0000 BR 7000 0 0 0 750
2019/09/05 16:13:00 BASE 5.56 315 6.48 315 -2.4 100 -2.4 181 0 1004.2 NA 0.0000 BR 7000 0 0 0 750
2019/09/05 16:14:00 BASE 5.36 311 6.48 315 -2.4 100 -2.4 194 0 1004.2 NA 0.0000 BR 9000 0 0 0 750
2019/09/05 16:15:00 BASE 5.12 311 6.48 315 -2.4 100 -2.4 209 0 1004.2 NA 0.0000 BR 9999 0 0 0 790
2019/09/05 16:16:00 BASE 4.90 309 6.48 315 -2.4 100 -2.4 213 0 1004.2 NA 0.0000 BR 9999 0 0 0 750
2019/09/05 16:17:00 BASE 4.90 304 6.48 315 -2.3 100 -2.3 201 0 1004.2 NA 0.0000 BR 9000 0 0 0 750
2019/09/05 16:18:00 BASE 4.91 303 6.48 315 -2.3 100 -2.3 185 0 1004.2 NA 0.0000 BR 8000 0 0 0 820
2019/09/05 16:19:00 BASE 5.23 308 6.48 315 -2.3 100 -2.3 173 0 1004.2 NA 0.0000 BR 6000 0 0 0 850
2019/09/05 16:20:00 BASE 5.72 309 6.48 315 -2.3 100 -2.3 167 0 1004.2 NA 0.0000 BR 7000 0 0 0 790
2019/09/05 16:21:00 BASE 5.64 305 6.12 314 -2.2 100 -2.2 163 0 1004.2 NA 0.0000 BR 7000 0 0 0 790
2019/09/05 16:22:00 BASE 5.56 302 6.12 314 -2.2 100 -2.2 158 0 1004.2 NA 0.0000 BR 6000 0 0 0 820
2019/09/05 16:23:00 BASE 6.24 305 7.51 301 -2.2 100 -2.2 153 0 1004.2 NA 0.0000 BR 6000 0 0 0 820
2019/09/05 16:24:00 BASE 6.80 305 7.51 301 -2.2 100 -2.2 150 0 1004.1 NA 0.0000 BR 7000 0 0 0 750
2019/09/05 16:25:00 BASE 6.26 310 7.51 301 -2.2 100 -2.2 148 0 1004.1 NA 0.0000 BR 7000 0 0 0 790
2019/09/05 16:26:00 BASE 5.90 317 7.51 301 -2.3 100 -2.3 146 0 1004.1 NA 0.0000 BR 7000 0 0 0 790
2019/09/05 16:27:00 BASE 5.90 316 7.51 301 -2.3 100 -2.3 147 0 1004.1 NA 0.0000 BR 7000 0 0 0 750
2019/09/05 16:28:00 BASE 5.76 314 7.51 301 -2.3 100 -2.3 148 0 1004.1 NA 0.0000 BR 6000 0 0 0 720
2019/09/05 16:29:00 BASE 5.81 312 7.51 301 -2.3 100 -2.3 148 0 1004.1 NA 0.0000 BR 5000 0 0 0 750
2019/09/05 16:30:00 BASE 5.86 311 7.51 301 -2.3 100 -2.3 147 0 1004.1 NA 0.0000 BR 6000 0 0 0 790
2019/09/05 16:31:00 BASE 5.63 310 7.51 301 -2.3 100 -2.3 147 0 1004.1 NA 0.0000 BR 5000 0 0 0 720
2019/09/05 16:32:00 BASE 5.75 305 7.51 301 -2.3 100 -2.3 146 0 1004.2 NA 0.0000 BR 5000 0 0 0 720
2019/09/05 16:33:00 BASE 5.98 298 7.41 301 -2.3 100 -2.3 144 0 1004.2 NA 0.0000 BR 5000 0 0 0 660
2019/09/05 16:34:00 BASE 6.09 294 7.00 291 -2.3 100 -2.3 142 0 1004.1 NA 0.0000 BR 4500 0 0 0 690
2019/09/05 16:35:00 BASE 6.44 291 7.00 291 -2.3 100 -2.3 140 0 1004.1 NA 0.0000 BR 4600 0 0 0 790
2019/09/05 16:36:00 BASE 6.33 292 7.00 291 -2.4 100 -2.4 140 0 1004.1 NA 0.0000 BR 4000 0 0 0 690
2019/09/05 16:37:00 BASE 6.00 295 7.00 291 -2.4 100 -2.4 141 0 1004.1 NA 0.0000 BR 3200 0 0 0 660
2019/09/05 16:38:00 BASE 5.76 301 7.00 291 -2.4 100 -2.4 141 0 1004.1 NA 0.0000 BR 3500 0 0 0 690
2019/09/05 16:39:00 BASE 5.89 305 7.00 291 -2.5 100 -2.5 143 0 1004.1 NA 0.0000 BR 3500 0 0 0 660
2019/09/05 16:40:00 BASE 5.93 304 7.00 291 -2.5 100 -2.5 146 0 1004.1 NA 0.0000 BR 4100 0 0 0 720
2019/09/05 16:41:00 BASE 5.49 302 7.00 291 -2.5 100 -2.5 150 0 1004.1 NA 0.0000 BR 3800 0 0 0 790
2019/09/05 16:42:00 BASE 5.04 302 7.00 291 -2.5 100 -2.5 150 0 1004.1 NA 0.0000 BR 4000 0 0 0 850
2019/09/05 16:43:00 BASE 4.76 305 7.00 291 -2.5 100 -2.5 152 0 1004.1 NA 0.0000 BR 3800 0 0 0 820
2019/09/05 16:44:00 BASE 4.81 307 6.89 291 -2.4 100 -2.4 154 0 1004.1 NA 0.0000 BR 3800 0 0 0 850
2019/09/05 16:45:00 BASE 4.85 310 6.58 294 -2.4 100 -2.4 157 0 1004.1 NA 0.0000 BR 3600 0 0 0 850
2019/09/05 16:46:00 BASE 4.91 312 6.43 306 -2.4 100 -2.4 160 0 1004.1 NA 0.0000 BR 4000 0 0 0 690
2019/09/05 16:47:00 BASE 5.04 311 6.43 306 -2.4 100 -2.4 159 0 1004.1 NA 0.0000 BR 4300 0 0 0 720
2019/09/05 16:48:00 BASE 4.89 310 6.43 306 -2.5 100 -2.5 161 0 1004.1 NA 0.0000 BR 4300 0 0 0 950
2019/09/05 16:49:00 BASE 4.95 310 6.33 298 -2.4 100 -2.4 164 0 1004.1 NA 0.0000 BR 4400 0 0 0 890
2019/09/05 16:50:00 BASE 5.10 309 5.76 305 -2.4 100 -2.4 162 0 1004.1 NA 0.0000 BR 4400 0 0 0 920
2019/09/05 16:51:00 BASE 4.86 308 5.76 305 -2.4 100 -2.4 164 0 1004.0 NA 0.0000 BR 4700 0 0 0 920
2019/09/05 16:52:00 BASE 4.82 310 5.76 305 -2.4 100 -2.4 166 0 1004.0 NA 0.0000 BR 4900 22440 0 0 0
2019/09/05 16:53:00 BASE 4.98 315 5.76 305 -2.4 100 -2.4 170 0 1004.0 NA 0.0000 BR 5000 0 0 0 890
2019/09/05 16:54:00 BASE 5.18 315 5.76 305 -2.4 100 -2.4 172 0 1004.0 NA 0.0000 BR 7000 0 0 0 920
2019/09/05 16:55:00 BASE 5.19 315 5.76 305 -2.4 100 -2.4 170 0 1004.0 NA 0.0000 BR 7000 0 0 0 890
2019/09/05 16:56:00 BASE 5.24 318 6.33 319 -2.4 100 -2.4 167 0 1004.0 NA 0.0000 BR 6000 0 0 0 820
2019/09/05 16:57:00 BASE 5.69 319 6.33 319 -2.4 100 -2.4 164 0 1004.0 NA 0.0000 BR 6000 0 0 0 790
2019/09/05 16:58:00 BASE 5.94 317 6.33 319 -2.3 100 -2.3 157 0 1003.9 NA 0.0000 BR 8000 0 0 0 820
2019/09/05 16:59:00 BASE 5.83 313 6.33 319 -2.3 100 -2.3 153 0 1003.9 NA 0.0000 BR 7000 0 0 0 790
2019/09/05 17:00:00 BASE 5.88 311 6.33 319 -2.3 100 -2.3 151 0 1003.9 NA 0.0000 BR 7000 0 0 0 750
2019/09/05 17:01:00 BASE 5.77 308 6.33 319 -2.3 100 -2.3 146 0 1003.9 NA 0.0000 BR 7000 0 0 0 820
2019/09/05 17:02:00 BASE 5.14 310 6.33 319 -2.3 100 -2.3 141 0 1003.9 NA 0.0000 BR 6000 0 0 0 820
2019/09/05 17:03:00 BASE 4.75 311 6.33 319 -2.3 100 -2.3 141 0 1003.9 NA 0.0000 BR 5000 0 0 0 820
2019/09/05 17:04:00 BASE 4.88 308 6.33 319 -2.3 100 -2.3 143 0 1003.9 NA 0.0000 BR 5000 0 0 0 820
2019/09/05 17:05:00 BASE 5.02 309 6.33 319 -2.3 100 -2.3 150 0 1003.9 NA 0.0000 BR 6000 0 0 0 820
2019/09/05 17:06:00 BASE 5.33 306 6.28 316 -2.3 100 -2.3 163 0 1003.9 NA 0.0000 BR 6000 19620 0 0 0
2019/09/05 17:07:00 BASE 5.30 306 6.22 302 -2.3 100 -2.3 168 0 1003.9 NA 0.0000 BR 6000 0 0 0 820
2019/09/05 17:08:00 BASE 4.88 312 6.22 302 -2.3 100 -2.3 160 0 1003.9 NA 0.0000 BR 6000 0 0 0 720
2019/09/05 17:09:00 BASE 4.92 315 6.22 302 -2.3 100 -2.3 151 0 1003.9 NA 0.0000 BR 6000 0 0 0 690
2019/09/05 17:10:00 BASE 5.39 309 6.17 305 -2.3 100 -2.3 146 0 1003.9 NA 0.0000 BR 5000 0 0 0 720
2019/09/05 17:11:00 BASE 5.36 305 6.17 305 -2.3 100 -2.3 138 0 1003.9 NA 0.0000 BR 5000 0 0 0 690
2019/09/05 17:12:00 BASE 5.12 300 6.17 305 -2.3 100 -2.3 134 0 1003.9 NA 0.0000 BR 4400 0 0 0 660
2019/09/05 17:13:00 BASE 4.98 293 6.17 305 -2.2 100 -2.2 134 0 1003.9 NA 0.0000 BR 3300 0 0 0 690
2019/09/05 17:14:00 BASE 4.92 294 6.17 305 -2.2 100 -2.2 139 0 1004.0 NA 0.0000 BR 2000 0 0 0 690
2019/09/05 17:15:00 BASE 5.05 298 6.17 305 -2.2 100 -2.2 140 0 1003.9 NA 0.0000 UP BR 2300 0 0 0 690
2019/09/05 17:16:00 BASE 5.21 300 6.17 305 -2.2 100 -2.2 136 0 1003.9 NA 0.0000 UP BR 2400 0 0 0 690
2019/09/05 17:17:00 BASE 6.15 298 7.41 295 -2.2 100 -2.2 132 0 1003.9 NA 0.0000 UP BR 3100 21360 22510 0 0
2019/09/05 17:18:00 BASE 6.91 292 7.41 295 -2.2 100 -2.2 131 0 1003.9 NA 0.0000 UP BR 3900 0 0 0 690
2019/09/05 17:19:00 BASE 6.65 288 7.41 295 -2.2 100 -2.2 129 0 1003.9 NA 0.0000 UP BR 3300 0 0 0 620
2019/09/05 17:20:00 BASE 6.55 289 7.41 295 -2.2 100 -2.2 122 0 1003.9 NA 0.0000 UP BR 3000 0 0 0 620
2019/09/05 17:21:00 BASE 6.50 290 7.41 295 -2.3 100 -2.3 117 0 1003.9 NA 0.0000 UP BR 2400 0 0 0 660
2019/09/05 17:22:00 BASE 6.30 289 7.41 295 -2.3 100 -2.3 119 0 1003.9 NA 0.0000 UP BR 2100 0 0 0 720
2019/09/05 17:23:00 BASE 6.34 291 7.41 295 -2.4 100 -2.4 121 0 1003.9 NA 0.0000 UP BR 1800 0 0 0 750
2019/09/05 17:24:00 BASE 6.08 297 7.41 295 -2.4 100 -2.4 122 0 1003.9 NA 0.0000 UP BR 1700 0 0 0 790
2019/09/05 17:25:00 BASE 6.13 306 7.41 295 -2.4 100 -2.4 126 0 1003.8 NA 0.0000 UP BR 2600 0 0 0 750
2019/09/05 17:26:00 BASE 6.90 309 8.13 311 -2.3 100 -2.3 130 0 1003.8 NA 0.0000 UP BR 3700 0 0 0 750
2019/09/05 17:27:00 BASE 7.79 304 8.75 296 -2.3 100 -2.3 131 0 1003.8 NA 0.0000 UP BR 3900 0 0 0 820
2019/09/05 17:28:00 BASE 7.83 299 8.75 296 -2.3 100 -2.3 125 0 1003.8 NA 0.0000 UP BR 3800 0 0 0 820
2019/09/05 17:29:00 BASE 7.14 299 8.75 296 -2.3 100 -2.3 122 0 1003.9 NA 0.0000 UP BR 3800 0 0 0 920
2019/09/05 17:30:00 BASE 7.02 302 8.75 296 -2.4 100 -2.4 126 0 1003.9 NA 0.0000 UP BR 3800 0 0 0 920
2019/09/05 17:31:00 BASE 7.11 303 8.75 296 -2.4 100 -2.4 133 0 1003.9 NA 0.0000 UP BR 3800 0 0 0 890
2019/09/05 17:32:00 BASE 6.72 300 8.75 296 -2.4 100 -2.4 140 0 1003.9 NA 0.0000 UP BR 3800 0 0 0 750
2019/09/05 17:33:00 BASE 6.34 298 8.75 296 -2.4 100 -2.4 148 0 1003.9 NA 0.0000 UP BR 4200 0 0 0 750
2019/09/05 17:34:00 BASE 5.79 298 8.75 296 -2.4 100 -2.4 153 0 1003.9 NA 0.0000 UP BR 8000 0 0 0 820
2019/09/05 17:35:00 BASE 5.26 296 8.75 296 -2.4 100 -2.4 151 0 1004.0 NA 0.0000 UP BR 8000 0 0 0 750
2019/09/05 17:36:00 BASE 5.27 289 8.75 296 -2.4 100 -2.4 149 0 1004.0 NA 0.0000 UP BR 9000 0 0 0 720
2019/09/05 17:37:00 BASE 5.61 286 8.03 299 -2.3 100 -2.3 148 0 1004.0 NA 0.0000 UP BR 7000 0 0 0 720
2019/09/05 17:38:00 BASE 5.65 288 7.61 302 -2.3 100 -2.3 148 0 1004.0 NA 0.0000 BR 7000 0 0 0 720
2019/09/05 17:39:00 BASE 5.39 283 7.61 302 -2.3 100 -2.3 145 0 1004.0 NA 0.0000 UP BR 7000 0 0 0 890
2019/09/05 17:40:00 BASE 5.61 277 7.25 301 -2.3 100 -2.3 137 0 1004.0 NA 0.0000 UP BR 7000 0 0 0 920
2019/09/05 17:41:00 BASE 6.13 275 7.51 279 -2.3 100 -2.3 132 0 1004.0 NA 0.0000 BR 7000 0 0 0 790
2019/09/05 17:42:00 BASE 5.92 277 7.51 279 -2.3 100 -2.3 126 0 1004.0 NA 0.0000 BR 7000 0 0 0 690
2019/09/05 17:43:00 BASE 5.14 275 7.51 279 -2.3 100 -2.3 119 0 1004.0 NA 0.0000 UP BR 5000 0 0 0 750
2019/09/05 17:44:00 BASE 4.99 278 7.51 279 -2.3 100 -2.3 114 0 1004.0 NA 0.0000 UP BR 2400 0 0 0 690
2019/09/05 17:45:00 BASE 5.86 285 8.03 299 -2.3 100 -2.3 109 0 1004.0 NA 0.0000 UP BR 2000 0 0 0 890
2019/09/05 17:46:00 BASE 6.89 295 8.18 307 -2.3 100 -2.3 110 0 1004.0 NA 0.0000 UP BR 2400 0 0 0 980
2019/09/05 17:47:00 BASE 7.50 301 8.75 303 -2.3 100 -2.3 113 0 1004.0 NA 0.0000 UP BR 2400 0 0 0 920
2019/09/05 17:48:00 BASE 7.48 297 8.75 303 -2.3 100 -2.3 112 0 1004.0 NA 0.0000 UP BR 4300 0 0 0 850
2019/09/05 17:49:00 BASE 6.97 293 8.75 303 -2.4 100 -2.4 108 0 1004.1 NA 0.0000 UP BR 4400 0 0 0 790
2019/09/05 17:50:00 BASE 6.51 291 8.75 303 -2.4 100 -2.4 108 0 1004.1 NA 0.0000 UP BR 4100 0 0 0 660
2019/09/05 17:51:00 BASE 6.81 289 8.75 303 -2.4 100 -2.4 112 0 1004.1 NA 0.0000 UP BR 4100 0 0 0 720
2019/09/05 17:52:00 BASE 7.19 287 8.75 303 -2.4 100 -2.4 115 0 1004.1 NA 0.0000 UP BR 4200 0 0 0 720
2019/09/05 17:53:00 BASE 6.55 285 8.75 303 -2.4 100 -2.4 115 0 1004.1 NA 0.0000 UP BR 5000 0 0 0 750
2019/09/05 17:54:00 BASE 6.52 283 8.75 303 -2.4 100 -2.4 114 0 1004.1 NA 0.0000 UP BR 6000 0 0 0 690
2019/09/05 17:55:00 BASE 6.24 285 8.75 303 -2.4 100 -2.4 114 0 1004.1 NA 0.0000 UP BR 6000 0 0 0 690
2019/09/05 17:56:00 BASE 5.93 287 8.75 303 -2.4 100 -2.4 116 0 1004.1 NA 0.0000 UP BR 6000 0 0 0 750
2019/09/05 17:57:00 BASE 6.03 283 8.44 289 -2.4 100 -2.4 120 0 1004.1 NA 0.0000 UP BR 4600 0 0 0 890
2019/09/05 17:58:00 BASE 5.48 279 8.44 289 -2.4 100 -2.4 125 0 1004.1 NA 0.0000 UP BR 4000 0 0 0 790
2019/09/05 17:59:00 BASE 5.18 275 8.44 289 -2.4 100 -2.4 129 0 1004.1 NA 0.0000 BR 4300 0 0 0 750
2019/09/05 18:00:00 BASE 5.06 274 8.44 289 -2.3 100 -2.3 129 0 1004.1 NA 0.0000 BR 3800 0 0 0 790
2019/09/05 18:01:00 BASE 4.73 278 7.61 279 -2.3 100 -2.3 132 0 1004.1 NA 0.0000 BR 4000 0 0 0 790
2019/09/05 18:02:00 BASE 4.63 279 7.61 279 -2.3 100 -2.3 136 0 1004.1 NA 0.0000 UP BR 3800 0 0 0 750
2019/09/05 18:03:00 BASE 4.81 280 7.61 279 -2.3 100 -2.3 142 0 1004.1 NA 0.0000 UP BR 4300 0 0 0 750
2019/09/05 18:04:00 BASE 5.04 281 7.20 281 -2.3 100 -2.3 143 0 1004.1 NA 0.0000 UP BR 4700 0 0 0 790
2019/09/05 18:05:00 BASE 4.63 278 7.20 281 -2.3 100 -2.3 141 0 1004.1 NA 0.0000 UP BR 4600 0 0 0 820
2019/09/05 18:06:00 BASE 4.37 273 6.89 252 -2.3 100 -2.3 138 0 1004.2 NA 0.0000 UP BR 3600 0 0 0 920
2019/09/05 18:07:00 BASE 4.87 266 6.89 252 -2.3 100 -2.3 136 0 1004.2 NA 0.0000 UP BR 3800 0 0 0 820
2019/09/05 18:08:00 BASE 5.32 261 6.89 252 -2.3 100 -2.3 129 0 1004.2 NA 0.0000 UP BR 5000 0 0 0 920
2019/09/05 18:09:00 BASE 5.42 264 6.17 261 -2.3 100 -2.3 123 0 1004.2 NA 0.0000 UP BR 7000 0 0 0 980
2019/09/05 18:10:00 BASE 5.27 264 6.64 260 -2.3 100 -2.3 118 0 1004.2 NA 0.0000 UP BR 7000 0 0 0 920
2019/09/05 18:11:00 BASE 5.65 259 6.64 254 -2.3 100 -2.3 113 0 1004.3 NA 0.0000 BR 8000 0 0 0 850
2019/09/05 18:12:00 BASE 5.93 256 6.64 254 -2.4 100 -2.4 110 0 1004.2 NA 0.0000 BR 6000 0 0 0 890
2019/09/05 18:13:00 BASE 5.42 259 6.64 254 -2.4 100 -2.4 107 0 1004.2 NA 0.0000 BR 3800 0 0 0 920
2019/09/05 18:14:00 BASE 4.93 263 6.64 254 -2.4 100 -2.4 105 0 1004.2 NA 0.0000 BR 4000 0 0 0 850
2019/09/05 18:15:00 BASE 5.69 259 6.84 250 -2.3 100 -2.3 103 0 1004.2 NA 0.0000 BR 4600 0 0 0 1020
2019/09/05 18:16:00 BASE 5.53 260 6.84 250 -2.3 100 -2.3 101 0 1004.2 NA 0.0000 BR 8000 300 0 0 0
2019/09/05 18:17:00 BASE 4.84 260 6.84 250 -2.3 100 -2.3 99 0 1004.2 NA 0.0000 BR 9999 0 0 0 1120
2019/09/05 18:18:00 BASE 5.38 258 6.84 250 -2.4 100 -2.4 96 0 1004.2 NA 0.0000 BR 8000 0 0 0 1050
2019/09/05 18:19:00 BASE 4.82 263 6.84 250 -2.4 100 -2.4 92 0 1004.1 NA 0.0000 BR 6000 0 0 0 980
2019/09/05 18:20:00 BASE 4.22 264 6.84 250 -2.4 100 -2.4 88 0 1004.1 NA 0.0000 BR 4000 0 0 0 920
2019/09/05 18:21:00 BASE 4.24 269 6.84 250 -2.4 100 -2.4 84 0 1004.1 NA 0.0000 BR 4600 0 0 0 750
2019/09/05 18:22:00 BASE 3.75 270 6.84 250 -2.4 100 -2.4 83 0 1004.1 NA 0.0000 BR 4100 0 0 0 820
2019/09/05 18:23:00 BASE 3.88 265 6.84 250 -2.4 100 -2.4 86 0 1004.1 NA 0.0000 BR 3600 0 0 0 720
2019/09/05 18:24:00 BASE 4.71 265 6.84 250 -2.4 100 -2.4 88 0 1004.1 NA 0.0000 BR 3900 0 0 0 1250
2019/09/05 18:25:00 BASE 4.78 267 6.33 255 -2.4 100 -2.4 87 0 1004.1 NA 0.0000 BR 6000 200 0 0 0
2019/09/05 18:26:00 BASE 4.55 274 6.33 255 -2.4 100 -2.4 89 0 1004.1 NA 0.0000 BR 6000 0 0 0 820
2019/09/05 18:27:00 BASE 4.54 277 6.33 255 -2.5 100 -2.5 90 0 1004.1 NA 0.0000 BR 4900 0 0 0 950
2019/09/05 18:28:00 BASE 4.03 274 5.92 270 -2.5 100 -2.5 91 0 1004.1 NA 0.0000 BR 4500 0 0 0 890
2019/09/05 18:29:00 BASE 3.65 276 5.92 270 -2.5 100 -2.5 90 0 1004.1 NA 0.0000 BR 4400 0 0 0 980
2019/09/05 18:30:00 BASE 3.60 277 5.92 270 -2.5 100 -2.5 90 0 1004.1 NA 0.0000 BR 4900 0 0 0 1020
2019/09/05 18:31:00 BASE 3.75 279 5.92 270 -2.5 100 -2.5 87 0 1004.1 NA 0.0000 BR 5000 0 0 0 1180
2019/09/05 18:32:00 BASE 3.86 282 5.92 270 -2.5 100 -2.5 83 0 1004.1 NA 0.0000 BR 4800 24280 0 0 0
2019/09/05 18:33:00 BASE 3.06 285 5.92 270 -2.4 100 -2.4 79 0 1004.2 NA 0.0000 BR 3800 0 0 0 1080
2019/09/05 18:34:00 BASE 2.51 286 5.61 274 -2.4 100 -2.4 75 0 1004.2 NA 0.0000 BR 3700 0 0 0 950
2019/09/05 18:35:00 BASE 2.77 289 5.61 274 -2.4 100 -2.4 71 0 1004.2 NA 0.0000 BR 3500 0 0 0 1020
2019/09/05 18:36:00 BASE 3.09 294 4.99 273 -2.4 100 -2.4 68 0 1004.2 NA 0.0000 BR 3400 0 0 0 1150
2019/09/05 18:37:00 BASE 3.63 295 4.73 282 -2.5 100 -2.5 66 0 1004.2 NA 0.0000 BR 2500 0 0 0 950
2019/09/05 18:38:00 BASE 4.10 297 4.73 282 -2.5 100 -2.5 64 0 1004.2 NA 0.0000 BR 2200 0 0 0 1150
2019/09/05 18:39:00 BASE 3.96 297 5.04 295 -2.5 100 -2.5 63 0 1004.2 NA 0.0000 UP BR 2200 0 0 0 1080
2019/09/05 18:40:00 BASE 3.95 293 5.04 295 -2.5 100 -2.5 62 0 1004.2 NA 0.0000 UP BR 2500 0 0 0 1080
2019/09/05 18:41:00 BASE 4.12 285 5.04 295 -2.5 100 -2.5 61 0 1004.3 NA 0.0000 UP BR 2500 0 0 0 1250
2019/09/05 18:42:00 BASE 4.20 287 5.30 286 -2.5 100 -2.5 61 0 1004.3 NA 0.0000 UP BR 2600 0 0 0 1180
2019/09/05 18:43:00 BASE 4.74 293 6.12 292 -2.4 100 -2.4 62 0 1004.2 NA 0.0000 UP BR 3200 0 0 0 1050
2019/09/05 18:44:00 BASE 5.38 294 6.12 294 -2.4 100 -2.4 63 0 1004.2 NA 0.0000 UP BR 3200 0 0 0 1050
2019/09/05 18:45:00 BASE 5.82 293 6.38 293 -2.4 100 -2.4 65 0 1004.2 NA 0.0000 UP BR 3900 0 0 0 1020
2019/09/05 18:46:00 BASE 5.35 287 6.38 293 -2.5 100 -2.5 67 0 1004.2 NA 0.0000 UP BR 4000 0 0 0 1180
2019/09/05 18:47:00 BASE 4.62 284 6.38 293 -2.5 100 -2.5 67 0 1004.2 NA 0.0000 UP BR 5000 0 0 0 1350
2019/09/05 18:48:00 BASE 4.53 288 6.38 293 -2.5 100 -2.5 67 0 1004.2 NA 0.0000 UP BR 5000 0 0 0 1410
2019/09/05 18:49:00 BASE 4.29 291 6.38 293 -2.5 100 -2.5 67 0 1004.3 NA 0.0000 UP BR 6000 0 0 0 1310
2019/09/05 18:50:00 BASE 4.30 286 6.38 293 -2.5 100 -2.5 66 0 1004.3 NA 0.0000 UP BR 4800 0 0 0 1150
2019/09/05 18:51:00 BASE 4.58 286 6.38 293 -2.5 100 -2.5 65 0 1004.3 NA 0.0000 UP BR 3800 0 0 0 1280
2019/09/05 18:52:00 BASE 4.70 291 6.38 293 -2.5 100 -2.5 63 0 1004.3 NA 0.0000 UP BR 3800 0 0 0 1050
2019/09/05 18:53:00 BASE 4.77 285 6.38 293 -2.4 100 -2.4 61 0 1004.3 NA 0.0000 UP BR 4000 0 0 0 1050
2019/09/05 18:54:00 BASE 4.61 278 6.38 293 -2.4 100 -2.4 59 0 1004.3 NA 0.0000 UP BR 5000 0 0 0 850
2019/09/05 18:55:00 BASE 4.22 280 5.50 277 -2.4 100 -2.4 59 0 1004.3 NA 0.0000 BR 5000 0 0 0 890
2019/09/05 18:56:00 BASE 3.88 288 5.50 277 -2.4 100 -2.4 59 0 1004.3 NA 0.0000 BR 5000 0 0 0 890
2019/09/05 18:57:00 BASE 3.77 290 5.50 277 -2.4 100 -2.4 59 0 1004.3 NA 0.0000 UP BR 4000 0 0 0 890
2019/09/05 18:58:00 BASE 3.65 292 5.50 277 -2.5 100 -2.5 59 0 1004.2 NA 0.0000 UP BR 3200 0 0 0 820
2019/09/05 18:59:00 BASE 3.72 296 5.50 277 -2.5 100 -2.5 57 0 1004.3 NA 0.0000 UP BR 2700 0 0 0 1120
2019/09/05 19:00:00 BASE 4.04 294 5.50 277 -2.5 100 -2.5 56 0 1004.3 NA 0.0000 UP BR 3300 0 0 0 1120
2019/09/05 19:01:00 BASE 4.17 290 5.50 277 -2.4 100 -2.4 56 0 1004.3 NA 0.0000 UP BR 3400 0 0 0 1210
2019/09/05 19:02:00 BASE 3.89 288 5.50 277 -2.4 100 -2.4 55 0 1004.3 NA 0.0000 UP BR 2500 0 0 0 1180
2019/09/05 19:03:00 BASE 4.03 291 5.35 272 -2.4 100 -2.4 54 0 1004.3 NA 0.0000 UP BR 1800 0 0 0 980
2019/09/05 19:04:00 BASE 4.36 297 5.14 301 -2.4 100 -2.4 53 0 1004.3 NA 0.0000 UP BR 2200 0 0 0 1020
2019/09/05 19:05:00 BASE 4.65 298 5.35 278 -2.4 100 -2.4 53 0 1004.2 NA 0.0000 UP BR 2100 0 0 0 980
2019/09/05 19:06:00 BASE 4.81 294 5.45 283 -2.5 100 -2.5 54 0 1004.2 NA 0.0000 UP BR 2200 0 0 0 1210
2019/09/05 19:07:00 BASE 4.61 293 5.66 290 -2.5 100 -2.5 53 0 1004.2 NA 0.0000 UP BR 1800 0 0 0 1280
2019/09/05 19:08:00 BASE 4.94 295 5.66 290 -2.5 100 -2.5 52 0 1004.1 NA 0.0000 UP BR 1900 0 0 0 1310
2019/09/05 19:09:00 BASE 5.37 299 5.81 300 -2.5 100 -2.5 52 0 1004.1 NA 0.0000 UP BR 2900 0 0 0 1120
2019/09/05 19:10:00 BASE 4.84 304 5.81 300 -2.5 100 -2.5 53 0 1004.2 NA 0.0000 UP BR 3600 0 0 0 950
2019/09/05 19:11:00 BASE 4.61 306 5.81 300 -2.5 100 -2.5 53 0 1004.1 NA 0.0000 UP BR 3500 0 0 0 1310
2019/09/05 19:12:00 BASE 5.07 300 5.81 288 -2.5 100 -2.5 52 0 1004.2 NA 0.0000 UP BR 3500 0 0 0 1310
2019/09/05 19:13:00 BASE 5.11 295 5.81 288 -2.5 100 -2.5 50 0 1004.2 NA 0.0000 UP BR 3500 0 0 0 1280
2019/09/05 19:14:00 BASE 5.18 295 5.81 290 -2.5 100 -2.5 49 0 1004.2 NA 0.0000 UP BR 3400 0 0 0 1210
2019/09/05 19:15:00 BASE 5.61 292 6.28 290 -2.5 100 -2.5 49 0 1004.1 NA 0.0000 UP BR 2400 0 0 0 1050
2019/09/05 19:16:00 BASE 5.66 292 6.28 290 -2.5 100 -2.5 50 0 1004.2 NA 0.0000 UP BR 1400 0 0 0 1050
2019/09/05 19:17:00 BASE 5.22 296 6.28 290 -2.5 100 -2.5 50 0 1004.2 NA 0.0000 UP BR 1600 0 0 0 1410
2019/09/05 19:18:00 BASE 5.28 298 6.28 290 -2.5 100 -2.5 51 0 1004.1 NA 0.0000 UP BR 2500 0 0 0 1280
2019/09/05 19:19:00 BASE 5.16 296 6.28 290 -2.5 100 -2.5 52 0 1004.1 NA 0.0000 UP BR 3600 0 0 0 1380
2019/09/05 19:20:00 BASE 4.90 295 6.28 290 -2.5 100 -2.5 51 0 1004.2 NA 0.0000 UP BR 3600 0 0 0 1670
2019/09/05 19:21:00 BASE 4.64 297 6.28 290 -2.5 100 -2.5 50 0 1004.1 NA 0.0000 UP BR 3600 200 0 0 0
2019/09/05 19:22:00 BASE 4.28 299 6.28 290 -2.5 100 -2.5 49 0 1004.1 NA 0.0000 UP BR 3600 0 0 0 1280
2019/09/05 19:23:00 BASE 4.47 295 6.28 290 -2.5 100 -2.5 49 0 1004.1 NA 0.0000 UP BR 3600 0 0 0 1410
2019/09/05 19:24:00 BASE 4.24 292 6.28 290 -2.5 100 -2.5 48 0 1004.1 NA 0.0000 UP BR 3600 0 0 0 1280
2019/09/05 19:25:00 BASE 4.01 291 5.76 301 -2.5 100 -2.5 47 0 1004.1 NA 0.0000 UP BR 3600 0 0 0 1150
2019/09/05 19:26:00 BASE 4.22 290 5.76 301 -2.5 100 -2.5 46 0 1004.1 NA 0.0000 UP BR 3700 0 0 0 980
2019/09/05 19:27:00 BASE 4.26 295 5.76 301 -2.5 100 -2.5 46 0 1004.1 NA 0.0000 UP BR 3600 0 0 0 920
2019/09/05 19:28:00 BASE 4.41 299 5.50 283 -2.5 100 -2.5 47 0 1004.1 NA 0.0000 UP BR 2300 0 0 0 890
2019/09/05 19:29:00 BASE 4.68 301 5.76 288 -2.5 100 -2.5 47 0 1004.1 NA 0.0000 UP BR 2000 0 0 0 980
2019/09/05 19:30:00 BASE 4.68 297 5.76 288 -2.5 100 -2.5 48 0 1004.1 NA 0.0000 UP BR 2900 0 0 0 890
2019/09/05 19:31:00 BASE 5.02 288 6.84 271 -2.5 100 -2.5 49 0 1004.1 NA 0.0000 UP BR 2900 0 0 0 1120
2019/09/05 19:32:00 BASE 5.37 280 6.84 271 -2.5 100 -2.5 49 0 1004.1 NA 0.0000 UP BR 2900 0 0 0 1510
2019/09/05 19:33:00 BASE 5.09 274 6.84 271 -2.5 100 -2.5 49 0 1004.1 NA 0.0000 UP BR 2900 0 0 0 1840
2019/09/05 19:34:00 BASE 4.46 275 6.84 271 -2.5 100 -2.5 48 0 1004.1 NA 0.0000 UP BR 2900 330 0 0 0
2019/09/05 19:35:00 BASE 3.76 281 6.84 271 -2.5 100 -2.5 46 0 1004.1 NA 0.0000 UP BR 2900 330 0 0 0
2019/09/05 19:36:00 BASE 3.37 281 6.84 271 -2.5 100 -2.5 44 0 1004.1 NA 0.0000 UP BR 2900 300 0 0 0
2019/09/05 19:37:00 BASE 3.72 280 6.84 271 -2.5 100 -2.5 41 0 1004.2 NA 0.0000 UP BR 2900 260 0 0 0
2019/09/05 19:38:00 BASE 4.02 284 6.84 271 -2.5 100 -2.5 40 0 1004.2 NA 0.0000 UP BR 2900 0 0 0 1180
2019/09/05 19:39:00 BASE 4.03 288 6.84 271 -2.5 100 -2.5 40 0 1004.2 NA 0.0000 BR 2900 0 0 0 1310
2019/09/05 19:40:00 BASE 4.04 287 6.84 271 -2.5 100 -2.5 40 0 1004.2 NA 0.0000 BR 2900 0 0 0 1640
2019/09/05 19:41:00 BASE 4.14 284 6.17 272 -2.5 100 -2.5 39 0 1004.2 NA 0.0000 BR 2900 0 0 0 1440
2019/09/05 19:42:00 BASE 3.99 283 5.61 274 -2.5 100 -2.5 39 0 1004.2 NA 0.0000 BR 2900 0 0 0 1310
2019/09/05 19:43:00 BASE 3.77 288 5.04 280 -2.5 100 -2.5 39 0 1004.2 NA 0.0000 BR 2900 0 0 0 1250
2019/09/05 19:44:00 BASE 4.04 295 5.04 280 -2.5 100 -2.5 38 0 1004.2 NA 0.0000 BR 2900 0 0 0 1310
2019/09/05 19:45:00 BASE 4.25 300 5.04 280 -2.5 100 -2.5 36 0 1004.2 NA 0.0000 BR 2900 0 0 0 1350
2019/09/05 19:46:00 BASE 4.92 296 6.53 283 -2.5 100 -2.5 34 0 1004.2 NA 0.0000 UP BR 2900 0 0 0 1210
2019/09/05 19:47:00 BASE 5.00 294 6.53 283 -2.5 100 -2.5 33 0 1004.2 NA 0.0000 UP BR 2900 0 0 0 1150
2019/09/05 19:48:00 BASE 4.80 295 6.53 283 -2.5 100 -2.5 32 0 1004.2 NA 0.0000 UP BR 2700 0 0 0 1210
2019/09/05 19:49:00 BASE 5.01 292 6.53 283 -2.5 100 -2.5 32 0 1004.2 NA 0.0000 UP BR 2000 0 0 0 1210
2019/09/05 19:50:00 BASE 5.22 292 6.53 283 -2.5 100 -2.5 31 0 1004.2 NA 0.0000 UP BR 1800 0 0 0 1150
2019/09/05 19:51:00 BASE 4.97 290 6.53 283 -2.5 100 -2.5 31 0 1004.2 NA 0.0000 UP BR 1500 0 0 0 980
2019/09/05 19:52:00 BASE 4.76 291 6.53 283 -2.5 100 -2.5 31 0 1004.2 NA 0.0000 UP BR 1100 0 0 0 1410
2019/09/05 19:53:00 BASE 4.98 291 6.53 283 -2.5 100 -2.5 31 0 1004.2 NA 0.0000 -SN BR 3100 300 0 0 0
2019/09/05 19:54:00 BASE 4.76 287 6.53 283 -2.5 100 -2.5 32 0 1004.2 NA 0.0000 -SN BR 3400 260 0 0 0
2019/09/05 19:55:00 BASE 4.36 277 6.53 283 -2.5 100 -2.5 32 0 1004.2 NA 0.0000 -SN BR 3300 260 0 0 0
2019/09/05 19:56:00 BASE 4.05 274 6.07 289 -2.5 100 -2.5 32 0 1004.2 NA 0.0000 -SN BR 3300 300 0 0 0
2019/09/05 19:57:00 BASE 3.78 276 6.07 289 -2.5 100 -2.5 32 0 1004.2 NA 0.0000 -SN BR 3200 300 0 0 0
2019/09/05 19:58:00 BASE 3.29 279 6.07 289 -2.5 100 -2.5 33 0 1004.1 NA 0.0000 -SN BR 3200 300 0 0 0
2019/09/05 19:59:00 BASE 3.46 282 5.92 291 -2.5 100 -2.5 34 0 1004.1 NA 0.0000 -SN BR 3200 230 1150 0 0
2019/09/05 20:00:00 BASE 4.11 285 5.76 286 -2.5 100 -2.5 35 0 1004.1 NA 0.0000 -SN BR 3700 0 0 0 2030
2019/09/05 20:01:00 BASE 4.88 288 5.97 290 -2.5 100 -2.5 34 0 1004.1 NA 0.0000 -SN BR 3200 0 0 0 2070
2019/09/05 20:02:00 BASE 5.19 288 5.97 290 -2.5 100 -2.5 33 0 1004.1 NA 0.0000 -SN BR 2600 0 0 0 1640
2019/09/05 20:03:00 BASE 5.47 290 6.38 290 -2.5 100 -2.5 32 0 1004.1 NA 0.0000 -SN BR 2000 0 0 0 1480
2019/09/05 20:04:00 BASE 5.61 290 6.38 290 -2.5 100 -2.5 30 0 1004.1 NA 0.0000 -SN BR 3600 0 0 0 1510
2019/09/05 20:05:00 BASE 5.51 291 6.38 290 -2.5 100 -2.5 29 0 1004.1 NA 0.0000 -SN BR 4100 0 0 0 1210
2019/09/05 20:06:00 BASE 5.67 290 6.38 290 -2.5 100 -2.5 28 0 1004.1 NA 0.0000 -SN BR 3600 0 0 0 1250
2019/09/05 20:07:00 BASE 5.20 286 6.38 290 -2.5 100 -2.5 28 0 1004.1 NA 0.0000 -SN BR 2900 0 0 0 1210
2019/09/05 20:08:00 BASE 5.13 282 6.38 290 -2.5 100 -2.5 27 0 1004.1 NA 0.0000 -SN BR 5000 0 0 0 1210
2019/09/05 20:09:00 BASE 5.04 281 6.38 290 -2.5 100 -2.5 26 0 1004.1 NA 0.0000 -SN BR 5000 0 0 0 1350
2019/09/05 20:10:00 BASE 4.60 281 6.38 290 -2.5 100 -2.5 25 0 1004.1 NA 0.0000 -SN BR 5000 230 0 0 0
2019/09/05 20:11:00 BASE 4.48 277 6.38 290 -2.5 100 -2.5 25 0 1004.1 NA 0.0000 -SN BR 5000 330 0 0 0
2019/09/05 20:12:00 BASE 4.16 274 6.38 290 -2.5 100 -2.5 26 0 1004.1 NA 0.0000 -SN BR 5000 260 0 0 0
2019/09/05 20:13:00 BASE 3.90 273 6.12 287 -2.5 100 -2.5 28 0 1004.1 NA 0.0000 -SN BR 8000 0 0 0 1380
2019/09/05 20:14:00 BASE 3.67 276 6.12 287 -2.5 100 -2.5 29 0 1004.1 NA 0.0000 -SN BR 8000 260 0 0 0
2019/09/05 20:15:00 BASE 3.81 280 6.07 291 -2.5 100 -2.5 28 0 1004.0 NA 0.0000 -SN BR 9999 300 820 0 0
2019/09/05 20:16:00 BASE 3.87 285 5.92 280 -2.5 100 -2.5 27 0 1004.0 NA 0.0000 -SN BR 9999 260 0 0 0
2019/09/05 20:17:00 BASE 3.85 292 5.92 280 -2.5 100 -2.5 27 0 1004.1 NA 0.0000 BR 9999 260 0 0 0
2019/09/05 20:18:00 BASE 4.23 292 5.56 285 -2.6 100 -2.6 27 0 1004.1 NA 0.0000 BR 9999 0 0 0 1870
2019/09/05 20:19:00 BASE 4.21 291 5.25 273 -2.6 100 -2.6 27 0 1004.1 NA 0.0000 BR 9999 260 980 0 0
2019/09/05 20:20:00 BASE 4.29 293 5.14 271 -2.6 100 -2.6 28 0 1004.1 NA 0.0000 BR 9999 0 0 0 2000
2019/09/05 20:21:00 BASE 4.61 293 4.99 282 -2.6 100 -2.6 27 0 1004.1 NA 0.0000 BR 9999 300 1120 0 0
2019/09/05 20:22:00 BASE 4.91 298 5.35 302 -2.6 100 -2.6 26 0 1004.1 NA 0.0000 9999 360 0 0 0
2019/09/05 20:23:00 BASE 4.86 308 5.35 302 -2.6 100 -2.6 25 0 1004.0 NA 0.0000 9999 330 0 0 0
2019/09/05 20:24:00 BASE 4.89 306 5.45 296 -2.6 100 -2.6 25 0 1004.1 NA 0.0000 9999 330 1050 0 0
2019/09/05 20:25:00 BASE 5.23 300 5.61 299 -2.6 100 -2.6 24 0 1004.1 NA 0.0000 9999 330 1380 0 0
2019/09/05 20:26:00 BASE 5.37 299 5.81 294 -2.6 100 -2.6 24 0 1004.1 NA 0.0000 9999 330 1380 0 0
2019/09/05 20:27:00 BASE 5.32 300 6.12 295 -2.6 100 -2.6 23 0 1004.1 NA 0.0000 9999 330 950 0 0
2019/09/05 20:28:00 BASE 5.46 299 6.12 293 -2.6 100 -2.6 23 0 1004.1 NA 0.0000 9999 360 0 0 0
2019/09/05 20:29:00 BASE 5.25 299 6.12 293 -2.6 100 -2.6 22 0 1004.1 NA 0.0000 9999 300 0 0 0
2019/09/05 20:30:00 BASE 4.90 300 6.12 293 -2.6 100 -2.6 21 0 1004.1 NA 0.0000 9999 300 0 0 0
2019/09/05 20:31:00 BASE 5.12 301 6.12 293 -2.6 100 -2.6 21 0 1004.1 NA 0.0000 9999 300 0 0 0
2019/09/05 20:32:01 BASE 5.29 302 6.12 293 -2.6 100 -2.6 20 0 1004.1 NA 0.0000 9999 260 0 0 0
2019/09/05 20:33:01 BASE 5.40 301 6.12 293 -2.6 100 -2.6 20 0 1004.1 NA 0.0000 -SN 8000 230 0 0 0
2019/09/05 20:34:01 BASE 5.24 302 6.12 293 -2.6 100 -2.6 19 0 1004.1 NA 0.0000 -SN 6000 0 0 0 1870
2019/09/05 20:35:01 BASE 4.84 302 6.12 293 -2.6 100 -2.6 18 0 1004.1 NA 0.0000 -SN BR 6000 0 0 0 1020
2019/09/05 20:36:01 BASE 4.85 298 6.12 293 -2.6 100 -2.6 18 0 1004.1 NA 0.0000 -SN BR 6000 230 0 0 0
2019/09/05 20:37:01 BASE 4.69 295 6.12 293 -2.6 100 -2.6 18 0 1004.1 NA 0.0000 -SN BR 6000 260 1250 0 0
2019/09/05 20:38:01 BASE 4.36 297 5.81 297 -2.6 100 -2.6 17 0 1004.1 NA 0.0000 -SN BR 6000 300 1540 0 0
2019/09/05 20:39:01 BASE 4.29 299 5.81 297 -2.6 100 -2.6 17 0 1004.1 NA 0.0000 -SN BR 7000 330 1510 0 0
2019/09/05 20:40:01 BASE 4.39 303 5.81 297 -2.6 100 -2.6 17 0 1004.1 NA 0.0000 -SN BR 7000 300 1440 0 0
2019/09/05 20:41:01 BASE 4.26 310 5.81 297 -2.6 100 -2.6 17 0 1004.1 NA 0.0000 -SN BR 8000 330 1480 0 0
2019/09/05 20:42:01 BASE 4.06 313 5.81 297 -2.6 100 -2.6 17 0 1004.1 NA 0.0000 -SN BR 9999 330 1510 0 0
2019/09/05 20:43:01 BASE 4.29 316 5.66 293 -2.6 100 -2.6 17 0 1004.1 NA 0.0000 -SN BR 9999 300 1540 0 0
2019/09/05 20:44:01 BASE 4.40 315 5.66 293 -2.6 100 -2.6 17 0 1004.1 NA 0.0000 -SN BR 9999 260 1570 0 0
2019/09/05 20:45:01 BASE 4.51 314 5.66 293 -2.6 100 -2.6 17 0 1004.0 NA 0.0000 -SN BR 9000 300 1570 0 0
2019/09/05 20:46:01 BASE 4.69 314 5.25 312 -2.6 100 -2.6 17 0 1004.0 NA 0.0000 -SN BR 9000 230 1510 0 0
2019/09/05 20:47:01 BASE 4.77 317 5.25 325 -2.6 100 -2.6 18 0 1004.0 NA 0.0000 -SN BR 9000 230 0 0 0
2019/09/05 20:48:01 BASE 4.54 320 5.25 325 -2.6 100 -2.6 18 0 1004.0 NA 0.0000 BR 9000 230 0 0 0
2019/09/05 20:49:01 BASE 4.46 315 5.25 325 -2.6 100 -2.6 17 0 1004.0 NA 0.0000 BR 9000 330 1570 0 0
2019/09/05 20:50:01 BASE 4.92 309 5.76 306 -2.6 100 -2.6 17 0 1004.0 NA 0.0000 BR 9999 360 1250 0 0
2019/09/05 20:51:01 BASE 5.38 304 5.97 294 -2.6 100 -2.6 17 0 1004.0 NA 0.0000 BR 9999 360 1610 0 0
2019/09/05 20:52:01 BASE 5.43 301 5.97 294 -2.6 100 -2.6 17 0 1004.0 NA 0.0000 BR 9999 330 0 0 0
2019/09/05 20:53:01 BASE 5.20 304 5.97 294 -2.7 100 -2.7 16 0 1004.0 NA 0.0000 BR 9999 330 0 0 0
2019/09/05 20:54:01 BASE 5.15 303 5.97 294 -2.7 100 -2.7 16 0 1004.0 NA 0.0000 BR 9999 360 1570 0 0
2019/09/05 20:55:01 BASE 5.19 303 5.97 294 -2.7 100 -2.7 15 0 1004.0 NA 0.0000 BR 9999 360 1640 0 0
2019/09/05 20:56:01 BASE 5.06 304 5.97 294 -2.7 100 -2.7 15 0 1004.0 NA 0.0000 9999 360 0 0 0
2019/09/05 20:57:01 BASE 4.89 304 5.97 294 -2.7 100 -2.7 15 0 1004.0 NA 0.0000 9999 360 0 0 0
2019/09/05 20:58:01 BASE 5.26 302 6.28 293 -2.7 100 -2.7 14 0 1004.0 NA 0.0000 9999 330 0 0 0
2019/09/05 20:59:01 BASE 5.35 298 6.28 293 -2.7 100 -2.7 13 0 1004.0 NA 0.0000 9999 360 0 0 0
2019/09/05 21:00:01 BASE 5.08 296 6.28 293 -2.7 100 -2.7 13 0 1004.0 NA 0.0000 9999 360 0 0 0
2019/09/05 21:01:01 BASE 4.96 296 6.28 293 -2.7 100 -2.7 11 0 1004.0 NA 0.0000 9999 360 0 0 0
2019/09/05 21:02:01 BASE 5.24 294 6.48 287 -2.7 100 -2.7 11 0 1004.1 NA 0.0000 9999 390 0 0 0
2019/09/05 21:03:01 BASE 6.04 292 7.36 283 -2.7 100 -2.7 10 0 1004.1 NA 0.0000 9999 360 0 0 0
2019/09/05 21:04:01 BASE 6.50 291 7.36 283 -2.6 100 -2.6 9 0 1004.1 NA 0.0000 9999 430 0 0 0
2019/09/05 21:05:01 BASE 6.72 291 7.61 289 -2.6 100 -2.6 9 0 1004.1 NA 0.0000 9999 390 0 0 0
2019/09/05 21:06:01 BASE 6.14 293 7.61 289 -2.6 100 -2.6 9 0 1004.0 NA 0.0000 9999 390 0 0 0
2019/09/05 21:07:01 BASE 5.33 301 7.61 289 -2.6 100 -2.6 8 0 1004.0 NA 0.0000 9999 430 0 0 0
2019/09/05 21:08:01 BASE 5.38 304 7.61 289 -2.6 100 -2.6 8 0 1004.0 NA 0.0000 9999 460 0 0 0
2019/09/05 21:09:01 BASE 5.66 305 7.61 289 -2.6 100 -2.6 8 0 1004.0 NA 0.0000 9999 390 0 0 0
2019/09/05 21:10:01 BASE 6.10 307 7.61 289 -2.6 100 -2.6 8 0 1004.0 NA 0.0000 9999 330 0 0 0
2019/09/05 21:11:01 BASE 5.86 305 7.61 289 -2.6 100 -2.6 8 0 1004.0 NA 0.0000 9999 330 0 0 0
2019/09/05 21:12:01 BASE 4.99 306 7.61 289 -2.7 100 -2.7 8 0 1004.0 NA 0.0000 9999 390 0 0 0
2019/09/05 21:13:01 BASE 5.13 302 7.61 289 -2.7 100 -2.7 7 0 1003.9 NA 0.0000 9999 430 0 0 0
2019/09/05 21:14:01 BASE 5.65 295 7.61 289 -2.7 100 -2.7 7 0 1003.9 NA 0.0000 9999 490 0 0 0
2019/09/05 21:15:01 BASE 5.67 292 7.00 283 -2.7 100 -2.7 7 0 1003.9 NA 0.0000 9999 560 0 0 0
2019/09/05 21:16:01 BASE 5.42 293 7.00 283 -2.7 100 -2.7 6 0 1003.9 NA 0.0000 9999 520 0 0 0
2019/09/05 21:17:01 BASE 5.23 296 7.00 283 -2.7 100 -2.7 6 0 1004.0 NA 0.0000 9999 490 0 0 0
2019/09/05 21:18:01 BASE 5.01 297 7.00 283 -2.7 100 -2.7 6 0 1004.0 NA 0.0000 9999 520 0 0 0
2019/09/05 21:19:01 BASE 4.69 297 7.00 283 -2.7 100 -2.7 5 0 1003.9 NA 0.0000 9999 520 1350 0 0
2019/09/05 21:20:01 BASE 4.82 294 7.00 283 -2.7 100 -2.7 5 0 1003.9 NA 0.0000 9999 520 1570 0 0
2019/09/05 21:21:00 BASE 4.73 295 7.00 283 -2.7 100 -2.7 4 0 1003.9 NA 0.0000 9999 490 0 0 0
2019/09/05 21:22:00 BASE 4.36 298 7.00 283 -2.6 100 -2.6 4 0 1003.9 NA 0.0000 9999 590 0 0 0
2019/09/05 21:23:00 BASE 4.31 298 7.00 283 -2.6 100 -2.6 4 0 1003.9 NA 0.0000 9999 560 0 0 0
2019/09/05 21:24:00 BASE 4.50 300 6.22 292 -2.6 100 -2.6 3 0 1003.9 NA 0.0000 9999 560 0 0 0
2019/09/05 21:25:00 BASE 5.05 296 6.07 290 -2.6 100 -2.6 3 0 1003.9 NA 0.0000 9999 460 0 0 0
2019/09/05 21:26:00 BASE 5.23 294 6.07 290 -2.6 100 -2.6 3 0 1003.8 NA 0.0000 9999 520 0 0 0
2019/09/05 21:27:00 BASE 4.78 296 6.07 290 -2.6 100 -2.6 3 0 1003.8 NA 0.0000 9999 460 0 0 0
2019/09/05 21:28:00 BASE 4.78 299 6.07 290 -2.6 100 -2.6 2 0 1003.8 NA 0.0000 9999 430 1280 0 0
2019/09/05 21:29:00 BASE 5.16 296 6.07 290 -2.6 100 -2.6 2 0 1003.8 NA 0.0000 9999 430 1210 0 0
2019/09/05 21:30:00 BASE 5.08 293 6.07 290 -2.6 100 -2.6 2 0 1003.8 NA 0.0000 9999 300 1180 0 0
2019/09/05 21:31:00 BASE 4.85 296 6.07 290 -2.6 100 -2.6 2 0 1003.8 NA 0.0000 9999 330 0 0 0
2019/09/05 21:32:00 BASE 5.27 300 6.07 290 -2.6 100 -2.6 1 0 1003.8 NA 0.0000 9999 490 0 0 0
2019/09/05 21:33:00 BASE 6.01 297 6.64 299 -2.6 100 -2.6 1 0 1003.8 NA 0.0000 9999 390 0 0 0
2019/09/05 21:34:00 BASE 6.12 289 6.64 299 -2.6 100 -2.6 1 0 1003.9 NA 0.0000 9999 330 0 0 0
2019/09/05 21:35:00 BASE 5.59 284 6.64 299 -2.6 100 -2.6 1 0 1004.0 NA 0.0000 9999 330 920 0 0
2019/09/05 21:36:00 BASE 5.18 281 6.64 299 -2.6 100 -2.6 1 0 1004.0 NA 0.0000 9999 360 0 0 0
2019/09/05 21:37:00 BASE 5.07 277 6.64 299 -2.6 100 -2.6 1 0 1004.0 NA 0.0000 9999 430 0 0 0
2019/09/05 21:38:00 BASE 4.85 281 6.64 299 -2.6 100 -2.6 1 0 1004.0 NA 0.0000 9999 620 0 0 0
2019/09/05 21:39:00 BASE 4.65 290 6.64 299 -2.6 100 -2.6 1 0 1004.0 NA 0.0000 9999 520 0 0 0
2019/09/05 21:40:00 BASE 4.54 291 6.64 299 -2.6 100 -2.6 1 0 1004.0 NA 0.0000 9999 520 0 0 0
2019/09/05 21:41:00 BASE 3.99 295 6.64 299 -2.6 100 -2.6 1 0 1004.0 NA 0.0000 9999 560 0 0 0
2019/09/05 21:42:00 BASE 4.00 303 6.64 299 -2.6 100 -2.6 1 0 1004.0 NA 0.0000 9999 490 0 0 0
2019/09/05 21:43:00 BASE 4.72 303 6.48 287 -2.6 100 -2.6 1 0 1004.0 NA 0.0000 9999 360 1380 0 0
2019/09/05 21:44:00 BASE 4.97 303 5.86 289 -2.6 100 -2.6 1 0 1004.0 NA 0.0000 9999 560 1380 0 0
2019/09/05 21:45:00 BASE 4.58 307 5.56 300 -2.6 100 -2.6 1 0 1004.0 NA 0.0000 9999 520 0 0 0
2019/09/05 21:46:00 BASE 4.20 310 5.56 300 -2.6 100 -2.6 1 0 1004.0 NA 0.0000 9999 620 0 0 0
2019/09/05 21:47:00 BASE 4.50 314 5.56 300 -2.6 100 -2.6 1 0 1004.0 NA 0.0000 9999 590 0 0 0
2019/09/05 21:48:00 BASE 4.77 310 5.56 300 -2.6 100 -2.6 1 0 1004.0 NA 0.0000 9999 660 1120 0 0
2019/09/05 21:49:00 BASE 4.91 300 6.02 297 -2.6 100 -2.6 1 0 1004.0 NA 0.0000 9999 890 0 0 0
2019/09/05 21:50:00 BASE 5.61 293 6.74 291 -2.6 100 -2.6 1 0 1004.0 NA 0.0000 9999 460 890 0 0
2019/09/05 21:51:00 BASE 5.73 292 6.74 291 -2.6 100 -2.6 0 0 1004.0 NA 0.0000 9999 330 0 0 0
2019/09/05 21:52:00 BASE 5.21 293 6.74 291 -2.6 100 -2.6 0 0 1004.0 NA 0.0000 9999 390 0 0 0
2019/09/05 21:53:00 BASE 4.76 293 6.74 291 -2.6 100 -2.6 0 0 1004.0 NA 0.0000 9999 590 0 0 0
2019/09/05 21:54:00 BASE 4.28 293 6.74 291 -2.6 100 -2.6 0 0 1004.0 NA 0.0000 9999 390 0 0 0
2019/09/05 21:55:00 BASE 4.17 294 6.74 291 -2.6 100 -2.6 0 0 1004.0 NA 0.0000 9999 300 0 0 0
2019/09/05 21:56:00 BASE 4.54 294 6.74 291 -2.5 100 -2.5 0 0 1003.9 NA 0.0000 9999 230 0 0 0
2019/09/05 21:57:00 BASE 4.41 299 6.74 291 -2.5 100 -2.5 0 0 1003.9 NA 0.0000 9999 160 950 0 0
2019/09/05 21:58:00 BASE 3.71 308 6.74 291 -2.5 100 -2.5 0 0 1003.8 NA 0.0000 9999 0 0 0 1800
2019/09/05 21:59:00 BASE 3.72 315 6.74 291 -2.5 100 -2.5 0 0 1003.8 NA 0.0000 9999 0 0 0 1640
2019/09/05 22:00:00 BASE 4.28 319 5.81 296 -2.6 100 -2.6 0 0 1003.8 NA 0.0000 9999 0 0 0 980
2019/09/05 22:01:00 BASE 4.74 321 5.45 321 -2.6 100 -2.6 0 0 1003.7 NA 0.0000 9999 0 0 0 820
2019/09/05 22:02:00 BASE 5.19 324 6.12 322 -2.6 100 -2.6 0 0 1003.6 NA 0.0000 9999 0 0 0 790
2019/09/05 22:03:00 BASE 5.70 325 6.43 326 -2.6 100 -2.6 0 0 1003.6 NA 0.0000 9999 0 0 0 750
2019/09/05 22:04:00 BASE 5.83 326 6.43 326 -2.6 100 -2.6 0 0 1003.6 NA 0.0000 9999 0 0 0 850
2019/09/05 22:05:00 BASE 5.66 319 6.43 326 -2.5 100 -2.5 0 0 1003.6 NA 0.0000 9999 0 0 0 850
2019/09/05 22:06:00 BASE 5.08 313 6.43 326 -2.5 100 -2.5 0 0 1003.7 NA 0.0000 9999 0 0 0 1020
2019/09/05 22:07:00 BASE 4.83 312 6.43 326 -2.5 100 -2.5 0 0 1003.7 NA 0.0000 9999 0 0 0 1610
2019/09/05 22:08:00 BASE 5.60 307 6.74 301 -2.5 100 -2.5 0 0 1003.8 NA 0.0000 9999 300 0 0 0
2019/09/05 22:09:00 BASE 5.69 303 6.74 301 -2.5 100 -2.5 0 0 1003.8 NA 0.0000 9999 330 0 0 0
2019/09/05 22:10:00 BASE 5.50 303 6.74 301 -2.5 100 -2.5 0 0 1003.8 NA 0.0000 9999 330 0 0 0
2019/09/05 22:11:00 BASE 5.45 306 6.74 301 -2.5 100 -2.5 0 0 1003.9 NA 0.0000 9999 330 0 0 0
2019/09/05 22:12:00 BASE 5.21 307 6.74 301 -2.5 100 -2.5 0 0 1003.9 NA 0.0000 9999 300 0 0 0
2019/09/05 22:13:00 BASE 5.36 308 6.74 301 -2.5 100 -2.5 0 0 1003.9 NA 0.0000 9999 260 0 0 0
2019/09/05 22:14:00 BASE 5.73 308 6.74 301 -2.5 100 -2.5 0 0 1003.8 NA 0.0000 9999 200 0 0 0
2019/09/05 22:15:00 BASE 5.75 299 6.74 301 -2.5 100 -2.5 0 0 1003.9 NA 0.0000 9999 0 0 0 1310
2019/09/05 22:16:00 BASE 5.32 289 6.74 301 -2.5 100 -2.5 0 0 1003.9 NA 0.0000 9999 0 0 0 1120
2019/09/05 22:17:00 BASE 5.35 290 6.74 301 -2.5 100 -2.5 0 0 1003.9 NA 0.0000 9999 0 0 0 850
2019/09/05 22:18:00 BASE 5.66 298 6.58 302 -2.5 100 -2.5 0 0 1003.8 NA 0.0000 9999 0 0 0 850
2019/09/05 22:19:00 BASE 5.83 305 6.58 302 -2.4 100 -2.4 0 0 1003.8 NA 0.0000 9999 0 0 0 1480
2019/09/05 22:20:00 BASE 5.76 310 6.58 302 -2.4 100 -2.4 0 0 1003.8 NA 0.0000 9999 0 0 0 1480
2019/09/05 22:21:00 BASE 5.12 317 6.58 302 -2.4 100 -2.4 0 0 1003.8 NA 0.0000 9999 0 0 0 950
2019/09/05 22:22:00 BASE 4.80 320 6.58 302 -2.4 100 -2.4 0 0 1003.8 NA 0.0000 9999 230 0 0 0
2019/09/05 22:23:01 BASE 5.15 319 6.58 302 -2.4 100 -2.4 0 0 1003.8 NA 0.0000 9999 260 0 0 0
2019/09/05 22:24:01 BASE 5.33 311 6.43 307 -2.4 100 -2.4 0 0 1003.8 NA 0.0000 9999 200 0 0 0
2019/09/05 22:25:01 BASE 5.42 307 6.43 307 -2.4 100 -2.4 0 0 1003.8 NA 0.0000 9999 200 0 0 0
2019/09/05 22:26:01 BASE 5.29 309 6.43 307 -2.4 100 -2.4 0 0 1003.8 NA 0.0000 9999 230 0 0 0
2019/09/05 22:27:01 BASE 4.67 310 6.43 307 -2.4 100 -2.4 0 0 1003.8 NA 0.0000 9999 200 0 0 0
2019/09/05 22:28:01 BASE 4.18 311 6.43 307 -2.4 100 -2.4 0 0 1003.8 NA 0.0000 9999 0 0 0 1310
2019/09/05 22:29:01 BASE 4.05 310 6.17 316 -2.4 100 -2.4 0 0 1003.8 NA 0.0000 9999 0 0 0 1250
2019/09/05 22:30:01 BASE 4.33 310 6.02 297 -2.4 100 -2.4 0 0 1003.8 NA 0.0000 9999 0 0 0 1180
2019/09/05 22:31:01 BASE 4.80 305 6.02 297 -2.4 100 -2.4 0 0 1003.8 NA 0.0000 9999 200 0 0 0
2019/09/05 22:32:01 BASE 4.62 303 6.02 297 -2.4 100 -2.4 0 0 1003.8 NA 0.0000 9999 200 0 0 0
2019/09/05 22:33:01 BASE 4.32 314 6.02 297 -2.4 100 -2.4 0 0 1003.8 NA 0.0000 9999 160 0 0 0
2019/09/05 22:34:01 BASE 4.67 321 6.02 297 -2.4 100 -2.4 0 0 1003.8 NA 0.0000 9999 0 0 0 1180
2019/09/05 22:35:01 BASE 4.84 319 5.92 294 -2.4 100 -2.4 0 0 1003.8 NA 0.0000 9999 0 0 0 1120
2019/09/05 22:36:01 BASE 4.38 315 5.45 288 -2.4 100 -2.4 0 0 1003.8 NA 0.0000 9999 0 0 0 1050
2019/09/05 22:37:01 BASE 3.80 313 5.45 288 -2.4 100 -2.4 0 0 1003.8 NA 0.0000 9999 0 0 0 890
2019/09/05 22:38:01 BASE 3.65 313 5.45 288 -2.3 100 -2.3 0 0 1003.8 NA 0.0000 9999 0 0 0 890
2019/09/05 22:39:01 BASE 4.07 314 5.45 288 -2.3 100 -2.3 0 0 1003.8 NA 0.0000 9999 0 0 0 950
2019/09/05 22:40:01 BASE 4.59 311 5.45 288 -2.3 100 -2.3 0 0 1003.8 NA 0.0000 9999 0 0 0 950
2019/09/05 22:41:01 BASE 4.48 306 5.35 316 -2.3 100 -2.3 0 0 1003.8 NA 0.0000 9999 0 0 0 850
2019/09/05 22:42:01 BASE 3.51 303 5.35 316 -2.3 100 -2.3 0 0 1003.8 NA 0.0000 9999 0 0 0 850
2019/09/05 22:43:01 BASE 2.93 311 5.35 316 -2.3 100 -2.3 0 0 1003.8 NA 0.0000 9000 0 0 0 820
2019/09/05 22:44:01 BASE 3.17 335 5.14 309 -2.3 100 -2.3 0 0 1003.8 NA 0.0000 9000 0 0 0 750
2019/09/05 22:45:01 BASE 3.95 348 5.14 309 -2.3 100 -2.3 0 0 1003.8 NA 0.0000 9000 0 0 0 790
2019/09/05 22:46:01 BASE 4.42 346 5.14 309 -2.3 100 -2.3 0 0 1003.8 NA 0.0000 9999 0 0 0 720
2019/09/05 22:47:01 BASE 4.15 345 5.14 309 -2.3 100 -2.3 0 0 1003.7 NA 0.0000 9000 0 0 0 750
2019/09/05 22:48:01 BASE 4.09 346 5.14 309 -2.3 100 -2.3 0 0 1003.6 NA 0.0000 8000 0 0 0 820
2019/09/05 22:49:01 BASE 4.10 346 5.14 309 -2.3 100 -2.3 0 0 1003.6 NA 0.0000 BR 8000 0 0 0 820
2019/09/05 22:50:01 BASE 3.87 345 4.99 308 -2.3 100 -2.3 0 0 1003.6 NA 0.0000 BR 9000 0 0 0 750
2019/09/05 22:51:01 BASE 3.54 339 4.84 352 -2.3 100 -2.3 0 0 1003.6 NA 0.0000 BR 9999 0 0 0 750
2019/09/05 22:52:01 BASE 3.22 336 4.84 352 -2.3 100 -2.3 0 0 1003.6 NA 0.0000 BR 8000 0 0 0 720
2019/09/05 22:53:01 BASE 3.16 336 4.84 352 -2.3 100 -2.3 0 0 1003.5 NA 0.0000 BR 6000 0 0 0 790
2019/09/05 22:54:01 BASE 3.32 338 4.84 352 -2.3 100 -2.3 0 0 1003.5 NA 0.0000 BR 8000 0 0 0 750
2019/09/05 22:55:01 BASE 3.12 336 4.68 350 -2.3 100 -2.3 0 0 1003.6 NA 0.0000 BR 7000 0 0 0 720
2019/09/05 22:56:01 BASE 2.84 334 4.48 347 -2.3 100 -2.3 0 0 1003.6 NA 0.0000 BR 6000 0 0 0 720
2019/09/05 22:57:01 BASE 2.97 325 4.48 347 -2.2 100 -2.2 0 0 1003.6 NA 0.0000 BR 6000 0 0 0 750
2019/09/05 22:58:01 BASE 3.23 318 4.48 347 -2.2 100 -2.2 0 0 1003.6 NA 0.0000 BR 6000 0 0 0 750
2019/09/05 22:59:01 BASE 3.22 321 4.48 347 -2.2 100 -2.2 0 0 1003.6 NA 0.0000 BR 5000 0 0 0 850
2019/09/05 23:00:01 BASE 3.20 322 3.81 319 -2.2 100 -2.2 0 0 1003.6 NA 0.0000 BR 5000 0 0 0 720
2019/09/05 23:01:01 BASE 3.37 321 3.91 316 -2.2 100 -2.2 0 0 1003.6 NA 0.0000 BR 5000 0 0 0 850
2019/09/05 23:02:01 BASE 3.16 318 3.91 316 -2.2 100 -2.2 0 0 1003.6 NA 0.0000 BR 5000 0 0 0 820
2019/09/05 23:03:01 BASE 2.87 318 3.91 316 -2.2 100 -2.2 0 0 1003.6 NA 0.0000 BR 5000 0 0 0 850
2019/09/05 23:04:01 BASE 2.81 318 3.91 316 -2.2 100 -2.2 0 0 1003.6 NA 0.0000 BR 5000 0 0 0 890
2019/09/05 23:05:01 BASE 2.64 313 3.91 316 -2.2 100 -2.2 0 0 1003.6 NA 0.0000 BR 4400 0 0 0 920
2019/09/05 23:06:01 BASE 2.53 319 3.91 316 -2.2 100 -2.2 0 0 1003.6 NA 0.0000 BR 4200 0 0 0 1050
2019/09/05 23:07:01 BASE 2.13 332 3.91 316 -2.2 100 -2.2 0 0 1003.6 NA 0.0000 BR 4800 0 0 0 1050
2019/09/05 23:08:01 BASE 1.82 332 3.91 316 -2.2 100 -2.2 0 0 1003.7 NA 0.0000 BR 5000 0 0 0 980
2019/09/05 23:09:01 BASE 2.02 331 3.91 316 -2.3 100 -2.3 0 0 1003.8 NA 0.0000 BR 4700 0 0 0 790
2019/09/05 23:10:01 BASE 2.22 336 3.91 316 -2.3 100 -2.3 0 0 1003.8 NA 0.0000 BR 4700 0 0 0 750
2019/09/05 23:11:01 BASE 2.26 335 3.24 317 -2.3 100 -2.3 0 0 1003.8 NA 0.0000 BR 5000 0 0 0 750
2019/09/05 23:12:01 BASE 2.18 337 3.24 317 -2.3 100 -2.3 0 0 1003.8 NA 0.0000 BR 4400 0 0 0 890
2019/09/05 23:13:01 BASE 2.27 331 3.09 306 -2.3 100 -2.3 0 0 1003.8 NA 0.0000 BR 4200 0 0 0 820
2019/09/05 23:14:01 BASE 2.53 326 2.83 336 -2.3 100 -2.3 0 0 1003.9 NA 0.0000 BR 5000 0 0 0 820
2019/09/05 23:15:01 BASE 2.77 331 3.29 328 -2.3 100 -2.3 0 0 1003.9 NA 0.0000 BR 6000 0 0 0 950
2019/09/05 23:16:01 BASE 2.84 329 3.29 328 -2.3 100 -2.3 0 0 1003.9 NA 0.0000 BR 7000 0 0 0 1080
2019/09/05 23:17:01 BASE 2.72 335 3.29 328 -2.3 100 -2.3 0 0 1003.8 NA 0.0000 BR 5000 0 0 0 980
2019/09/05 23:18:01 BASE 2.71 344 3.29 328 -2.2 100 -2.2 0 0 1003.8 NA 0.0000 BR 5000 0 0 0 950
2019/09/05 23:19:01 BASE 3.07 349 3.86 351 -2.2 100 -2.2 0 0 1003.7 NA 0.0000 BR 6000 0 0 0 890
2019/09/05 23:20:00 BASE 3.37 356 3.86 351 -2.2 100 -2.2 0 0 1003.8 NA 0.0000 BR 7000 0 0 0 950
2019/09/05 23:21:01 BASE 3.33 356 3.86 351 -2.2 100 -2.2 0 0 1003.8 NA 0.0000 BR 7000 0 0 0 890
2019/09/05 23:22:01 BASE 3.24 352 3.86 351 -2.2 100 -2.2 0 0 1003.8 NA 0.0000 BR 7000 0 0 0 920
2019/09/05 23:23:00 BASE 3.10 351 3.86 351 -2.2 100 -2.2 0 0 1003.8 NA 0.0000 BR 7000 0 0 0 920
2019/09/05 23:24:01 BASE 2.84 348 3.86 351 -2.2 100 -2.2 0 0 1003.8 NA 0.0000 BR 7000 0 0 0 920
2019/09/05 23:25:00 BASE 2.52 342 3.86 351 -2.2 100 -2.2 0 0 1003.7 NA 0.0000 BR 6000 0 0 0 1080
2019/09/05 23:26:01 BASE 2.39 343 3.86 351 -2.2 100 -2.2 0 0 1003.6 NA 0.0000 BR 5000 0 0 0 1080
2019/09/05 23:27:00 BASE 2.61 356 3.86 351 -2.2 100 -2.2 0 0 1003.5 NA 0.0000 BR 5000 0 0 0 1020
2019/09/05 23:28:01 BASE 2.94 358 3.86 351 -2.2 100 -2.2 0 0 1003.5 NA 0.0000 BR 5000 0 0 0 1020
2019/09/05 23:29:00 BASE 3.31 350 4.42 340 -2.2 100 -2.2 0 0 1003.5 NA 0.0000 BR 6000 0 0 0 1050
2019/09/05 23:30:00 BASE 3.65 347 4.42 340 -2.2 100 -2.2 0 0 1003.4 NA 0.0000 BR 8000 0 0 0 1120
2019/09/05 23:31:00 BASE 3.77 342 4.42 340 -2.2 100 -2.2 0 0 1003.4 NA 0.0000 BR 9000 0 0 0 1080
2019/09/05 23:32:01 BASE 3.89 343 4.42 340 -2.2 100 -2.2 0 0 1003.4 NA 0.0000 BR 9999 0 0 0 1150
2019/09/05 23:33:00 BASE 4.12 347 4.42 340 -2.2 100 -2.2 0 0 1003.4 NA 0.0000 BR 9999 0 0 0 1210
2019/09/05 23:34:01 BASE 4.17 349 4.42 351 -2.2 100 -2.2 0 0 1003.4 NA 0.0000 BR 9999 0 0 0 1310
2019/09/05 23:35:00 BASE 4.28 349 4.68 347 -2.2 100 -2.2 0 0 1003.4 NA 0.0000 BR 9999 0 0 0 1310
2019/09/05 23:36:01 BASE 4.57 345 4.89 340 -2.2 100 -2.2 0 0 1003.4 NA 0.0000 BR 9999 0 0 0 1280
2019/09/05 23:37:01 BASE 4.66 343 5.14 338 -2.2 100 -2.2 0 0 1003.5 NA 0.0000 BR 9999 0 0 0 1310
2019/09/05 23:38:01 BASE 4.86 340 5.35 337 -2.2 100 -2.2 0 0 1003.5 NA 0.0000 9999 0 0 0 1310
2019/09/05 23:39:01 BASE 5.01 337 5.35 337 -2.2 100 -2.2 0 0 1003.5 NA 0.0000 9999 0 0 0 1310
2019/09/05 23:40:01 BASE 4.74 338 5.35 337 -2.2 100 -2.2 0 0 1003.5 NA 0.0000 9999 0 0 0 1280
2019/09/05 23:41:01 BASE 4.92 339 5.61 340 -2.2 100 -2.2 0 0 1003.5 NA 0.0000 9999 0 0 0 1250
2019/09/05 23:42:00 BASE 5.38 342 5.71 346 -2.2 100 -2.2 0 0 1003.5 NA 0.0000 9999 0 0 0 1250
2019/09/05 23:43:00 BASE 5.20 345 5.71 346 -2.2 100 -2.2 0 0 1003.5 NA 0.0000 9999 0 0 0 1310
2019/09/05 23:44:00 BASE 5.22 346 5.71 346 -2.2 100 -2.2 0 0 1003.5 NA 0.0000 9999 0 0 0 1350
2019/09/05 23:45:00 BASE 5.39 347 5.81 346 -2.2 100 -2.2 0 0 1003.5 NA 0.0000 9999 0 0 0 1310
2019/09/05 23:46:00 BASE 5.28 344 5.81 339 -2.2 100 -2.2 0 0 1003.5 NA 0.0000 9999 0 0 0 1310
2019/09/05 23:47:00 BASE 5.61 344 6.43 345 -2.2 100 -2.2 0 0 1003.5 NA 0.0000 9999 0 0 0 1350
2019/09/05 23:48:00 BASE 5.99 348 6.43 345 -2.2 100 -2.2 0 0 1003.4 NA 0.0000 9999 0 0 0 1410
2019/09/05 23:49:00 BASE 6.05 348 6.43 348 -2.2 100 -2.2 0 0 1003.4 NA 0.0000 9999 0 0 0 1410
2019/09/05 23:50:00 BASE 5.98 350 6.58 353 -2.2 100 -2.2 0 0 1003.4 NA 0.0000 9999 0 0 0 1570
2019/09/05 23:51:00 BASE 5.97 352 6.58 353 -2.2 100 -2.2 0 0 1003.4 NA 0.0000 9999 0 0 0 1640
2019/09/05 23:52:00 BASE 5.99 353 6.58 353 -2.2 100 -2.2 0 0 1003.4 NA 0.0000 9999 0 0 0 1480
2019/09/05 23:53:00 BASE 5.81 352 6.58 353 -2.2 100 -2.2 0 0 1003.4 NA 0.0000 9999 0 0 0 1540
2019/09/05 23:54:00 BASE 5.59 356 6.58 353 -2.2 100 -2.2 0 0 1003.4 NA 0.0000 9999 0 0 0 1540
2019/09/05 23:55:00 BASE 5.32 358 6.58 353 -2.3 100 -2.3 0 0 1003.4 NA 0.0000 9999 0 0 0 1710
2019/09/05 23:56:00 BASE 5.27 355 6.58 353 -2.3 100 -2.3 0 0 1003.4 NA 0.0000 9999 0 0 0 1800
2019/09/05 23:57:00 BASE 5.10 353 6.58 353 -2.3 100 -2.3 0 0 1003.4 NA 0.0000 9999 0 0 0 1840
2019/09/05 23:58:00 BASE 4.67 348 6.58 353 -2.3 100 -2.3 0 0 1003.4 NA 0.0000 9999 0 0 0 1840
2019/09/05 23:59:00 BASE 4.73 347 6.58 353 -2.3 100 -2.3 0 0 1003.3 NA 0.0000 9999 230 0 0 0